Wetterdaten: Freitag, 14.02.2025
Datum Zeit Temp. I. Temp. A. Feuchte I. Feuchte A. Luftdruck Regen Wind Richtung Richtung Sonnenschein Solar Taupunkt Windchill Windböen
14.02.2025 00:00 22,1 °C -1,3 °C 47 % 91 % 1019,6 hPa 0,0 l/m² 5,2 km/h (1 Bft) W 274 ° 0 min 0 W/m² -2,6 °C -1,3 °C 11,3 km/h (2 Bft)
14.02.2025 00:01 22,1 °C -1,3 °C 47 % 91 % 1019,6 hPa 0,0 l/m² 2,1 km/h (1 Bft) W 276 ° 0 min 0 W/m² -2,6 °C -1,3 °C 3,2 km/h (1 Bft)
14.02.2025 00:02 22,1 °C -1,3 °C 47 % 91 % 1019,6 hPa 0,0 l/m² 4,3 km/h (1 Bft) W 268 ° 0 min 0 W/m² -2,6 °C -1,3 °C 6,4 km/h (2 Bft)
14.02.2025 00:03 22,1 °C -1,3 °C 47 % 91 % 1019,7 hPa 0,0 l/m² 5,3 km/h (1 Bft) W 275 ° 0 min 0 W/m² -2,6 °C -1,3 °C 6,4 km/h (2 Bft)
14.02.2025 00:04 22,1 °C -1,3 °C 47 % 91 % 1019,7 hPa 0,0 l/m² 5,2 km/h (1 Bft) W 277 ° 0 min 0 W/m² -2,6 °C -1,3 °C 9,7 km/h (2 Bft)
14.02.2025 00:06 22,1 °C -1,2 °C 47 % 91 % 1019,7 hPa 0,0 l/m² 4,6 km/h (1 Bft) W-NW 298 ° 0 min 0 W/m² -2,5 °C -1,2 °C 9,7 km/h (2 Bft)
14.02.2025 00:08 22,1 °C -1,2 °C 47 % 91 % 1019,6 hPa 0,0 l/m² 4,4 km/h (1 Bft) W 280 ° 0 min 0 W/m² -2,5 °C -1,2 °C 11,3 km/h (2 Bft)
14.02.2025 00:10 22,1 °C -1,2 °C 47 % 91 % 1019,6 hPa 0,0 l/m² 5,2 km/h (1 Bft) W-NW 285 ° 0 min 0 W/m² -2,5 °C -1,2 °C 9,7 km/h (2 Bft)
14.02.2025 00:11 22,1 °C -1,2 °C 47 % 91 % 1019,7 hPa 0,0 l/m² 2,9 km/h (1 Bft) W-NW 285 ° 0 min 0 W/m² -2,5 °C -1,2 °C 9,7 km/h (2 Bft)
14.02.2025 00:13 22,1 °C -1,2 °C 47 % 91 % 1019,6 hPa 0,0 l/m² 3,9 km/h (1 Bft) W 269 ° 0 min 0 W/m² -2,5 °C -1,2 °C 9,7 km/h (2 Bft)
14.02.2025 00:14 22,1 °C -1,2 °C 47 % 91 % 1019,6 hPa 0,0 l/m² 6,4 km/h (2 Bft) W 273 ° 0 min 0 W/m² -2,5 °C -1,2 °C 9,7 km/h (2 Bft)
14.02.2025 00:16 22,1 °C -1,2 °C 47 % 91 % 1019,7 hPa 0,0 l/m² 3,2 km/h (1 Bft) W-NW 294 ° 0 min 0 W/m² -2,5 °C -1,2 °C 6,4 km/h (2 Bft)
14.02.2025 00:18 22,1 °C -1,1 °C 47 % 91 % 1019,7 hPa 0,0 l/m² 4,4 km/h (1 Bft) W-NW 289 ° 0 min 0 W/m² -2,4 °C -1,1 °C 12,9 km/h (3 Bft)
14.02.2025 00:20 22,1 °C -1,1 °C 47 % 91 % 1019,7 hPa 0,0 l/m² 7,5 km/h (2 Bft) W 269 ° 0 min 0 W/m² -2,4 °C -2,3 °C 12,9 km/h (3 Bft)
14.02.2025 00:21 22,1 °C -1,1 °C 47 % 91 % 1019,7 hPa 0,0 l/m² 7,5 km/h (2 Bft) W 271 ° 0 min 0 W/m² -2,4 °C -2,3 °C 14,5 km/h (3 Bft)
14.02.2025 00:23 22,1 °C -1,1 °C 47 % 91 % 1019,8 hPa 0,0 l/m² 5,7 km/h (2 Bft) W 268 ° 0 min 0 W/m² -2,4 °C -1,1 °C 9,7 km/h (2 Bft)
14.02.2025 00:24 22,1 °C -1,1 °C 47 % 91 % 1019,7 hPa 0,0 l/m² 2,4 km/h (1 Bft) NW 305 ° 0 min 0 W/m² -2,4 °C -1,1 °C 4,8 km/h (1 Bft)
14.02.2025 00:26 22,1 °C -1,1 °C 47 % 91 % 1019,8 hPa 0,0 l/m² 5,3 km/h (1 Bft) W-NW 296 ° 0 min 0 W/m² -2,4 °C -1,1 °C 11,3 km/h (2 Bft)
14.02.2025 00:28 22,1 °C -1,1 °C 47 % 91 % 1019,8 hPa 0,0 l/m² 4,6 km/h (1 Bft) NW 315 ° 0 min 0 W/m² -2,4 °C -1,1 °C 11,3 km/h (2 Bft)
14.02.2025 00:30 22,1 °C -1,1 °C 47 % 91 % 1019,8 hPa 0,0 l/m² 5,9 km/h (2 Bft) NW 315 ° 0 min 0 W/m² -2,4 °C -1,1 °C 12,9 km/h (3 Bft)
14.02.2025 00:31 22,1 °C -1,0 °C 47 % 91 % 1019,8 hPa 0,0 l/m² 5,1 km/h (1 Bft) W-NW 284 ° 0 min 0 W/m² -2,3 °C -1,0 °C 14,5 km/h (3 Bft)
14.02.2025 00:33 22,1 °C -1,0 °C 47 % 91 % 1019,9 hPa 0,0 l/m² 7,1 km/h (2 Bft) N-NW 328 ° 0 min 0 W/m² -2,3 °C -1,7 °C 14,5 km/h (3 Bft)
14.02.2025 00:34 22,1 °C -1,0 °C 47 % 91 % 1019,8 hPa 0,0 l/m² 3,8 km/h (1 Bft) W 273 ° 0 min 0 W/m² -2,3 °C -1,0 °C 6,4 km/h (2 Bft)
14.02.2025 00:35 22,1 °C -1,0 °C 47 % 91 % 1019,8 hPa 0,0 l/m² 5,2 km/h (1 Bft) W 270 ° 0 min 0 W/m² -2,3 °C -1,0 °C 11,3 km/h (2 Bft)
14.02.2025 00:37 22,1 °C -1,0 °C 47 % 91 % 1019,9 hPa 0,0 l/m² 2,8 km/h (1 Bft) NW 308 ° 0 min 0 W/m² -2,3 °C -1,0 °C 11,3 km/h (2 Bft)
14.02.2025 00:38 22,1 °C -1,0 °C 47 % 91 % 1019,8 hPa 0,0 l/m² 3,0 km/h (1 Bft) W 277 ° 0 min 0 W/m² -2,3 °C -1,0 °C 6,4 km/h (2 Bft)
14.02.2025 00:40 22,1 °C -0,9 °C 47 % 91 % 1019,8 hPa 0,0 l/m² 3,4 km/h (1 Bft) W 267 ° 0 min 0 W/m² -2,2 °C -0,9 °C 6,4 km/h (2 Bft)
14.02.2025 00:41 22,1 °C -0,9 °C 47 % 91 % 1019,8 hPa 0,0 l/m² 3,5 km/h (1 Bft) W-NW 296 ° 0 min 0 W/m² -2,2 °C -0,9 °C 12,9 km/h (3 Bft)
14.02.2025 00:43 22,1 °C -0,9 °C 47 % 91 % 1019,8 hPa 0,0 l/m² 2,8 km/h (1 Bft) W-NW 285 ° 0 min 0 W/m² -2,2 °C -0,9 °C 8,0 km/h (2 Bft)
14.02.2025 00:44 22,1 °C -1,0 °C 47 % 91 % 1019,9 hPa 0,0 l/m² 4,8 km/h (1 Bft) W 278 ° 0 min 0 W/m² -2,3 °C -1,0 °C 6,4 km/h (2 Bft)
14.02.2025 00:45 22,1 °C -0,9 °C 47 % 91 % 1019,9 hPa 0,0 l/m² 3,9 km/h (1 Bft) W-NW 285 ° 0 min 0 W/m² -2,2 °C -0,9 °C 9,7 km/h (2 Bft)
14.02.2025 00:46 22,1 °C -0,9 °C 47 % 91 % 1019,9 hPa 0,0 l/m² 1,2 km/h (1 Bft) W-SW 257 ° 0 min 0 W/m² -2,2 °C -0,9 °C 3,2 km/h (1 Bft)
14.02.2025 00:48 22,1 °C -0,9 °C 47 % 91 % 1019,9 hPa 0,0 l/m² 2,0 km/h (1 Bft) W-NW 287 ° 0 min 0 W/m² -2,2 °C -0,9 °C 8,0 km/h (2 Bft)
14.02.2025 00:50 22,1 °C -0,9 °C 47 % 91 % 1020,0 hPa 0,0 l/m² 3,4 km/h (1 Bft) W 273 ° 0 min 0 W/m² -2,2 °C -0,9 °C 4,8 km/h (1 Bft)
14.02.2025 00:51 22,1 °C -0,9 °C 47 % 91 % 1020,0 hPa 0,0 l/m² 4,5 km/h (1 Bft) W-NW 286 ° 0 min 0 W/m² -2,2 °C -0,9 °C 11,3 km/h (2 Bft)
14.02.2025 00:53 22,1 °C -0,9 °C 47 % 91 % 1020,0 hPa 0,0 l/m² 4,5 km/h (1 Bft) NW 323 ° 0 min 0 W/m² -2,2 °C -0,9 °C 8,0 km/h (2 Bft)
14.02.2025 00:54 22,1 °C -0,9 °C 47 % 91 % 1020,0 hPa 0,0 l/m² 3,8 km/h (1 Bft) W-NW 283 ° 0 min 0 W/m² -2,2 °C -0,9 °C 12,9 km/h (3 Bft)
14.02.2025 00:55 22,1 °C -0,9 °C 47 % 91 % 1020,0 hPa 0,0 l/m² 4,1 km/h (1 Bft) W 281 ° 0 min 0 W/m² -2,2 °C -0,9 °C 8,0 km/h (2 Bft)
14.02.2025 00:57 22,1 °C -0,9 °C 47 % 91 % 1020,0 hPa 0,0 l/m² 2,6 km/h (1 Bft) W-NW 298 ° 0 min 0 W/m² -2,2 °C -0,9 °C 9,7 km/h (2 Bft)
14.02.2025 00:58 22,1 °C -0,9 °C 47 % 91 % 1019,9 hPa 0,0 l/m² 5,1 km/h (1 Bft) W-NW 295 ° 0 min 0 W/m² -2,2 °C -0,9 °C 11,3 km/h (2 Bft)
14.02.2025 01:00 22,1 °C -0,9 °C 47 % 91 % 1019,9 hPa 0,0 l/m² 3,9 km/h (1 Bft) NW 305 ° 0 min 0 W/m² -2,2 °C -0,9 °C 8,0 km/h (2 Bft)
14.02.2025 01:01 22,1 °C -0,9 °C 47 % 91 % 1019,9 hPa 0,0 l/m² 3,1 km/h (1 Bft) W-NW 302 ° 0 min 0 W/m² -2,2 °C -0,9 °C 6,4 km/h (2 Bft)
14.02.2025 01:03 22,1 °C -0,9 °C 47 % 91 % 1020,0 hPa 0,0 l/m² 1,9 km/h (1 Bft) W-NW 296 ° 0 min 0 W/m² -2,2 °C -0,9 °C 6,4 km/h (2 Bft)
14.02.2025 01:05 22,1 °C -0,9 °C 47 % 91 % 1020,0 hPa 0,0 l/m² 3,5 km/h (1 Bft) W 275 ° 0 min 0 W/m² -2,2 °C -0,9 °C 11,3 km/h (2 Bft)
14.02.2025 01:07 22,1 °C -0,9 °C 47 % 91 % 1019,9 hPa 0,0 l/m² 1,6 km/h (1 Bft) W-NW 290 ° 0 min 0 W/m² -2,2 °C -0,9 °C 6,4 km/h (2 Bft)
14.02.2025 01:09 22,1 °C -0,8 °C 47 % 91 % 1020,0 hPa 0,0 l/m² 2,6 km/h (1 Bft) W 273 ° 0 min 0 W/m² -2,1 °C -0,8 °C 6,4 km/h (2 Bft)
14.02.2025 01:11 22,1 °C -0,9 °C 47 % 91 % 1020,0 hPa 0,0 l/m² 4,3 km/h (1 Bft) W 267 ° 0 min 0 W/m² -2,2 °C -0,9 °C 14,5 km/h (3 Bft)
14.02.2025 01:13 22,1 °C -0,9 °C 47 % 91 % 1020,0 hPa 0,0 l/m² 3,5 km/h (1 Bft) NW 304 ° 0 min 0 W/m² -2,2 °C -0,9 °C 12,9 km/h (3 Bft)
14.02.2025 01:15 22,1 °C -0,9 °C 47 % 91 % 1020,0 hPa 0,0 l/m² 3,0 km/h (1 Bft) W-NW 293 ° 0 min 0 W/m² -2,2 °C -0,9 °C 9,7 km/h (2 Bft)
14.02.2025 01:17 22,1 °C -0,9 °C 47 % 91 % 1020,0 hPa 0,0 l/m² 3,5 km/h (1 Bft) W-NW 282 ° 0 min 0 W/m² -2,2 °C -0,9 °C 9,7 km/h (2 Bft)
14.02.2025 01:18 22,1 °C -0,9 °C 47 % 91 % 1020,0 hPa 0,0 l/m² 1,7 km/h (1 Bft) W-NW 296 ° 0 min 0 W/m² -2,2 °C -0,9 °C 4,8 km/h (1 Bft)
14.02.2025 01:20 22,1 °C -0,9 °C 47 % 91 % 1020,1 hPa 0,0 l/m² 0,9 km/h (0 Bft) W 278 ° 0 min 0 W/m² -2,2 °C -0,9 °C 4,8 km/h (1 Bft)
14.02.2025 01:22 22,1 °C -0,8 °C 47 % 91 % 1020,1 hPa 0,0 l/m² 1,3 km/h (1 Bft) W 263 ° 0 min 0 W/m² -2,1 °C -0,8 °C 4,8 km/h (1 Bft)
14.02.2025 01:24 22,1 °C -0,9 °C 47 % 91 % 1020,1 hPa 0,0 l/m² 2,8 km/h (1 Bft) NW 323 ° 0 min 0 W/m² -2,2 °C -0,9 °C 6,4 km/h (2 Bft)
14.02.2025 01:26 22,1 °C -0,9 °C 47 % 91 % 1020,1 hPa 0,0 l/m² 2,8 km/h (1 Bft) NW 310 ° 0 min 0 W/m² -2,2 °C -0,9 °C 11,3 km/h (2 Bft)
14.02.2025 01:28 22,1 °C -0,9 °C 47 % 91 % 1020,1 hPa 0,0 l/m² 3,6 km/h (1 Bft) W-NW 288 ° 0 min 0 W/m² -2,2 °C -0,9 °C 9,7 km/h (2 Bft)
14.02.2025 01:30 22,1 °C -0,9 °C 47 % 91 % 1020,1 hPa 0,0 l/m² 4,8 km/h (1 Bft) NW 317 ° 0 min 0 W/m² -2,2 °C -0,9 °C 9,7 km/h (2 Bft)
14.02.2025 01:32 22,1 °C -0,9 °C 47 % 91 % 1020,0 hPa 0,0 l/m² 5,0 km/h (1 Bft) NW 311 ° 0 min 0 W/m² -2,2 °C -0,9 °C 11,3 km/h (2 Bft)
14.02.2025 01:34 22,1 °C -0,8 °C 47 % 91 % 1020,1 hPa 0,0 l/m² 2,8 km/h (1 Bft) W-NW 284 ° 0 min 0 W/m² -2,1 °C -0,8 °C 6,4 km/h (2 Bft)
14.02.2025 01:36 22,1 °C -0,8 °C 47 % 91 % 1020,1 hPa 0,0 l/m² 3,8 km/h (1 Bft) W-NW 296 ° 0 min 0 W/m² -2,1 °C -0,8 °C 11,3 km/h (2 Bft)
14.02.2025 01:38 22,1 °C -0,8 °C 47 % 91 % 1020,1 hPa 0,0 l/m² 3,3 km/h (1 Bft) W 267 ° 0 min 0 W/m² -2,1 °C -0,8 °C 8,0 km/h (2 Bft)
14.02.2025 01:40 22,1 °C -0,8 °C 47 % 91 % 1020,1 hPa 0,0 l/m² 3,5 km/h (1 Bft) NW 306 ° 0 min 0 W/m² -2,1 °C -0,8 °C 9,7 km/h (2 Bft)
14.02.2025 01:42 22,1 °C -0,8 °C 47 % 91 % 1020,1 hPa 0,0 l/m² 3,4 km/h (1 Bft) W 280 ° 0 min 0 W/m² -2,1 °C -0,8 °C 6,4 km/h (2 Bft)
14.02.2025 01:43 22,1 °C -0,8 °C 47 % 91 % 1020,0 hPa 0,0 l/m² 5,0 km/h (1 Bft) W 267 ° 0 min 0 W/m² -2,1 °C -0,8 °C 9,7 km/h (2 Bft)
14.02.2025 01:45 22,1 °C -0,8 °C 47 % 91 % 1020,1 hPa 0,0 l/m² 4,4 km/h (1 Bft) W 277 ° 0 min 0 W/m² -2,1 °C -0,8 °C 9,7 km/h (2 Bft)
14.02.2025 01:47 22,1 °C -0,9 °C 47 % 91 % 1020,1 hPa 0,0 l/m² 4,8 km/h (1 Bft) W-NW 282 ° 0 min 0 W/m² -2,2 °C -0,9 °C 12,9 km/h (3 Bft)
14.02.2025 01:49 22,1 °C -0,9 °C 47 % 91 % 1020,1 hPa 0,0 l/m² 5,0 km/h (1 Bft) W 274 ° 0 min 0 W/m² -2,2 °C -0,9 °C 11,3 km/h (2 Bft)
14.02.2025 01:51 22,1 °C -0,9 °C 47 % 91 % 1020,0 hPa 0,0 l/m² 4,9 km/h (1 Bft) W-NW 286 ° 0 min 0 W/m² -2,2 °C -0,9 °C 11,3 km/h (2 Bft)
14.02.2025 01:53 22,1 °C -0,9 °C 47 % 91 % 1020,2 hPa 0,0 l/m² 2,4 km/h (1 Bft) W-NW 290 ° 0 min 0 W/m² -2,2 °C -0,9 °C 8,0 km/h (2 Bft)
14.02.2025 01:55 22,1 °C -0,9 °C 47 % 91 % 1020,1 hPa 0,0 l/m² 1,3 km/h (1 Bft) W-NW 293 ° 0 min 0 W/m² -2,2 °C -0,9 °C 4,8 km/h (1 Bft)
14.02.2025 01:57 22,1 °C -0,9 °C 47 % 91 % 1020,2 hPa 0,0 l/m² 1,2 km/h (1 Bft) W 279 ° 0 min 0 W/m² -2,2 °C -0,9 °C 4,8 km/h (1 Bft)
14.02.2025 01:59 22,1 °C -0,9 °C 47 % 91 % 1020,2 hPa 0,0 l/m² 1,4 km/h (1 Bft) W 265 ° 0 min 0 W/m² -2,2 °C -0,9 °C 6,4 km/h (2 Bft)
14.02.2025 02:01 22,1 °C -0,9 °C 47 % 91 % 1020,3 hPa 0,0 l/m² 2,9 km/h (1 Bft) NW 307 ° 0 min 0 W/m² -2,2 °C -0,9 °C 6,4 km/h (2 Bft)
14.02.2025 02:03 22,1 °C -0,9 °C 47 % 91 % 1020,3 hPa 0,0 l/m² 1,6 km/h (1 Bft) W 273 ° 0 min 0 W/m² -2,2 °C -0,9 °C 4,8 km/h (1 Bft)
14.02.2025 02:05 22,1 °C -0,9 °C 47 % 91 % 1020,3 hPa 0,0 l/m² 1,5 km/h (1 Bft) W 273 ° 0 min 0 W/m² -2,2 °C -0,9 °C 4,8 km/h (1 Bft)
14.02.2025 02:07 22,1 °C -0,9 °C 47 % 91 % 1020,1 hPa 0,0 l/m² 2,9 km/h (1 Bft) W 269 ° 0 min 0 W/m² -2,2 °C -0,9 °C 6,4 km/h (2 Bft)
14.02.2025 02:09 22,1 °C -0,9 °C 47 % 91 % 1020,2 hPa 0,0 l/m² 3,8 km/h (1 Bft) W 277 ° 0 min 0 W/m² -2,2 °C -0,9 °C 6,4 km/h (2 Bft)
14.02.2025 02:11 22,1 °C -0,9 °C 47 % 91 % 1020,1 hPa 0,0 l/m² 3,7 km/h (1 Bft) W-NW 282 ° 0 min 0 W/m² -2,2 °C -0,9 °C 4,8 km/h (1 Bft)
14.02.2025 02:13 22,1 °C -0,9 °C 47 % 91 % 1020,1 hPa 0,0 l/m² 4,9 km/h (1 Bft) W 278 ° 0 min 0 W/m² -2,2 °C -0,9 °C 9,7 km/h (2 Bft)
14.02.2025 02:15 22,1 °C -0,9 °C 47 % 91 % 1020,1 hPa 0,0 l/m² 3,4 km/h (1 Bft) W 276 ° 0 min 0 W/m² -2,2 °C -0,9 °C 6,4 km/h (2 Bft)
14.02.2025 02:17 22,1 °C -0,9 °C 47 % 91 % 1020,1 hPa 0,0 l/m² 3,3 km/h (1 Bft) W 265 ° 0 min 0 W/m² -2,2 °C -0,9 °C 9,7 km/h (2 Bft)
14.02.2025 02:19 22,1 °C -0,9 °C 47 % 91 % 1020,1 hPa 0,0 l/m² 3,5 km/h (1 Bft) W 281 ° 0 min 0 W/m² -2,2 °C -0,9 °C 6,4 km/h (2 Bft)
14.02.2025 02:21 22,1 °C -0,9 °C 47 % 91 % 1020,1 hPa 0,0 l/m² 2,3 km/h (1 Bft) W 278 ° 0 min 0 W/m² -2,2 °C -0,9 °C 6,4 km/h (2 Bft)
14.02.2025 02:23 22,1 °C -0,9 °C 47 % 91 % 1020,1 hPa 0,0 l/m² 2,4 km/h (1 Bft) W 274 ° 0 min 0 W/m² -2,2 °C -0,9 °C 4,8 km/h (1 Bft)
14.02.2025 02:25 22,1 °C -0,9 °C 47 % 91 % 1020,1 hPa 0,0 l/m² 3,8 km/h (1 Bft) W 267 ° 0 min 0 W/m² -2,2 °C -0,9 °C 6,4 km/h (2 Bft)
14.02.2025 02:27 22,1 °C -0,9 °C 47 % 91 % 1020,1 hPa 0,0 l/m² 2,8 km/h (1 Bft) W 271 ° 0 min 0 W/m² -2,2 °C -0,9 °C 6,4 km/h (2 Bft)
14.02.2025 02:29 22,1 °C -0,9 °C 47 % 91 % 1020,1 hPa 0,0 l/m² 0,7 km/h (0 Bft) W 267 ° 0 min 0 W/m² -2,2 °C -0,9 °C 3,2 km/h (1 Bft)
14.02.2025 02:31 22,1 °C -0,9 °C 47 % 91 % 1020,1 hPa 0,0 l/m² 2,3 km/h (1 Bft) W 277 ° 0 min 0 W/m² -2,2 °C -0,9 °C 4,8 km/h (1 Bft)
14.02.2025 02:33 22,1 °C -0,9 °C 47 % 91 % 1020,2 hPa 0,0 l/m² 0,8 km/h (0 Bft) W 267 ° 0 min 0 W/m² -2,2 °C -0,9 °C 3,2 km/h (1 Bft)
14.02.2025 02:35 22,1 °C -1,0 °C 47 % 91 % 1020,2 hPa 0,0 l/m² 0,7 km/h (0 Bft) W 269 ° 0 min 0 W/m² -2,3 °C -1,0 °C 3,2 km/h (1 Bft)
14.02.2025 02:37 22,1 °C -1,0 °C 47 % 91 % 1020,2 hPa 0,0 l/m² 1,3 km/h (1 Bft) W 273 ° 0 min 0 W/m² -2,3 °C -1,0 °C 3,2 km/h (1 Bft)
14.02.2025 02:39 22,1 °C -1,0 °C 47 % 91 % 1020,2 hPa 0,0 l/m² 0,4 km/h (0 Bft) W 273 ° 0 min 0 W/m² -2,3 °C -1,0 °C 3,2 km/h (1 Bft)
14.02.2025 02:40 22,1 °C -1,0 °C 47 % 91 % 1020,3 hPa 0,0 l/m² 0,7 km/h (0 Bft) W 273 ° 0 min 0 W/m² -2,3 °C -1,0 °C 3,2 km/h (1 Bft)
14.02.2025 02:42 22,1 °C -1,0 °C 47 % 91 % 1020,2 hPa 0,0 l/m² 1,4 km/h (1 Bft) W 274 ° 0 min 0 W/m² -2,3 °C -1,0 °C 3,2 km/h (1 Bft)
14.02.2025 02:44 22,0 °C -1,1 °C 47 % 91 % 1020,1 hPa 0,0 l/m² 2,5 km/h (1 Bft) W 271 ° 0 min 0 W/m² -2,4 °C -1,1 °C 4,8 km/h (1 Bft)
14.02.2025 02:46 22,1 °C -1,1 °C 47 % 91 % 1020,1 hPa 0,0 l/m² 1,8 km/h (1 Bft) W 274 ° 0 min 0 W/m² -2,4 °C -1,1 °C 3,2 km/h (1 Bft)
14.02.2025 02:48 22,1 °C -1,1 °C 47 % 91 % 1020,2 hPa 0,0 l/m² 1,5 km/h (1 Bft) W 272 ° 0 min 0 W/m² -2,4 °C -1,1 °C 3,2 km/h (1 Bft)
14.02.2025 02:50 22,1 °C -1,1 °C 47 % 91 % 1020,2 hPa 0,0 l/m² 2,6 km/h (1 Bft) W 271 ° 0 min 0 W/m² -2,4 °C -1,1 °C 4,8 km/h (1 Bft)
14.02.2025 02:52 22,0 °C -1,1 °C 47 % 91 % 1020,2 hPa 0,0 l/m² 1,5 km/h (1 Bft) W 277 ° 0 min 0 W/m² -2,4 °C -1,1 °C 3,2 km/h (1 Bft)
14.02.2025 02:54 22,1 °C -1,1 °C 47 % 91 % 1020,3 hPa 0,0 l/m² 0,0 km/h (0 Bft) W-NW 282 ° 0 min 0 W/m² -2,4 °C -1,1 °C 0,0 km/h (0 Bft)
14.02.2025 02:56 22,1 °C -1,2 °C 47 % 91 % 1020,2 hPa 0,0 l/m² 0,3 km/h (0 Bft) W 275 ° 0 min 0 W/m² -2,5 °C -1,2 °C 1,6 km/h (1 Bft)
14.02.2025 02:58 22,1 °C -1,1 °C 47 % 91 % 1020,2 hPa 0,0 l/m² 0,2 km/h (0 Bft) W 281 ° 0 min 0 W/m² -2,4 °C -1,1 °C 1,6 km/h (1 Bft)
14.02.2025 03:00 22,1 °C -1,2 °C 47 % 91 % 1020,3 hPa 0,0 l/m² 1,6 km/h (1 Bft) W 277 ° 0 min 0 W/m² -2,5 °C -1,2 °C 4,8 km/h (1 Bft)
14.02.2025 03:01 22,1 °C -1,2 °C 47 % 91 % 1020,2 hPa 0,0 l/m² 1,6 km/h (1 Bft) W 270 ° 0 min 0 W/m² -2,5 °C -1,2 °C 3,2 km/h (1 Bft)
14.02.2025 03:09 22,1 °C -1,2 °C 47 % 91 % 1020,4 hPa 0,0 l/m² 2,0 km/h (1 Bft) W 277 ° 0 min 0 W/m² -2,5 °C -1,2 °C 3,2 km/h (1 Bft)
14.02.2025 03:11 22,1 °C -1,2 °C 47 % 91 % 1020,3 hPa 0,0 l/m² 0,3 km/h (0 Bft) W 278 ° 0 min 0 W/m² -2,5 °C -1,2 °C 1,6 km/h (1 Bft)
14.02.2025 03:12 22,1 °C -1,2 °C 47 % 91 % 1020,4 hPa 0,0 l/m² 3,3 km/h (1 Bft) NW 309 ° 0 min 0 W/m² -2,5 °C -1,2 °C 6,4 km/h (2 Bft)
14.02.2025 03:13 22,1 °C -1,2 °C 47 % 91 % 1020,4 hPa 0,0 l/m² 1,1 km/h (1 Bft) NW 306 ° 0 min 0 W/m² -2,5 °C -1,2 °C 3,2 km/h (1 Bft)
14.02.2025 03:15 22,1 °C -1,2 °C 47 % 91 % 1020,3 hPa 0,0 l/m² 5,2 km/h (1 Bft) W-NW 291 ° 0 min 0 W/m² -2,5 °C -1,2 °C 12,9 km/h (3 Bft)
14.02.2025 03:17 22,1 °C -1,2 °C 47 % 92 % 1020,4 hPa 0,0 l/m² 3,8 km/h (1 Bft) NW 315 ° 0 min 0 W/m² -2,3 °C -1,2 °C 9,7 km/h (2 Bft)
14.02.2025 03:19 22,1 °C -1,2 °C 47 % 92 % 1020,4 hPa 0,0 l/m² 3,9 km/h (1 Bft) NW 317 ° 0 min 0 W/m² -2,3 °C -1,2 °C 8,0 km/h (2 Bft)
14.02.2025 03:20 22,1 °C -1,1 °C 47 % 92 % 1020,5 hPa 0,0 l/m² 4,1 km/h (1 Bft) W-NW 298 ° 0 min 0 W/m² -2,2 °C -1,1 °C 8,0 km/h (2 Bft)
14.02.2025 03:22 22,1 °C -1,1 °C 47 % 92 % 1020,4 hPa 0,0 l/m² 2,8 km/h (1 Bft) NW 320 ° 0 min 0 W/m² -2,2 °C -1,1 °C 6,4 km/h (2 Bft)
14.02.2025 03:23 22,1 °C -1,1 °C 47 % 92 % 1020,4 hPa 0,0 l/m² 5,0 km/h (1 Bft) N-NW 330 ° 0 min 0 W/m² -2,2 °C -1,1 °C 8,0 km/h (2 Bft)
14.02.2025 03:25 22,1 °C -1,1 °C 47 % 92 % 1020,4 hPa 0,0 l/m² 4,2 km/h (1 Bft) NW 313 ° 0 min 0 W/m² -2,2 °C -1,1 °C 8,0 km/h (2 Bft)
14.02.2025 03:27 22,1 °C -1,1 °C 47 % 92 % 1020,4 hPa 0,0 l/m² 5,7 km/h (2 Bft) NW 321 ° 0 min 0 W/m² -2,2 °C -1,1 °C 12,9 km/h (3 Bft)
14.02.2025 03:28 22,1 °C -1,1 °C 47 % 92 % 1020,4 hPa 0,0 l/m² 6,7 km/h (2 Bft) W-NW 302 ° 0 min 0 W/m² -2,2 °C -1,4 °C 8,0 km/h (2 Bft)
14.02.2025 03:30 22,1 °C -1,1 °C 47 % 92 % 1020,4 hPa 0,0 l/m² 4,2 km/h (1 Bft) W-NW 302 ° 0 min 0 W/m² -2,2 °C -1,1 °C 11,3 km/h (2 Bft)
14.02.2025 03:31 22,1 °C -1,1 °C 47 % 91 % 1020,4 hPa 0,0 l/m² 5,9 km/h (2 Bft) N 355 ° 0 min 0 W/m² -2,4 °C -1,1 °C 8,0 km/h (2 Bft)
14.02.2025 03:32 22,1 °C -1,1 °C 47 % 91 % 1020,4 hPa 0,0 l/m² 7,1 km/h (2 Bft) NW 326 ° 0 min 0 W/m² -2,4 °C -1,9 °C 12,9 km/h (3 Bft)
14.02.2025 03:34 22,1 °C -1,1 °C 47 % 91 % 1020,4 hPa 0,0 l/m² 5,4 km/h (2 Bft) W-NW 298 ° 0 min 0 W/m² -2,4 °C -1,1 °C 8,0 km/h (2 Bft)
14.02.2025 03:35 22,1 °C -1,1 °C 47 % 91 % 1020,4 hPa 0,0 l/m² 5,5 km/h (2 Bft) N-NW 340 ° 0 min 0 W/m² -2,4 °C -1,1 °C 8,0 km/h (2 Bft)
14.02.2025 03:37 22,1 °C -1,1 °C 47 % 91 % 1020,4 hPa 0,0 l/m² 7,0 km/h (2 Bft) N-NW 336 ° 0 min 0 W/m² -2,4 °C -1,7 °C 9,7 km/h (2 Bft)
14.02.2025 03:39 22,1 °C -1,1 °C 47 % 92 % 1020,5 hPa 0,0 l/m² 6,4 km/h (2 Bft) NW 311 ° 0 min 0 W/m² -2,2 °C -1,1 °C 9,7 km/h (2 Bft)
14.02.2025 03:40 22,1 °C -1,1 °C 47 % 92 % 1020,5 hPa 0,0 l/m² 7,2 km/h (2 Bft) N 355 ° 0 min 0 W/m² -2,2 °C -2,0 °C 9,7 km/h (2 Bft)
14.02.2025 03:42 22,1 °C -1,1 °C 47 % 92 % 1020,6 hPa 0,0 l/m² 6,1 km/h (2 Bft) NW 312 ° 0 min 0 W/m² -2,2 °C -1,1 °C 9,7 km/h (2 Bft)
14.02.2025 03:43 22,1 °C -1,1 °C 47 % 92 % 1020,6 hPa 0,0 l/m² 7,1 km/h (2 Bft) N-NW 340 ° 0 min 0 W/m² -2,2 °C -1,9 °C 9,7 km/h (2 Bft)
14.02.2025 03:45 22,1 °C -1,1 °C 47 % 92 % 1020,6 hPa 0,0 l/m² 5,5 km/h (2 Bft) N-NW 331 ° 0 min 0 W/m² -2,2 °C -1,1 °C 11,3 km/h (2 Bft)
14.02.2025 03:47 22,1 °C -1,0 °C 47 % 92 % 1020,5 hPa 0,0 l/m² 6,7 km/h (2 Bft) NW 315 ° 0 min 0 W/m² -2,1 °C -1,3 °C 12,9 km/h (3 Bft)
14.02.2025 03:49 22,1 °C -1,0 °C 47 % 92 % 1020,6 hPa 0,0 l/m² 7,3 km/h (2 Bft) N-NW 337 ° 0 min 0 W/m² -2,1 °C -2,0 °C 14,5 km/h (3 Bft)
14.02.2025 03:50 22,1 °C -1,0 °C 47 % 92 % 1020,6 hPa 0,0 l/m² 6,5 km/h (2 Bft) N-NW 346 ° 0 min 0 W/m² -2,1 °C -1,1 °C 8,0 km/h (2 Bft)
14.02.2025 03:52 22,1 °C -0,9 °C 47 % 92 % 1020,6 hPa 0,0 l/m² 5,5 km/h (2 Bft) N-NW 340 ° 0 min 0 W/m² -2,0 °C -0,9 °C 9,7 km/h (2 Bft)
14.02.2025 03:54 22,1 °C -0,9 °C 47 % 92 % 1020,6 hPa 0,0 l/m² 4,7 km/h (1 Bft) N-NW 329 ° 0 min 0 W/m² -2,0 °C -0,9 °C 8,0 km/h (2 Bft)
14.02.2025 03:56 22,1 °C -0,9 °C 47 % 92 % 1020,6 hPa 0,0 l/m² 5,1 km/h (1 Bft) NW 318 ° 0 min 0 W/m² -2,0 °C -0,9 °C 8,0 km/h (2 Bft)
14.02.2025 03:58 22,1 °C -0,9 °C 47 % 92 % 1020,7 hPa 0,0 l/m² 4,0 km/h (1 Bft) W-NW 302 ° 0 min 0 W/m² -2,0 °C -0,9 °C 8,0 km/h (2 Bft)
14.02.2025 04:00 22,1 °C -0,9 °C 47 % 92 % 1020,7 hPa 0,0 l/m² 2,6 km/h (1 Bft) N-NW 346 ° 0 min 0 W/m² -2,0 °C -0,9 °C 6,4 km/h (2 Bft)
14.02.2025 04:01 22,1 °C -0,9 °C 47 % 92 % 1020,7 hPa 0,0 l/m² 6,1 km/h (2 Bft) NW 325 ° 0 min 0 W/m² -2,0 °C -0,9 °C 9,7 km/h (2 Bft)
14.02.2025 04:02 22,1 °C -0,9 °C 47 % 92 % 1020,7 hPa 0,0 l/m² 6,7 km/h (2 Bft) NW 321 ° 0 min 0 W/m² -2,0 °C -1,2 °C 9,7 km/h (2 Bft)
14.02.2025 04:04 22,1 °C -0,9 °C 47 % 92 % 1020,8 hPa 0,0 l/m² 5,5 km/h (2 Bft) N-NW 332 ° 0 min 0 W/m² -2,0 °C -0,9 °C 8,0 km/h (2 Bft)
14.02.2025 04:06 22,1 °C -0,9 °C 47 % 92 % 1020,8 hPa 0,0 l/m² 3,6 km/h (1 Bft) N 355 ° 0 min 0 W/m² -2,0 °C -0,9 °C 8,0 km/h (2 Bft)
14.02.2025 04:08 22,1 °C -0,9 °C 47 % 92 % 1020,8 hPa 0,0 l/m² 4,7 km/h (1 Bft) N-NW 344 ° 0 min 0 W/m² -2,0 °C -0,9 °C 8,0 km/h (2 Bft)
14.02.2025 04:10 22,1 °C -0,9 °C 47 % 92 % 1020,8 hPa 0,0 l/m² 3,3 km/h (1 Bft) N-NW 348 ° 0 min 0 W/m² -2,0 °C -0,9 °C 6,4 km/h (2 Bft)
14.02.2025 04:11 22,1 °C -0,9 °C 47 % 92 % 1020,8 hPa 0,0 l/m² 2,9 km/h (1 Bft) NW 321 ° 0 min 0 W/m² -2,0 °C -0,9 °C 4,8 km/h (1 Bft)
14.02.2025 04:13 22,1 °C -0,8 °C 47 % 92 % 1020,9 hPa 0,0 l/m² 3,1 km/h (1 Bft) NW 321 ° 0 min 0 W/m² -1,9 °C -0,8 °C 6,4 km/h (2 Bft)
14.02.2025 04:14 22,1 °C -0,9 °C 47 % 92 % 1020,9 hPa 0,0 l/m² 2,1 km/h (1 Bft) NW 321 ° 0 min 0 W/m² -2,0 °C -0,9 °C 4,8 km/h (1 Bft)
14.02.2025 04:16 22,1 °C -0,9 °C 47 % 92 % 1021,0 hPa 0,0 l/m² 2,0 km/h (1 Bft) NW 319 ° 0 min 0 W/m² -2,0 °C -0,9 °C 6,4 km/h (2 Bft)
14.02.2025 04:18 22,1 °C -0,8 °C 47 % 92 % 1020,9 hPa 0,0 l/m² 2,5 km/h (1 Bft) N-NW 332 ° 0 min 0 W/m² -1,9 °C -0,8 °C 6,4 km/h (2 Bft)
14.02.2025 04:20 22,1 °C -0,9 °C 47 % 92 % 1020,9 hPa 0,0 l/m² 3,7 km/h (1 Bft) N-NW 327 ° 0 min 0 W/m² -2,0 °C -0,9 °C 6,4 km/h (2 Bft)
14.02.2025 04:21 22,1 °C -0,8 °C 47 % 92 % 1021,0 hPa 0,0 l/m² 3,7 km/h (1 Bft) NW 316 ° 0 min 0 W/m² -1,9 °C -0,8 °C 8,0 km/h (2 Bft)
14.02.2025 04:22 22,1 °C -0,8 °C 47 % 92 % 1021,0 hPa 0,0 l/m² 3,6 km/h (1 Bft) W-NW 298 ° 0 min 0 W/m² -1,9 °C -0,8 °C 4,8 km/h (1 Bft)
14.02.2025 04:23 22,1 °C -0,8 °C 47 % 92 % 1021,0 hPa 0,0 l/m² 4,1 km/h (1 Bft) N-NW 331 ° 0 min 0 W/m² -1,9 °C -0,8 °C 4,8 km/h (1 Bft)
14.02.2025 04:25 22,1 °C -0,8 °C 47 % 92 % 1020,9 hPa 0,0 l/m² 3,5 km/h (1 Bft) NW 317 ° 0 min 0 W/m² -1,9 °C -0,8 °C 8,0 km/h (2 Bft)
14.02.2025 04:27 22,1 °C -0,8 °C 47 % 92 % 1021,0 hPa 0,0 l/m² 3,3 km/h (1 Bft) NW 321 ° 0 min 0 W/m² -1,9 °C -0,8 °C 6,4 km/h (2 Bft)
14.02.2025 04:29 22,1 °C -0,8 °C 47 % 92 % 1021,0 hPa 0,0 l/m² 4,4 km/h (1 Bft) NW 324 ° 0 min 0 W/m² -1,9 °C -0,8 °C 9,7 km/h (2 Bft)
14.02.2025 04:30 22,1 °C -0,8 °C 47 % 92 % 1021,0 hPa 0,0 l/m² 4,1 km/h (1 Bft) NW 312 ° 0 min 0 W/m² -1,9 °C -0,8 °C 8,0 km/h (2 Bft)
14.02.2025 04:32 22,1 °C -0,8 °C 47 % 92 % 1021,0 hPa 0,0 l/m² 3,0 km/h (1 Bft) N-NW 331 ° 0 min 0 W/m² -1,9 °C -0,8 °C 6,4 km/h (2 Bft)
14.02.2025 04:33 22,1 °C -0,8 °C 47 % 92 % 1021,1 hPa 0,0 l/m² 5,4 km/h (2 Bft) N 9 ° 0 min 0 W/m² -1,9 °C -0,8 °C 8,0 km/h (2 Bft)
14.02.2025 04:35 22,1 °C -0,8 °C 47 % 92 % 1021,1 hPa 0,0 l/m² 4,9 km/h (1 Bft) N-NW 338 ° 0 min 0 W/m² -1,9 °C -0,8 °C 6,4 km/h (2 Bft)
14.02.2025 04:37 22,1 °C -0,8 °C 47 % 92 % 1021,2 hPa 0,0 l/m² 8,4 km/h (2 Bft) N-NW 328 ° 0 min 0 W/m² -1,9 °C -2,9 °C 12,9 km/h (3 Bft)
14.02.2025 04:39 22,1 °C -0,8 °C 47 % 92 % 1021,1 hPa 0,0 l/m² 6,8 km/h (2 Bft) N 355 ° 0 min 0 W/m² -1,9 °C -1,2 °C 12,9 km/h (3 Bft)
14.02.2025 04:40 22,1 °C -0,8 °C 47 % 92 % 1021,1 hPa 0,0 l/m² 7,9 km/h (2 Bft) NW 306 ° 0 min 0 W/m² -1,9 °C -2,4 °C 12,9 km/h (3 Bft)
14.02.2025 04:42 22,1 °C -0,7 °C 47 % 92 % 1021,2 hPa 0,0 l/m² 7,6 km/h (2 Bft) N-NW 329 ° 0 min 0 W/m² -1,8 °C -2,0 °C 12,9 km/h (3 Bft)
14.02.2025 04:43 22,1 °C -0,7 °C 47 % 92 % 1021,2 hPa 0,0 l/m² 8,7 km/h (2 Bft) NW 308 ° 0 min 0 W/m² -1,8 °C -3,1 °C 12,9 km/h (3 Bft)
14.02.2025 04:45 22,1 °C -0,7 °C 47 % 92 % 1021,3 hPa 0,0 l/m² 10,3 km/h (2 Bft) N-NW 339 ° 0 min 0 W/m² -1,8 °C -4,5 °C 16,1 km/h (3 Bft)
14.02.2025 04:47 22,1 °C -0,7 °C 47 % 92 % 1021,3 hPa 0,0 l/m² 13,1 km/h (3 Bft) N-NW 339 ° 0 min 0 W/m² -1,8 °C -6,6 °C 24,1 km/h (4 Bft)
14.02.2025 04:49 22,1 °C -0,7 °C 47 % 92 % 1021,3 hPa 0,0 l/m² 9,2 km/h (2 Bft) N 360 ° 0 min 0 W/m² -1,8 °C -3,5 °C 14,5 km/h (3 Bft)
14.02.2025 04:51 22,1 °C -0,6 °C 47 % 92 % 1021,3 hPa 0,0 l/m² 7,9 km/h (2 Bft) N-NW 334 ° 0 min 0 W/m² -1,7 °C -2,2 °C 12,9 km/h (3 Bft)
14.02.2025 04:52 22,1 °C -0,7 °C 47 % 92 % 1021,4 hPa 0,0 l/m² 7,3 km/h (2 Bft) W-NW 290 ° 0 min 0 W/m² -1,8 °C -1,7 °C 12,9 km/h (3 Bft)
14.02.2025 04:53 22,1 °C -0,6 °C 47 % 92 % 1021,4 hPa 0,0 l/m² 11,6 km/h (2 Bft) N-NW 338 ° 0 min 0 W/m² -1,7 °C -5,4 °C 17,7 km/h (3 Bft)
14.02.2025 04:54 22,1 °C -0,6 °C 47 % 92 % 1021,4 hPa 0,0 l/m² 11,4 km/h (2 Bft) N-NW 328 ° 0 min 0 W/m² -1,7 °C -5,2 °C 14,5 km/h (3 Bft)
14.02.2025 04:56 22,1 °C -0,6 °C 47 % 92 % 1021,5 hPa 0,0 l/m² 9,0 km/h (2 Bft) NW 324 ° 0 min 0 W/m² -1,7 °C -3,2 °C 14,5 km/h (3 Bft)
14.02.2025 04:58 22,1 °C -0,6 °C 48 % 92 % 1021,4 hPa 0,0 l/m² 11,2 km/h (2 Bft) N-NW 329 ° 0 min 0 W/m² -1,7 °C -5,1 °C 17,7 km/h (3 Bft)
14.02.2025 05:00 22,1 °C -0,6 °C 48 % 92 % 1021,5 hPa 0,0 l/m² 8,8 km/h (2 Bft) N-NW 327 ° 0 min 0 W/m² -1,7 °C -3,0 °C 14,5 km/h (3 Bft)
14.02.2025 05:01 22,1 °C -0,6 °C 48 % 92 % 1021,5 hPa 0,0 l/m² 10,5 km/h (2 Bft) N-NW 346 ° 0 min 0 W/m² -1,7 °C -4,5 °C 14,5 km/h (3 Bft)
14.02.2025 05:02 22,1 °C -0,6 °C 48 % 92 % 1021,5 hPa 0,0 l/m² 7,1 km/h (2 Bft) N-NW 348 ° 0 min 0 W/m² -1,7 °C -1,3 °C 12,9 km/h (3 Bft)
14.02.2025 05:04 22,1 °C -0,6 °C 48 % 92 % 1021,6 hPa 0,0 l/m² 9,7 km/h (2 Bft) NW 320 ° 0 min 0 W/m² -1,7 °C -3,9 °C 16,1 km/h (3 Bft)
14.02.2025 05:06 22,1 °C -0,6 °C 48 % 92 % 1021,6 hPa 0,0 l/m² 11,8 km/h (2 Bft) N-NW 338 ° 0 min 0 W/m² -1,7 °C -5,5 °C 16,1 km/h (3 Bft)
14.02.2025 05:08 22,1 °C -0,6 °C 47 % 92 % 1021,7 hPa 0,0 l/m² 9,3 km/h (2 Bft) N-NW 343 ° 0 min 0 W/m² -1,7 °C -3,5 °C 16,1 km/h (3 Bft)
14.02.2025 05:10 22,1 °C -0,6 °C 47 % 92 % 1021,8 hPa 0,0 l/m² 9,2 km/h (2 Bft) N 11 ° 0 min 0 W/m² -1,7 °C -3,4 °C 17,7 km/h (3 Bft)
14.02.2025 05:11 22,1 °C -0,6 °C 47 % 92 % 1021,7 hPa 0,0 l/m² 11,3 km/h (2 Bft) N-NW 338 ° 0 min 0 W/m² -1,7 °C -5,2 °C 16,1 km/h (3 Bft)
14.02.2025 05:12 22,1 °C -0,6 °C 47 % 92 % 1021,8 hPa 0,0 l/m² 8,5 km/h (2 Bft) N-NW 346 ° 0 min 0 W/m² -1,7 °C -2,8 °C 12,9 km/h (3 Bft)
14.02.2025 05:14 22,1 °C -0,6 °C 47 % 92 % 1021,7 hPa 0,0 l/m² 9,8 km/h (2 Bft) N 355 ° 0 min 0 W/m² -1,7 °C -3,9 °C 17,7 km/h (3 Bft)
14.02.2025 05:16 22,1 °C -0,6 °C 47 % 92 % 1021,7 hPa 0,0 l/m² 7,8 km/h (2 Bft) NW 313 ° 0 min 0 W/m² -1,7 °C -2,1 °C 14,5 km/h (3 Bft)
14.02.2025 05:18 22,1 °C -0,6 °C 47 % 92 % 1021,7 hPa 0,0 l/m² 8,9 km/h (2 Bft) N-NW 338 ° 0 min 0 W/m² -1,7 °C -3,1 °C 16,1 km/h (3 Bft)
14.02.2025 05:20 22,1 °C -0,6 °C 47 % 92 % 1021,8 hPa 0,0 l/m² 12,7 km/h (3 Bft) N-NW 336 ° 0 min 0 W/m² -1,7 °C -6,2 °C 17,7 km/h (3 Bft)
14.02.2025 05:21 22,1 °C -0,6 °C 47 % 92 % 1021,8 hPa 0,0 l/m² 9,1 km/h (2 Bft) N-NW 336 ° 0 min 0 W/m² -1,7 °C -3,3 °C 16,1 km/h (3 Bft)
14.02.2025 05:23 22,1 °C -0,6 °C 47 % 92 % 1021,8 hPa 0,0 l/m² 10,5 km/h (2 Bft) N 355 ° 0 min 0 W/m² -1,7 °C -4,5 °C 16,1 km/h (3 Bft)
14.02.2025 05:24 22,1 °C -0,6 °C 47 % 92 % 1021,8 hPa 0,0 l/m² 9,7 km/h (2 Bft) N 350 ° 0 min 0 W/m² -1,7 °C -3,9 °C 14,5 km/h (3 Bft)
14.02.2025 05:26 22,1 °C -0,6 °C 47 % 92 % 1021,9 hPa 0,0 l/m² 12,2 km/h (2 Bft) N-NW 338 ° 0 min 0 W/m² -1,7 °C -5,8 °C 17,7 km/h (3 Bft)
14.02.2025 05:28 22,1 °C -0,6 °C 47 % 92 % 1021,8 hPa 0,0 l/m² 9,2 km/h (2 Bft) N-NW 330 ° 0 min 0 W/m² -1,7 °C -3,4 °C 16,1 km/h (3 Bft)
14.02.2025 05:30 22,1 °C -0,5 °C 47 % 92 % 1021,9 hPa 0,0 l/m² 9,1 km/h (2 Bft) N-NW 343 ° 0 min 0 W/m² -1,6 °C -3,2 °C 17,7 km/h (3 Bft)
14.02.2025 05:31 22,1 °C -0,6 °C 47 % 92 % 1021,9 hPa 0,0 l/m² 11,9 km/h (2 Bft) NW 326 ° 0 min 0 W/m² -1,7 °C -5,6 °C 17,7 km/h (3 Bft)
14.02.2025 05:32 22,1 °C -0,6 °C 47 % 92 % 1021,8 hPa 0,0 l/m² 14,9 km/h (3 Bft) N-NW 343 ° 0 min 0 W/m² -1,7 °C -7,6 °C 20,9 km/h (4 Bft)
14.02.2025 05:34 22,1 °C -0,6 °C 47 % 92 % 1021,9 hPa 0,0 l/m² 12,9 km/h (3 Bft) N-NW 344 ° 0 min 0 W/m² -1,7 °C -6,3 °C 19,3 km/h (3 Bft)
14.02.2025 05:36 22,1 °C -0,5 °C 47 % 92 % 1022,0 hPa 0,0 l/m² 10,1 km/h (2 Bft) N-NW 348 ° 0 min 0 W/m² -1,6 °C -4,1 °C 17,7 km/h (3 Bft)
14.02.2025 05:38 22,1 °C -0,5 °C 47 % 92 % 1021,9 hPa 0,0 l/m² 12,7 km/h (3 Bft) N 360 ° 0 min 0 W/m² -1,6 °C -6,1 °C 19,3 km/h (3 Bft)
14.02.2025 05:40 22,1 °C -0,6 °C 47 % 92 % 1022,0 hPa 0,0 l/m² 15,6 km/h (3 Bft) NW 317 ° 0 min 0 W/m² -1,7 °C -8,1 °C 22,5 km/h (4 Bft)
14.02.2025 05:41 22,1 °C -0,6 °C 47 % 92 % 1021,9 hPa 0,0 l/m² 10,1 km/h (2 Bft) NW 325 ° 0 min 0 W/m² -1,7 °C -4,2 °C 16,1 km/h (3 Bft)
14.02.2025 05:43 22,1 °C -0,5 °C 47 % 92 % 1022,0 hPa 0,0 l/m² 10,7 km/h (2 Bft) N-NW 334 ° 0 min 0 W/m² -1,6 °C -4,6 °C 14,5 km/h (3 Bft)
14.02.2025 05:44 22,1 °C -0,5 °C 47 % 92 % 1022,0 hPa 0,0 l/m² 12,9 km/h (3 Bft) N-NW 343 ° 0 min 0 W/m² -1,6 °C -6,2 °C 17,7 km/h (3 Bft)
14.02.2025 05:46 22,1 °C -0,6 °C 47 % 92 % 1022,0 hPa 0,0 l/m² 11,0 km/h (2 Bft) N-NW 329 ° 0 min 0 W/m² -1,7 °C -4,9 °C 17,7 km/h (3 Bft)
14.02.2025 05:48 22,1 °C -0,5 °C 47 % 92 % 1022,0 hPa 0,0 l/m² 13,3 km/h (3 Bft) N-NW 346 ° 0 min 0 W/m² -1,6 °C -6,5 °C 19,3 km/h (3 Bft)
14.02.2025 05:50 22,1 °C -0,6 °C 47 % 92 % 1022,1 hPa 0,0 l/m² 8,6 km/h (2 Bft) N-NW 340 ° 0 min 0 W/m² -1,7 °C -2,9 °C 16,1 km/h (3 Bft)
14.02.2025 05:51 22,1 °C -0,6 °C 47 % 92 % 1022,0 hPa 0,0 l/m² 12,7 km/h (3 Bft) N-NW 331 ° 0 min 0 W/m² -1,7 °C -6,2 °C 22,5 km/h (4 Bft)
14.02.2025 05:53 22,1 °C -0,6 °C 47 % 92 % 1022,1 hPa 0,0 l/m² 10,1 km/h (2 Bft) N-NW 336 ° 0 min 0 W/m² -1,7 °C -4,2 °C 14,5 km/h (3 Bft)
14.02.2025 05:54 22,1 °C -0,6 °C 47 % 92 % 1022,1 hPa 0,0 l/m² 12,0 km/h (2 Bft) NW 308 ° 0 min 0 W/m² -1,7 °C -5,7 °C 16,1 km/h (3 Bft)
14.02.2025 05:56 22,1 °C -0,5 °C 47 % 92 % 1022,1 hPa 0,0 l/m² 12,9 km/h (3 Bft) N 355 ° 0 min 0 W/m² -1,6 °C -6,2 °C 17,7 km/h (3 Bft)
14.02.2025 05:58 22,1 °C -0,5 °C 47 % 92 % 1022,0 hPa 0,0 l/m² 9,5 km/h (2 Bft) N-NW 338 ° 0 min 0 W/m² -1,6 °C -3,6 °C 16,1 km/h (3 Bft)
14.02.2025 06:00 22,1 °C -0,6 °C 47 % 92 % 1022,1 hPa 0,0 l/m² 8,6 km/h (2 Bft) N-NW 342 ° 0 min 0 W/m² -1,7 °C -2,9 °C 12,9 km/h (3 Bft)
14.02.2025 06:01 22,1 °C -0,6 °C 47 % 92 % 1022,1 hPa 0,0 l/m² 8,2 km/h (2 Bft) N-NW 327 ° 0 min 0 W/m² -1,7 °C -2,5 °C 12,9 km/h (3 Bft)
14.02.2025 06:02 22,1 °C -0,6 °C 47 % 92 % 1022,1 hPa 0,0 l/m² 10,0 km/h (2 Bft) NW 322 ° 0 min 0 W/m² -1,7 °C -4,1 °C 17,7 km/h (3 Bft)
14.02.2025 06:04 22,1 °C -0,5 °C 47 % 92 % 1022,2 hPa 0,0 l/m² 9,5 km/h (2 Bft) NW 319 ° 0 min 0 W/m² -1,6 °C -3,6 °C 14,5 km/h (3 Bft)
14.02.2025 06:06 22,1 °C -0,6 °C 47 % 92 % 1022,3 hPa 0,0 l/m² 11,4 km/h (2 Bft) N-NW 331 ° 0 min 0 W/m² -1,7 °C -5,2 °C 17,7 km/h (3 Bft)
14.02.2025 06:08 22,1 °C -0,6 °C 47 % 92 % 1022,1 hPa 0,0 l/m² 8,0 km/h (2 Bft) N-NW 339 ° 0 min 0 W/m² -1,7 °C -2,3 °C 14,5 km/h (3 Bft)
14.02.2025 06:10 22,1 °C -0,6 °C 47 % 92 % 1022,2 hPa 0,0 l/m² 10,5 km/h (2 Bft) N-NW 343 ° 0 min 0 W/m² -1,7 °C -4,5 °C 16,1 km/h (3 Bft)
14.02.2025 06:11 22,1 °C -0,6 °C 47 % 92 % 1022,2 hPa 0,0 l/m² 7,7 km/h (2 Bft) NW 326 ° 0 min 0 W/m² -1,7 °C -2,0 °C 12,9 km/h (3 Bft)
14.02.2025 06:12 22,1 °C -0,6 °C 47 % 92 % 1022,2 hPa 0,0 l/m² 9,0 km/h (2 Bft) NW 323 ° 0 min 0 W/m² -1,7 °C -3,2 °C 16,1 km/h (3 Bft)
14.02.2025 06:14 22,1 °C -0,6 °C 46 % 92 % 1022,3 hPa 0,0 l/m² 10,5 km/h (2 Bft) NW 309 ° 0 min 0 W/m² -1,7 °C -4,5 °C 17,7 km/h (3 Bft)
14.02.2025 06:16 22,1 °C -0,6 °C 46 % 92 % 1022,3 hPa 0,0 l/m² 13,2 km/h (3 Bft) NW 323 ° 0 min 0 W/m² -1,7 °C -6,5 °C 19,3 km/h (3 Bft)
14.02.2025 06:18 22,1 °C -0,6 °C 45 % 92 % 1022,3 hPa 0,0 l/m² 9,7 km/h (2 Bft) N 349 ° 0 min 0 W/m² -1,7 °C -3,9 °C 16,1 km/h (3 Bft)
14.02.2025 06:20 22,1 °C -0,6 °C 45 % 92 % 1022,4 hPa 0,0 l/m² 11,9 km/h (2 Bft) N-NO 16 ° 0 min 0 W/m² -1,7 °C -5,6 °C 19,3 km/h (3 Bft)
14.02.2025 06:21 22,0 °C -0,6 °C 45 % 92 % 1022,4 hPa 0,0 l/m² 9,3 km/h (2 Bft) NW 311 ° 0 min 0 W/m² -1,7 °C -3,5 °C 17,7 km/h (3 Bft)
14.02.2025 06:23 22,0 °C -0,6 °C 45 % 92 % 1022,5 hPa 0,0 l/m² 11,7 km/h (2 Bft) N 5 ° 0 min 0 W/m² -1,7 °C -5,5 °C 17,7 km/h (3 Bft)
14.02.2025 06:24 22,0 °C -0,6 °C 45 % 92 % 1022,6 hPa 0,0 l/m² 9,3 km/h (2 Bft) N 349 ° 0 min 0 W/m² -1,7 °C -3,5 °C 12,9 km/h (3 Bft)
14.02.2025 06:26 22,0 °C -0,6 °C 45 % 92 % 1022,5 hPa 0,0 l/m² 11,9 km/h (2 Bft) N-NW 340 ° 0 min 0 W/m² -1,7 °C -5,6 °C 19,3 km/h (3 Bft)
14.02.2025 06:28 22,0 °C -0,6 °C 45 % 92 % 1022,4 hPa 0,0 l/m² 12,2 km/h (2 Bft) N-NW 333 ° 0 min 0 W/m² -1,7 °C -5,8 °C 19,3 km/h (3 Bft)
14.02.2025 06:30 22,1 °C -0,6 °C 45 % 92 % 1022,5 hPa 0,0 l/m² 10,0 km/h (2 Bft) NW 323 ° 0 min 0 W/m² -1,7 °C -4,1 °C 16,1 km/h (3 Bft)
14.02.2025 06:31 22,1 °C -0,6 °C 45 % 92 % 1022,5 hPa 0,0 l/m² 16,6 km/h (3 Bft) N-NW 342 ° 0 min 0 W/m² -1,7 °C -8,6 °C 22,5 km/h (4 Bft)
14.02.2025 06:33 22,0 °C -0,6 °C 45 % 92 % 1022,5 hPa 0,0 l/m² 9,5 km/h (2 Bft) N-NW 334 ° 0 min 0 W/m² -1,7 °C -3,7 °C 14,5 km/h (3 Bft)
14.02.2025 06:34 22,0 °C -0,6 °C 45 % 92 % 1022,5 hPa 0,0 l/m² 8,5 km/h (2 Bft) N-NW 329 ° 0 min 0 W/m² -1,7 °C -2,8 °C 12,9 km/h (3 Bft)
14.02.2025 06:36 22,0 °C -0,6 °C 45 % 92 % 1022,6 hPa 0,0 l/m² 11,4 km/h (2 Bft) N-NW 336 ° 0 min 0 W/m² -1,7 °C -5,2 °C 19,3 km/h (3 Bft)
14.02.2025 06:38 22,1 °C -0,6 °C 45 % 92 % 1022,6 hPa 0,0 l/m² 5,6 km/h (2 Bft) N-NW 340 ° 0 min 0 W/m² -1,7 °C -0,6 °C 9,7 km/h (2 Bft)
14.02.2025 06:40 22,1 °C -0,6 °C 45 % 92 % 1022,6 hPa 0,0 l/m² 9,2 km/h (2 Bft) N-NW 344 ° 0 min 0 W/m² -1,7 °C -3,4 °C 14,5 km/h (3 Bft)
14.02.2025 06:41 22,1 °C -0,6 °C 45 % 92 % 1022,6 hPa 0,0 l/m² 12,8 km/h (3 Bft) NW 325 ° 0 min 0 W/m² -1,7 °C -6,3 °C 19,3 km/h (3 Bft)
14.02.2025 06:43 22,1 °C -0,6 °C 45 % 92 % 1022,6 hPa 0,0 l/m² 7,8 km/h (2 Bft) NW 320 ° 0 min 0 W/m² -1,7 °C -2,1 °C 12,9 km/h (3 Bft)
14.02.2025 06:44 22,1 °C -0,6 °C 45 % 92 % 1022,6 hPa 0,0 l/m² 8,3 km/h (2 Bft) N-NO 13 ° 0 min 0 W/m² -1,7 °C -2,6 °C 14,5 km/h (3 Bft)
14.02.2025 06:46 22,1 °C -0,6 °C 45 % 92 % 1022,6 hPa 0,0 l/m² 7,7 km/h (2 Bft) N-NW 337 ° 0 min 0 W/m² -1,7 °C -2,0 °C 16,1 km/h (3 Bft)
14.02.2025 06:48 22,1 °C -0,6 °C 45 % 92 % 1022,6 hPa 0,0 l/m² 10,5 km/h (2 Bft) NW 304 ° 0 min 0 W/m² -1,7 °C -4,5 °C 17,7 km/h (3 Bft)
14.02.2025 06:50 22,1 °C -0,7 °C 45 % 92 % 1022,7 hPa 0,0 l/m² 8,0 km/h (2 Bft) NW 322 ° 0 min 0 W/m² -1,8 °C -2,4 °C 14,5 km/h (3 Bft)
14.02.2025 06:51 22,1 °C -0,7 °C 45 % 92 % 1022,7 hPa 0,0 l/m² 8,7 km/h (2 Bft) N 350 ° 0 min 0 W/m² -1,8 °C -3,1 °C 14,5 km/h (3 Bft)
14.02.2025 06:53 22,1 °C -0,7 °C 45 % 92 % 1022,7 hPa 0,0 l/m² 9,8 km/h (2 Bft) N-NW 334 ° 0 min 0 W/m² -1,8 °C -4,1 °C 14,5 km/h (3 Bft)
14.02.2025 06:54 22,1 °C -0,7 °C 45 % 92 % 1022,7 hPa 0,0 l/m² 7,8 km/h (2 Bft) N-NW 330 ° 0 min 0 W/m² -1,8 °C -2,2 °C 12,9 km/h (3 Bft)
14.02.2025 06:56 22,1 °C -0,7 °C 45 % 92 % 1022,7 hPa 0,0 l/m² 7,0 km/h (2 Bft) N-NW 332 ° 0 min 0 W/m² -1,8 °C -1,3 °C 11,3 km/h (2 Bft)
14.02.2025 06:58 22,1 °C -0,7 °C 45 % 92 % 1022,7 hPa 0,0 l/m² 9,2 km/h (2 Bft) N-NW 334 ° 0 min 0 W/m² -1,8 °C -3,5 °C 16,1 km/h (3 Bft)
14.02.2025 07:00 22,1 °C -0,7 °C 45 % 92 % 1022,7 hPa 0,0 l/m² 8,3 km/h (2 Bft) N-NW 333 ° 0 min 0 W/m² -1,8 °C -2,7 °C 14,5 km/h (3 Bft)
14.02.2025 07:01 22,1 °C -0,7 °C 45 % 92 % 1022,8 hPa 0,0 l/m² 10,5 km/h (2 Bft) N-NW 340 ° 0 min 0 W/m² -1,8 °C -4,6 °C 14,5 km/h (3 Bft)
14.02.2025 07:03 22,1 °C -0,7 °C 45 % 92 % 1022,8 hPa 0,0 l/m² 9,2 km/h (2 Bft) N 351 ° 0 min 0 W/m² -1,8 °C -3,5 °C 16,1 km/h (3 Bft)
14.02.2025 07:04 22,1 °C -0,7 °C 45 % 92 % 1022,7 hPa 0,0 l/m² 9,3 km/h (2 Bft) NW 325 ° 0 min 0 W/m² -1,8 °C -3,6 °C 16,1 km/h (3 Bft)
14.02.2025 07:06 22,1 °C -0,7 °C 45 % 92 % 1022,8 hPa 0,0 l/m² 10,8 km/h (2 Bft) N-NW 338 ° 0 min 0 W/m² -1,8 °C -4,9 °C 17,7 km/h (3 Bft)
14.02.2025 07:08 22,1 °C -0,7 °C 45 % 92 % 1022,8 hPa 0,0 l/m² 7,7 km/h (2 Bft) NW 318 ° 0 min 0 W/m² -1,8 °C -2,1 °C 14,5 km/h (3 Bft)
14.02.2025 07:10 22,1 °C -0,7 °C 45 % 92 % 1023,0 hPa 0,0 l/m² 9,7 km/h (2 Bft) N-NW 344 ° 0 min 0 W/m² -1,8 °C -4,0 °C 16,1 km/h (3 Bft)
14.02.2025 07:11 22,1 °C -0,7 °C 45 % 92 % 1023,0 hPa 0,0 l/m² 8,8 km/h (2 Bft) N 10 ° 0 min 0 W/m² -1,8 °C -3,2 °C 16,1 km/h (3 Bft)
14.02.2025 07:13 22,1 °C -0,7 °C 45 % 92 % 1023,0 hPa 0,0 l/m² 6,4 km/h (2 Bft) N-NW 347 ° 0 min 0 W/m² -1,8 °C -0,7 °C 9,7 km/h (2 Bft)
14.02.2025 07:14 22,1 °C -0,7 °C 45 % 92 % 1023,0 hPa 0,0 l/m² 7,0 km/h (2 Bft) N-NW 341 ° 0 min 0 W/m² -1,8 °C -1,3 °C 12,9 km/h (3 Bft)
14.02.2025 07:16 22,1 °C -0,7 °C 45 % 92 % 1023,1 hPa 0,0 l/m² 7,7 km/h (2 Bft) N 355 ° 0 min 0 W/m² -1,8 °C -2,1 °C 16,1 km/h (3 Bft)
14.02.2025 07:18 22,1 °C -0,7 °C 45 % 92 % 1023,0 hPa 0,0 l/m² 8,4 km/h (2 Bft) N-NW 344 ° 0 min 0 W/m² -1,8 °C -2,8 °C 14,5 km/h (3 Bft)
14.02.2025 07:20 22,1 °C -0,6 °C 45 % 92 % 1023,2 hPa 0,0 l/m² 11,2 km/h (2 Bft) NW 317 ° 0 min 0 W/m² -1,7 °C -5,1 °C 17,7 km/h (3 Bft)
14.02.2025 07:21 22,1 °C -0,7 °C 45 % 92 % 1023,1 hPa 0,0 l/m² 9,4 km/h (2 Bft) NW 309 ° 0 min 0 W/m² -1,8 °C -3,7 °C 14,5 km/h (3 Bft)
14.02.2025 07:23 22,1 °C -0,6 °C 45 % 92 % 1023,2 hPa 0,0 l/m² 9,5 km/h (2 Bft) N-NW 329 ° 0 min 0 W/m² -1,7 °C -3,7 °C 16,1 km/h (3 Bft)
14.02.2025 07:24 22,1 °C -0,6 °C 45 % 92 % 1023,2 hPa 0,0 l/m² 10,7 km/h (2 Bft) N-NW 342 ° 0 min 0 W/m² -1,7 °C -4,7 °C 16,1 km/h (3 Bft)
14.02.2025 07:26 22,1 °C -0,6 °C 44 % 92 % 1023,1 hPa 0,0 l/m² 10,7 km/h (2 Bft) N 350 ° 0 min 0 W/m² -1,7 °C -4,7 °C 16,1 km/h (3 Bft)
14.02.2025 07:28 22,0 °C -0,6 °C 44 % 92 % 1023,2 hPa 0,0 l/m² 10,6 km/h (2 Bft) N 355 ° 0 min 0 W/m² -1,7 °C -4,6 °C 17,7 km/h (3 Bft)
14.02.2025 07:30 22,0 °C -0,6 °C 44 % 92 % 1023,2 hPa 0,0 l/m² 12,3 km/h (2 Bft) N-NW 339 ° 0 min 0 W/m² -1,7 °C -5,9 °C 19,3 km/h (3 Bft)
14.02.2025 07:31 22,0 °C -0,6 °C 44 % 92 % 1023,2 hPa 0,0 l/m² 9,2 km/h (2 Bft) N-NW 345 ° 0 min 0 W/m² -1,7 °C -3,4 °C 16,1 km/h (3 Bft)
14.02.2025 07:33 22,0 °C -0,6 °C 44 % 92 % 1023,2 hPa 0,0 l/m² 7,4 km/h (2 Bft) N-NW 339 ° 0 min 0 W/m² -1,7 °C -1,7 °C 12,9 km/h (3 Bft)
14.02.2025 07:34 22,0 °C -0,6 °C 44 % 92 % 1023,3 hPa 0,0 l/m² 12,5 km/h (2 Bft) N-NW 331 ° 0 min 0 W/m² -1,7 °C -6,1 °C 17,7 km/h (3 Bft)
14.02.2025 07:36 22,0 °C -0,6 °C 44 % 92 % 1023,2 hPa 0,0 l/m² 12,5 km/h (2 Bft) N-NW 337 ° 0 min 0 W/m² -1,7 °C -6,1 °C 19,3 km/h (3 Bft)
14.02.2025 07:38 22,0 °C -0,6 °C 44 % 92 % 1023,3 hPa 0,0 l/m² 12,4 km/h (2 Bft) N-NW 345 ° 0 min 0 W/m² -1,7 °C -6,0 °C 19,3 km/h (3 Bft)
14.02.2025 07:40 22,0 °C -0,6 °C 44 % 92 % 1023,3 hPa 0,0 l/m² 10,1 km/h (2 Bft) N 355 ° 0 min 0 W/m² -1,7 °C -4,2 °C 17,7 km/h (3 Bft)
14.02.2025 07:41 22,0 °C -0,6 °C 44 % 92 % 1023,2 hPa 0,0 l/m² 8,9 km/h (2 Bft) NW 324 ° 0 min 0 W/m² -1,7 °C -3,1 °C 14,5 km/h (3 Bft)
14.02.2025 07:43 21,9 °C -0,6 °C 44 % 92 % 1023,2 hPa 0,0 l/m² 9,8 km/h (2 Bft) N-NW 327 ° 0 min 0 W/m² -1,7 °C -3,9 °C 16,1 km/h (3 Bft)
14.02.2025 07:44 22,0 °C -0,6 °C 44 % 92 % 1023,2 hPa 0,0 l/m² 9,0 km/h (2 Bft) N-NW 344 ° 0 min 0 W/m² -1,7 °C -3,2 °C 14,5 km/h (3 Bft)
14.02.2025 07:46 22,0 °C -0,5 °C 44 % 92 % 1023,4 hPa 0,0 l/m² 12,1 km/h (2 Bft) NW 316 ° 0 min 5 W/m² -1,6 °C -5,7 °C 19,3 km/h (3 Bft)
14.02.2025 07:48 22,0 °C -0,5 °C 44 % 92 % 1023,3 hPa 0,0 l/m² 11,5 km/h (2 Bft) N 5 ° 0 min 5 W/m² -1,6 °C -5,2 °C 16,1 km/h (3 Bft)
14.02.2025 07:50 22,0 °C -0,5 °C 44 % 92 % 1023,4 hPa 0,0 l/m² 12,1 km/h (2 Bft) N-NW 340 ° 0 min 5 W/m² -1,6 °C -5,7 °C 19,3 km/h (3 Bft)
14.02.2025 07:51 22,0 °C -0,5 °C 44 % 92 % 1023,4 hPa 0,0 l/m² 12,4 km/h (2 Bft) N 350 ° 0 min 5 W/m² -1,6 °C -5,9 °C 16,1 km/h (3 Bft)
14.02.2025 07:53 22,0 °C -0,5 °C 44 % 92 % 1023,5 hPa 0,0 l/m² 10,2 km/h (2 Bft) N-NW 341 ° 0 min 5 W/m² -1,6 °C -4,2 °C 19,3 km/h (3 Bft)
14.02.2025 07:54 22,0 °C -0,4 °C 44 % 92 % 1023,5 hPa 0,0 l/m² 11,2 km/h (2 Bft) N 355 ° 0 min 7 W/m² -1,5 °C -4,9 °C 16,1 km/h (3 Bft)
14.02.2025 07:56 22,0 °C -0,5 °C 44 % 92 % 1023,5 hPa 0,0 l/m² 11,0 km/h (2 Bft) N-NW 340 ° 0 min 7 W/m² -1,6 °C -4,8 °C 20,9 km/h (4 Bft)
14.02.2025 07:58 22,0 °C -0,4 °C 44 % 92 % 1023,5 hPa 0,0 l/m² 12,4 km/h (2 Bft) N-NW 344 ° 0 min 9 W/m² -1,5 °C -5,8 °C 19,3 km/h (3 Bft)
14.02.2025 08:00 22,0 °C -0,5 °C 44 % 92 % 1023,6 hPa 0,0 l/m² 11,1 km/h (2 Bft) N-NW 333 ° 0 min 9 W/m² -1,6 °C -4,9 °C 17,7 km/h (3 Bft)
14.02.2025 08:01 22,0 °C -0,4 °C 44 % 92 % 1023,6 hPa 0,0 l/m² 10,4 km/h (2 Bft) N-NW 328 ° 0 min 11 W/m² -1,5 °C -4,2 °C 16,1 km/h (3 Bft)
14.02.2025 08:03 22,0 °C -0,4 °C 44 % 92 % 1023,6 hPa 0,0 l/m² 9,5 km/h (2 Bft) NW 322 ° 0 min 11 W/m² -1,5 °C -3,5 °C 16,1 km/h (3 Bft)
14.02.2025 08:04 22,0 °C -0,4 °C 44 % 92 % 1023,7 hPa 0,0 l/m² 15,2 km/h (3 Bft) NW 315 ° 0 min 11 W/m² -1,5 °C -7,6 °C 20,9 km/h (4 Bft)
14.02.2025 08:06 22,0 °C -0,4 °C 44 % 91 % 1023,7 hPa 0,0 l/m² 13,4 km/h (3 Bft) N-NW 340 ° 0 min 12 W/m² -1,7 °C -6,4 °C 20,9 km/h (4 Bft)
14.02.2025 08:08 22,0 °C -0,4 °C 44 % 91 % 1023,7 hPa 0,0 l/m² 14,8 km/h (3 Bft) NW 326 ° 0 min 12 W/m² -1,7 °C -7,3 °C 20,9 km/h (4 Bft)
14.02.2025 08:10 22,0 °C -0,4 °C 44 % 91 % 1023,7 hPa 0,0 l/m² 9,9 km/h (2 Bft) N-NW 336 ° 0 min 14 W/m² -1,7 °C -3,8 °C 16,1 km/h (3 Bft)
14.02.2025 08:11 22,0 °C -0,4 °C 44 % 91 % 1023,8 hPa 0,0 l/m² 10,1 km/h (2 Bft) NW 323 ° 0 min 14 W/m² -1,7 °C -4,0 °C 14,5 km/h (3 Bft)
14.02.2025 08:13 22,0 °C -0,4 °C 44 % 91 % 1023,9 hPa 0,0 l/m² 10,3 km/h (2 Bft) N-NW 342 ° 0 min 16 W/m² -1,7 °C -4,1 °C 20,9 km/h (4 Bft)
14.02.2025 08:14 22,0 °C -0,4 °C 44 % 91 % 1023,8 hPa 0,0 l/m² 12,3 km/h (2 Bft) N-NW 348 ° 0 min 16 W/m² -1,7 °C -5,7 °C 16,1 km/h (3 Bft)
14.02.2025 08:16 22,0 °C -0,4 °C 44 % 91 % 1023,9 hPa 0,0 l/m² 8,9 km/h (2 Bft) N-NW 331 ° 0 min 16 W/m² -1,7 °C -2,9 °C 14,5 km/h (3 Bft)
14.02.2025 08:18 22,0 °C -0,4 °C 44 % 91 % 1023,9 hPa 0,0 l/m² 11,0 km/h (2 Bft) N-NW 342 ° 0 min 19 W/m² -1,7 °C -4,7 °C 17,7 km/h (3 Bft)
14.02.2025 08:20 22,0 °C -0,4 °C 45 % 91 % 1023,8 hPa 0,0 l/m² 8,5 km/h (2 Bft) NW 318 ° 0 min 19 W/m² -1,7 °C -2,6 °C 14,5 km/h (3 Bft)
14.02.2025 08:21 22,1 °C -0,4 °C 45 % 91 % 1023,9 hPa 0,0 l/m² 9,5 km/h (2 Bft) NW 323 ° 0 min 21 W/m² -1,7 °C -3,5 °C 19,3 km/h (3 Bft)
14.02.2025 08:22 22,0 °C -0,4 °C 45 % 91 % 1024,0 hPa 0,0 l/m² 8,6 km/h (2 Bft) N-NW 348 ° 0 min 21 W/m² -1,7 °C -2,6 °C 14,5 km/h (3 Bft)
14.02.2025 08:24 22,0 °C -0,4 °C 45 % 91 % 1024,0 hPa 0,0 l/m² 9,7 km/h (2 Bft) N-NW 332 ° 0 min 23 W/m² -1,7 °C -3,6 °C 16,1 km/h (3 Bft)
14.02.2025 08:26 22,0 °C -0,4 °C 45 % 91 % 1024,0 hPa 0,0 l/m² 11,9 km/h (2 Bft) N-NW 340 ° 0 min 25 W/m² -1,7 °C -5,4 °C 19,3 km/h (3 Bft)
14.02.2025 08:28 22,1 °C -0,4 °C 45 % 91 % 1024,0 hPa 0,0 l/m² 10,6 km/h (2 Bft) N-NW 337 ° 0 min 25 W/m² -1,7 °C -4,4 °C 17,7 km/h (3 Bft)
14.02.2025 08:30 22,1 °C -0,4 °C 45 % 91 % 1024,1 hPa 0,0 l/m² 8,8 km/h (2 Bft) N-NW 342 ° 0 min 25 W/m² -1,7 °C -2,8 °C 14,5 km/h (3 Bft)
14.02.2025 08:31 22,0 °C -0,4 °C 45 % 91 % 1024,1 hPa 0,0 l/m² 11,6 km/h (2 Bft) N-NW 335 ° 0 min 25 W/m² -1,7 °C -5,2 °C 16,1 km/h (3 Bft)
14.02.2025 08:33 22,1 °C -0,4 °C 45 % 91 % 1024,2 hPa 0,0 l/m² 10,8 km/h (2 Bft) NW 320 ° 0 min 23 W/m² -1,7 °C -4,5 °C 19,3 km/h (3 Bft)
14.02.2025 08:34 22,1 °C -0,4 °C 45 % 91 % 1024,2 hPa 0,0 l/m² 11,1 km/h (2 Bft) NW 323 ° 0 min 23 W/m² -1,7 °C -4,8 °C 16,1 km/h (3 Bft)
14.02.2025 08:36 22,1 °C -0,4 °C 45 % 91 % 1024,2 hPa 0,0 l/m² 10,6 km/h (2 Bft) N-NW 336 ° 0 min 23 W/m² -1,7 °C -4,4 °C 17,7 km/h (3 Bft)
14.02.2025 08:38 22,1 °C -0,4 °C 45 % 91 % 1024,2 hPa 0,0 l/m² 12,1 km/h (2 Bft) NW 321 ° 0 min 23 W/m² -1,7 °C -5,5 °C 16,1 km/h (3 Bft)
14.02.2025 08:40 22,1 °C -0,3 °C 45 % 91 % 1024,2 hPa 0,0 l/m² 9,7 km/h (2 Bft) N-NW 339 ° 0 min 23 W/m² -1,6 °C -3,5 °C 16,1 km/h (3 Bft)
14.02.2025 08:41 22,1 °C -0,3 °C 45 % 91 % 1024,2 hPa 0,0 l/m² 8,9 km/h (2 Bft) N-NO 12 ° 0 min 21 W/m² -1,6 °C -2,8 °C 12,9 km/h (3 Bft)
14.02.2025 08:42 22,1 °C -0,3 °C 45 % 91 % 1024,3 hPa 0,0 l/m² 8,0 km/h (2 Bft) N-NW 337 ° 0 min 21 W/m² -1,6 °C -2,0 °C 12,9 km/h (3 Bft)
14.02.2025 08:44 22,1 °C -0,3 °C 45 % 91 % 1024,4 hPa 0,0 l/m² 9,7 km/h (2 Bft) N-NW 347 ° 0 min 19 W/m² -1,6 °C -3,5 °C 16,1 km/h (3 Bft)
14.02.2025 08:46 22,1 °C -0,3 °C 45 % 91 % 1024,4 hPa 0,0 l/m² 11,2 km/h (2 Bft) N-NW 335 ° 0 min 18 W/m² -1,6 °C -4,7 °C 17,7 km/h (3 Bft)
14.02.2025 08:48 22,1 °C -0,3 °C 45 % 91 % 1024,4 hPa 0,0 l/m² 9,0 km/h (2 Bft) NW 325 ° 0 min 16 W/m² -1,6 °C -2,9 °C 16,1 km/h (3 Bft)
14.02.2025 08:50 22,1 °C -0,3 °C 45 % 91 % 1024,4 hPa 0,0 l/m² 9,4 km/h (2 Bft) N-NW 345 ° 0 min 14 W/m² -1,6 °C -3,3 °C 14,5 km/h (3 Bft)
14.02.2025 08:51 22,2 °C -0,3 °C 45 % 91 % 1024,5 hPa 0,0 l/m² 11,9 km/h (2 Bft) N-NW 336 ° 0 min 14 W/m² -1,6 °C -5,3 °C 16,1 km/h (3 Bft)
14.02.2025 08:52 22,1 °C -0,3 °C 45 % 91 % 1024,5 hPa 0,0 l/m² 11,5 km/h (2 Bft) NW 318 ° 0 min 14 W/m² -1,6 °C -5,0 °C 16,1 km/h (3 Bft)
14.02.2025 08:54 22,1 °C -0,3 °C 45 % 91 % 1024,5 hPa 0,0 l/m² 8,5 km/h (2 Bft) N-NW 342 ° 0 min 16 W/m² -1,6 °C -2,4 °C 16,1 km/h (3 Bft)
14.02.2025 08:56 22,2 °C -0,3 °C 45 % 91 % 1024,6 hPa 0,0 l/m² 11,0 km/h (2 Bft) N-NW 340 ° 0 min 19 W/m² -1,6 °C -4,6 °C 17,7 km/h (3 Bft)
14.02.2025 08:58 22,1 °C -0,3 °C 45 % 91 % 1024,6 hPa 0,0 l/m² 13,4 km/h (3 Bft) NW 315 ° 0 min 25 W/m² -1,6 °C -6,3 °C 17,7 km/h (3 Bft)
14.02.2025 09:00 22,1 °C -0,3 °C 45 % 91 % 1024,6 hPa 0,0 l/m² 10,0 km/h (2 Bft) N-NW 333 ° 0 min 28 W/m² -1,6 °C -3,8 °C 16,1 km/h (3 Bft)
14.02.2025 09:01 22,2 °C -0,3 °C 45 % 91 % 1024,6 hPa 0,0 l/m² 14,4 km/h (3 Bft) NW 317 ° 0 min 32 W/m² -1,6 °C -7,0 °C 17,7 km/h (3 Bft)
14.02.2025 09:02 22,2 °C -0,3 °C 45 % 91 % 1024,6 hPa 0,0 l/m² 11,0 km/h (2 Bft) N-NW 329 ° 0 min 33 W/m² -1,6 °C -4,6 °C 17,7 km/h (3 Bft)
14.02.2025 09:04 22,2 °C -0,3 °C 45 % 91 % 1024,7 hPa 0,0 l/m² 12,8 km/h (3 Bft) W 275 ° 0 min 37 W/m² -1,6 °C -5,9 °C 19,3 km/h (3 Bft)
14.02.2025 09:06 22,2 °C -0,3 °C 45 % 91 % 1024,7 hPa 0,0 l/m² 9,1 km/h (2 Bft) W-NW 296 ° 0 min 39 W/m² -1,6 °C -3,0 °C 14,5 km/h (3 Bft)
14.02.2025 09:08 22,2 °C -0,3 °C 45 % 91 % 1024,7 hPa 0,0 l/m² 10,2 km/h (2 Bft) N-NW 340 ° 0 min 39 W/m² -1,6 °C -3,9 °C 16,1 km/h (3 Bft)
14.02.2025 09:10 22,2 °C -0,3 °C 45 % 91 % 1024,7 hPa 0,0 l/m² 11,8 km/h (2 Bft) NW 311 ° 0 min 39 W/m² -1,6 °C -5,2 °C 17,7 km/h (3 Bft)
14.02.2025 09:11 22,2 °C -0,3 °C 45 % 91 % 1024,7 hPa 0,0 l/m² 12,9 km/h (3 Bft) NW 326 ° 0 min 39 W/m² -1,6 °C -6,0 °C 17,7 km/h (3 Bft)
14.02.2025 09:12 22,2 °C -0,3 °C 45 % 91 % 1024,7 hPa 0,0 l/m² 16,6 km/h (3 Bft) W-NW 303 ° 0 min 39 W/m² -1,6 °C -8,3 °C 22,5 km/h (4 Bft)
14.02.2025 09:14 22,2 °C -0,3 °C 45 % 91 % 1024,8 hPa 0,0 l/m² 8,9 km/h (2 Bft) NW 326 ° 0 min 39 W/m² -1,6 °C -2,8 °C 14,5 km/h (3 Bft)
14.02.2025 09:16 22,2 °C -0,2 °C 45 % 90 % 1024,7 hPa 0,0 l/m² 11,9 km/h (2 Bft) NW 309 ° 0 min 39 W/m² -1,6 °C -5,2 °C 19,3 km/h (3 Bft)
14.02.2025 09:18 22,2 °C -0,2 °C 45 % 90 % 1024,8 hPa 0,0 l/m² 10,9 km/h (2 Bft) N 355 ° 0 min 37 W/m² -1,6 °C -4,4 °C 17,7 km/h (3 Bft)
14.02.2025 09:20 22,2 °C -0,2 °C 45 % 90 % 1024,8 hPa 0,0 l/m² 12,3 km/h (2 Bft) NW 309 ° 0 min 37 W/m² -1,6 °C -5,4 °C 19,3 km/h (3 Bft)
14.02.2025 09:21 22,2 °C -0,2 °C 45 % 90 % 1024,9 hPa 0,0 l/m² 12,5 km/h (2 Bft) NW 317 ° 0 min 35 W/m² -1,6 °C -5,6 °C 19,3 km/h (3 Bft)
14.02.2025 09:22 22,3 °C -0,2 °C 45 % 90 % 1024,8 hPa 0,0 l/m² 7,5 km/h (2 Bft) N-NW 348 ° 0 min 35 W/m² -1,6 °C -1,4 °C 12,9 km/h (3 Bft)
14.02.2025 09:24 22,2 °C -0,2 °C 45 % 90 % 1024,9 hPa 0,0 l/m² 9,8 km/h (2 Bft) N-NW 331 ° 0 min 33 W/m² -1,6 °C -3,5 °C 16,1 km/h (3 Bft)
14.02.2025 09:26 22,3 °C -0,2 °C 45 % 90 % 1024,9 hPa 0,0 l/m² 11,1 km/h (2 Bft) NW 311 ° 0 min 33 W/m² -1,6 °C -4,6 °C 14,5 km/h (3 Bft)
14.02.2025 09:28 22,3 °C -0,1 °C 45 % 90 % 1024,9 hPa 0,0 l/m² 11,7 km/h (2 Bft) N-NW 333 ° 0 min 32 W/m² -1,5 °C -4,9 °C 16,1 km/h (3 Bft)
14.02.2025 09:29 22,3 °C -0,2 °C 45 % 90 % 1025,0 hPa 0,0 l/m² 11,1 km/h (2 Bft) NW 326 ° 0 min 32 W/m² -1,6 °C -4,6 °C 17,7 km/h (3 Bft)
14.02.2025 09:30 22,3 °C -0,1 °C 45 % 90 % 1025,0 hPa 0,0 l/m² 8,1 km/h (2 Bft) NW 310 ° 0 min 32 W/m² -1,5 °C -1,8 °C 14,5 km/h (3 Bft)
14.02.2025 09:32 22,3 °C -0,1 °C 45 % 90 % 1025,0 hPa 0,0 l/m² 11,4 km/h (2 Bft) NW 319 ° 0 min 33 W/m² -1,5 °C -4,7 °C 16,1 km/h (3 Bft)
14.02.2025 09:33 22,3 °C -0,1 °C 45 % 90 % 1025,0 hPa 0,0 l/m² 9,5 km/h (2 Bft) NW 314 ° 0 min 33 W/m² -1,5 °C -3,1 °C 16,1 km/h (3 Bft)
14.02.2025 09:35 22,3 °C -0,1 °C 45 % 90 % 1025,0 hPa 0,0 l/m² 12,8 km/h (3 Bft) N-NW 336 ° 0 min 35 W/m² -1,5 °C -5,7 °C 20,9 km/h (4 Bft)
14.02.2025 09:37 22,3 °C -0,1 °C 45 % 90 % 1025,1 hPa 0,0 l/m² 14,0 km/h (3 Bft) N-NW 332 ° 0 min 35 W/m² -1,5 °C -6,5 °C 20,9 km/h (4 Bft)
14.02.2025 09:39 22,3 °C -0,1 °C 45 % 90 % 1025,0 hPa 0,0 l/m² 12,8 km/h (3 Bft) N-NO 15 ° 0 min 35 W/m² -1,5 °C -5,7 °C 19,3 km/h (3 Bft)
14.02.2025 09:40 22,3 °C -0,1 °C 45 % 90 % 1025,0 hPa 0,0 l/m² 17,6 km/h (3 Bft) N 360 ° 0 min 35 W/m² -1,5 °C -8,6 °C 22,5 km/h (4 Bft)
14.02.2025 09:42 22,3 °C -0,1 °C 45 % 90 % 1025,1 hPa 0,0 l/m² 15,1 km/h (3 Bft) NW 321 ° 0 min 37 W/m² -1,5 °C -7,2 °C 22,5 km/h (4 Bft)
14.02.2025 09:43 22,3 °C -0,1 °C 45 % 90 % 1025,0 hPa 0,0 l/m² 13,3 km/h (3 Bft) NW 319 ° 0 min 39 W/m² -1,5 °C -6,0 °C 17,7 km/h (3 Bft)
14.02.2025 09:45 22,3 °C -0,1 °C 45 % 90 % 1025,1 hPa 0,0 l/m² 12,3 km/h (2 Bft) N-NW 348 ° 0 min 40 W/m² -1,5 °C -5,3 °C 16,1 km/h (3 Bft)
14.02.2025 09:46 22,3 °C -0,1 °C 45 % 90 % 1025,1 hPa 0,0 l/m² 9,7 km/h (2 Bft) NW 321 ° 0 min 42 W/m² -1,5 °C -3,3 °C 14,5 km/h (3 Bft)
14.02.2025 09:47 22,3 °C -0,1 °C 45 % 90 % 1025,1 hPa 0,0 l/m² 14,1 km/h (3 Bft) N-NW 338 ° 0 min 42 W/m² -1,5 °C -6,5 °C 17,7 km/h (3 Bft)
14.02.2025 09:48 22,3 °C -0,1 °C 45 % 90 % 1025,0 hPa 0,0 l/m² 13,1 km/h (3 Bft) N-NW 336 ° 0 min 42 W/m² -1,5 °C -5,9 °C 17,7 km/h (3 Bft)
14.02.2025 09:50 22,3 °C -0,1 °C 45 % 90 % 1025,1 hPa 0,0 l/m² 13,7 km/h (3 Bft) N-NW 331 ° 0 min 42 W/m² -1,5 °C -6,3 °C 19,3 km/h (3 Bft)
14.02.2025 09:51 22,3 °C -0,1 °C 45 % 90 % 1025,0 hPa 0,0 l/m² 10,8 km/h (2 Bft) N-NW 345 ° 0 min 46 W/m² -1,5 °C -4,2 °C 16,1 km/h (3 Bft)
14.02.2025 09:52 22,3 °C -0,1 °C 45 % 90 % 1025,0 hPa 0,0 l/m² 8,7 km/h (2 Bft) N-NW 338 ° 0 min 46 W/m² -1,5 °C -2,4 °C 14,5 km/h (3 Bft)
14.02.2025 09:54 22,3 °C -0,1 °C 45 % 89 % 1025,1 hPa 0,0 l/m² 12,0 km/h (2 Bft) N-NW 334 ° 0 min 47 W/m² -1,7 °C -5,1 °C 17,7 km/h (3 Bft)
14.02.2025 09:56 22,3 °C 0,0 °C 45 % 89 % 1025,1 hPa 0,0 l/m² 13,7 km/h (3 Bft) N-NW 340 ° 0 min 49 W/m² -1,6 °C -6,2 °C 19,3 km/h (3 Bft)
14.02.2025 09:58 22,3 °C 0,0 °C 45 % 89 % 1025,1 hPa 0,0 l/m² 10,7 km/h (2 Bft) N-NW 341 ° 0 min 51 W/m² -1,6 °C -4,0 °C 16,1 km/h (3 Bft)
14.02.2025 10:00 22,3 °C 0,0 °C 45 % 89 % 1025,1 hPa 0,0 l/m² 12,3 km/h (2 Bft) N-NW 330 ° 0 min 51 W/m² -1,6 °C -5,2 °C 17,7 km/h (3 Bft)
14.02.2025 10:01 22,3 °C 0,1 °C 45 % 89 % 1025,1 hPa 0,0 l/m² 11,7 km/h (2 Bft) N-NW 335 ° 0 min 51 W/m² -1,5 °C -4,7 °C 19,3 km/h (3 Bft)
14.02.2025 10:02 22,3 °C 0,1 °C 45 % 89 % 1025,2 hPa 0,0 l/m² 12,0 km/h (2 Bft) N-NW 337 ° 0 min 51 W/m² -1,5 °C -4,9 °C 17,7 km/h (3 Bft)
14.02.2025 10:05 22,3 °C 0,1 °C 45 % 89 % 1025,1 hPa 0,0 l/m² 8,6 km/h (2 Bft) W-NW 292 ° 0 min 49 W/m² -1,5 °C -2,1 °C 17,7 km/h (3 Bft)
14.02.2025 10:07 22,3 °C 0,1 °C 45 % 89 % 1025,1 hPa 0,0 l/m² 10,7 km/h (2 Bft) N 349 ° 0 min 51 W/m² -1,5 °C -3,9 °C 14,5 km/h (3 Bft)
14.02.2025 10:09 22,3 °C 0,1 °C 45 % 89 % 1025,2 hPa 0,0 l/m² 7,5 km/h (2 Bft) NW 313 ° 0 min 51 W/m² -1,5 °C -1,0 °C 12,9 km/h (3 Bft)
14.02.2025 10:10 22,3 °C 0,1 °C 45 % 89 % 1025,3 hPa 0,0 l/m² 9,4 km/h (2 Bft) NW 319 ° 0 min 51 W/m² -1,5 °C -2,8 °C 14,5 km/h (3 Bft)
14.02.2025 10:12 22,3 °C 0,1 °C 45 % 89 % 1025,2 hPa 0,0 l/m² 9,7 km/h (2 Bft) N-NW 335 ° 0 min 51 W/m² -1,5 °C -3,1 °C 16,1 km/h (3 Bft)
14.02.2025 10:13 22,3 °C 0,1 °C 45 % 89 % 1025,2 hPa 0,0 l/m² 9,4 km/h (2 Bft) N-NW 342 ° 0 min 51 W/m² -1,5 °C -2,8 °C 14,5 km/h (3 Bft)
14.02.2025 10:15 22,3 °C 0,1 °C 45 % 89 % 1025,3 hPa 0,0 l/m² 11,4 km/h (2 Bft) N-NW 327 ° 2 min 53 W/m² -1,5 °C -4,4 °C 17,7 km/h (3 Bft)
14.02.2025 10:17 22,3 °C 0,1 °C 45 % 89 % 1025,3 hPa 0,0 l/m² 10,3 km/h (2 Bft) N-NW 333 ° 2 min 53 W/m² -1,5 °C -3,6 °C 14,5 km/h (3 Bft)
14.02.2025 10:19 22,3 °C 0,1 °C 45 % 89 % 1025,3 hPa 0,0 l/m² 7,9 km/h (2 Bft) N-NW 346 ° 0 min 49 W/m² -1,5 °C -1,4 °C 14,5 km/h (3 Bft)
14.02.2025 10:20 22,3 °C 0,1 °C 45 % 89 % 1025,3 hPa 0,0 l/m² 7,8 km/h (2 Bft) N 360 ° 0 min 47 W/m² -1,5 °C -1,3 °C 12,9 km/h (3 Bft)
14.02.2025 10:22 22,3 °C 0,1 °C 45 % 89 % 1025,3 hPa 0,0 l/m² 9,0 km/h (2 Bft) NW 324 ° 0 min 51 W/m² -1,5 °C -2,5 °C 14,5 km/h (3 Bft)
14.02.2025 10:23 22,3 °C 0,2 °C 45 % 89 % 1025,3 hPa 0,0 l/m² 7,4 km/h (2 Bft) N-NW 343 ° 1 min 53 W/m² -1,4 °C -0,8 °C 14,5 km/h (3 Bft)
14.02.2025 10:25 22,3 °C 0,2 °C 45 % 89 % 1025,4 hPa 0,0 l/m² 9,1 km/h (2 Bft) N-NW 333 ° 2 min 54 W/m² -1,4 °C -2,5 °C 16,1 km/h (3 Bft)
14.02.2025 10:27 22,3 °C 0,2 °C 45 % 88 % 1025,4 hPa 0,0 l/m² 8,1 km/h (2 Bft) N 355 ° 2 min 58 W/m² -1,5 °C -1,5 °C 14,5 km/h (3 Bft)
14.02.2025 10:29 22,3 °C 0,2 °C 45 % 88 % 1025,4 hPa 0,0 l/m² 10,2 km/h (2 Bft) N-NW 341 ° 2 min 62 W/m² -1,5 °C -3,4 °C 16,1 km/h (3 Bft)
14.02.2025 10:30 22,3 °C 0,2 °C 45 % 88 % 1025,4 hPa 0,0 l/m² 8,7 km/h (2 Bft) N-NW 346 ° 1 min 63 W/m² -1,5 °C -2,1 °C 14,5 km/h (3 Bft)
14.02.2025 10:32 22,3 °C 0,2 °C 45 % 88 % 1025,4 hPa 0,0 l/m² 10,8 km/h (2 Bft) N-NW 336 ° 2 min 67 W/m² -1,5 °C -3,9 °C 16,1 km/h (3 Bft)
14.02.2025 10:33 22,3 °C 0,2 °C 45 % 88 % 1025,4 hPa 0,0 l/m² 9,2 km/h (2 Bft) N-NW 340 ° 1 min 67 W/m² -1,5 °C -2,5 °C 16,1 km/h (3 Bft)
14.02.2025 10:35 22,3 °C 0,2 °C 45 % 88 % 1025,4 hPa 0,0 l/m² 8,1 km/h (2 Bft) N-NW 336 ° 2 min 69 W/m² -1,5 °C -1,5 °C 12,9 km/h (3 Bft)
14.02.2025 10:37 22,3 °C 0,3 °C 45 % 88 % 1025,5 hPa 0,0 l/m² 8,2 km/h (2 Bft) N 355 ° 2 min 67 W/m² -1,4 °C -1,5 °C 16,1 km/h (3 Bft)
14.02.2025 10:39 22,3 °C 0,3 °C 45 % 88 % 1025,5 hPa 0,0 l/m² 6,5 km/h (2 Bft) NW 323 ° 2 min 69 W/m² -1,4 °C 0,2 °C 8,0 km/h (2 Bft)
14.02.2025 10:40 22,3 °C 0,3 °C 45 % 88 % 1025,5 hPa 0,0 l/m² 6,7 km/h (2 Bft) NW 325 ° 1 min 69 W/m² -1,4 °C 0,0 °C 9,7 km/h (2 Bft)
14.02.2025 10:42 22,3 °C 0,3 °C 45 % 88 % 1025,5 hPa 0,0 l/m² 7,3 km/h (2 Bft) N 351 ° 2 min 70 W/m² -1,4 °C -0,6 °C 14,5 km/h (3 Bft)
14.02.2025 10:43 22,3 °C 0,3 °C 45 % 88 % 1025,5 hPa 0,0 l/m² 6,8 km/h (2 Bft) N-NW 342 ° 1 min 70 W/m² -1,4 °C -0,1 °C 9,7 km/h (2 Bft)
14.02.2025 10:45 22,3 °C 0,3 °C 45 % 88 % 1025,5 hPa 0,0 l/m² 7,2 km/h (2 Bft) N 5 ° 2 min 72 W/m² -1,4 °C -0,5 °C 12,9 km/h (3 Bft)
14.02.2025 10:47 22,3 °C 0,3 °C 45 % 88 % 1025,5 hPa 0,0 l/m² 8,1 km/h (2 Bft) W-NW 292 ° 2 min 76 W/m² -1,4 °C -1,4 °C 12,9 km/h (3 Bft)
14.02.2025 10:49 22,3 °C 0,3 °C 45 % 88 % 1025,6 hPa 0,0 l/m² 5,2 km/h (1 Bft) N 350 ° 2 min 77 W/m² -1,4 °C 0,3 °C 11,3 km/h (2 Bft)
14.02.2025 10:50 22,3 °C 0,3 °C 45 % 88 % 1025,6 hPa 0,0 l/m² 6,9 km/h (2 Bft) N-NW 330 ° 1 min 81 W/m² -1,4 °C -0,2 °C 12,9 km/h (3 Bft)
14.02.2025 10:52 22,3 °C 0,3 °C 45 % 87 % 1025,6 hPa 0,0 l/m² 5,5 km/h (2 Bft) NW 316 ° 2 min 88 W/m² -1,6 °C 0,3 °C 11,3 km/h (2 Bft)
14.02.2025 10:53 22,3 °C 0,3 °C 45 % 87 % 1025,6 hPa 0,0 l/m² 8,4 km/h (2 Bft) NW 314 ° 1 min 93 W/m² -1,6 °C -1,7 °C 12,9 km/h (3 Bft)
14.02.2025 10:54 22,3 °C 0,3 °C 45 % 87 % 1025,5 hPa 0,0 l/m² 8,4 km/h (2 Bft) NW 325 ° 1 min 97 W/m² -1,6 °C -1,7 °C 14,5 km/h (3 Bft)
14.02.2025 10:56 22,3 °C 0,3 °C 45 % 87 % 1025,7 hPa 0,0 l/m² 8,5 km/h (2 Bft) N-NW 332 ° 2 min 111 W/m² -1,6 °C -1,8 °C 14,5 km/h (3 Bft)
14.02.2025 10:58 22,3 °C 0,4 °C 45 % 87 % 1025,7 hPa 0,0 l/m² 10,4 km/h (2 Bft) N-NW 333 ° 2 min 118 W/m² -1,5 °C -3,3 °C 16,1 km/h (3 Bft)
14.02.2025 11:00 22,3 °C 0,3 °C 45 % 87 % 1025,7 hPa 0,0 l/m² 10,2 km/h (2 Bft) N-NW 335 ° 2 min 125 W/m² -1,6 °C -3,3 °C 16,1 km/h (3 Bft)
14.02.2025 11:01 22,3 °C 0,4 °C 45 % 87 % 1025,8 hPa 0,0 l/m² 10,0 km/h (2 Bft) N-NW 329 ° 1 min 128 W/m² -1,5 °C -3,0 °C 14,5 km/h (3 Bft)
14.02.2025 11:02 22,3 °C 0,4 °C 45 % 87 % 1025,8 hPa 0,0 l/m² 10,7 km/h (2 Bft) NW 322 ° 1 min 132 W/m² -1,5 °C -3,6 °C 14,5 km/h (3 Bft)
14.02.2025 11:04 22,4 °C 0,3 °C 45 % 87 % 1025,8 hPa 0,0 l/m² 9,3 km/h (2 Bft) N-NW 341 ° 2 min 132 W/m² -1,6 °C -2,5 °C 14,5 km/h (3 Bft)
14.02.2025 11:06 22,3 °C 0,4 °C 45 % 87 % 1025,8 hPa 0,0 l/m² 10,7 km/h (2 Bft) N-NW 342 ° 2 min 135 W/m² -1,5 °C -3,6 °C 17,7 km/h (3 Bft)
14.02.2025 11:08 22,3 °C 0,4 °C 45 % 87 % 1025,9 hPa 0,0 l/m² 10,7 km/h (2 Bft) N-NW 329 ° 2 min 146 W/m² -1,5 °C -3,6 °C 19,3 km/h (3 Bft)
14.02.2025 11:10 22,4 °C 0,4 °C 45 % 87 % 1025,9 hPa 0,0 l/m² 11,2 km/h (2 Bft) N 355 ° 2 min 153 W/m² -1,5 °C -4,0 °C 17,7 km/h (3 Bft)
14.02.2025 11:11 22,4 °C 0,4 °C 45 % 87 % 1025,9 hPa 0,0 l/m² 12,0 km/h (2 Bft) N-NW 330 ° 1 min 156 W/m² -1,5 °C -4,5 °C 17,7 km/h (3 Bft)
14.02.2025 11:12 22,4 °C 0,4 °C 45 % 87 % 1025,9 hPa 0,0 l/m² 8,7 km/h (2 Bft) W-NW 300 ° 1 min 163 W/m² -1,5 °C -1,9 °C 14,5 km/h (3 Bft)
14.02.2025 11:14 22,4 °C 0,4 °C 45 % 87 % 1025,9 hPa 0,0 l/m² 10,6 km/h (2 Bft) N-NO 14 ° 2 min 178 W/m² -1,5 °C -3,5 °C 16,1 km/h (3 Bft)
14.02.2025 11:15 22,3 °C 0,4 °C 45 % 87 % 1025,9 hPa 0,0 l/m² 11,3 km/h (2 Bft) N-NW 336 ° 1 min 178 W/m² -1,5 °C -4,0 °C 14,5 km/h (3 Bft)
14.02.2025 11:17 22,4 °C 0,5 °C 45 % 87 % 1026,0 hPa 0,0 l/m² 10,5 km/h (2 Bft) N-NW 342 ° 2 min 181 W/m² -1,4 °C -3,3 °C 14,5 km/h (3 Bft)
14.02.2025 11:19 22,4 °C 0,5 °C 45 % 87 % 1026,0 hPa 0,0 l/m² 12,2 km/h (2 Bft) N-NW 340 ° 2 min 190 W/m² -1,4 °C -4,6 °C 19,3 km/h (3 Bft)
14.02.2025 11:20 22,4 °C 0,5 °C 45 % 87 % 1026,0 hPa 0,0 l/m² 13,2 km/h (3 Bft) NW 306 ° 1 min 195 W/m² -1,4 °C -5,2 °C 17,7 km/h (3 Bft)
14.02.2025 11:21 22,4 °C 0,5 °C 45 % 87 % 1026,0 hPa 0,0 l/m² 12,7 km/h (3 Bft) N-NW 344 ° 1 min 195 W/m² -1,4 °C -4,9 °C 16,1 km/h (3 Bft)
14.02.2025 11:22 22,4 °C 0,5 °C 45 % 87 % 1026,0 hPa 0,0 l/m² 11,6 km/h (2 Bft) NW 312 ° 1 min 195 W/m² -1,4 °C -4,1 °C 16,1 km/h (3 Bft)
14.02.2025 11:24 22,4 °C 0,5 °C 45 % 87 % 1026,0 hPa 0,0 l/m² 9,6 km/h (2 Bft) NW 314 ° 2 min 193 W/m² -1,4 °C -2,6 °C 14,5 km/h (3 Bft)
14.02.2025 11:26 22,4 °C 0,5 °C 45 % 87 % 1026,2 hPa 0,0 l/m² 9,8 km/h (2 Bft) NW 323 ° 2 min 190 W/m² -1,4 °C -2,7 °C 14,5 km/h (3 Bft)
14.02.2025 11:28 22,4 °C 0,6 °C 45 % 87 % 1026,1 hPa 0,0 l/m² 9,9 km/h (2 Bft) NW 322 ° 2 min 193 W/m² -1,3 °C -2,7 °C 17,7 km/h (3 Bft)
14.02.2025 11:30 22,4 °C 0,6 °C 45 % 86 % 1026,1 hPa 0,0 l/m² 11,4 km/h (2 Bft) N-NW 327 ° 2 min 199 W/m² -1,5 °C -3,9 °C 16,1 km/h (3 Bft)
14.02.2025 11:31 22,4 °C 0,6 °C 45 % 86 % 1026,1 hPa 0,0 l/m² 10,5 km/h (2 Bft) N-NW 342 ° 1 min 202 W/m² -1,5 °C -3,2 °C 17,7 km/h (3 Bft)
14.02.2025 11:32 22,4 °C 0,6 °C 45 % 87 % 1026,1 hPa 0,0 l/m² 11,0 km/h (2 Bft) N-NW 342 ° 1 min 204 W/m² -1,3 °C -3,6 °C 14,5 km/h (3 Bft)
14.02.2025 11:35 22,4 °C 0,7 °C 45 % 87 % 1026,1 hPa 0,0 l/m² 8,5 km/h (2 Bft) N-NW 335 ° 3 min 216 W/m² -1,2 °C -1,4 °C 14,5 km/h (3 Bft)
14.02.2025 11:37 22,4 °C 0,6 °C 45 % 86 % 1026,2 hPa 0,0 l/m² 13,4 km/h (3 Bft) N-NW 334 ° 2 min 218 W/m² -1,5 °C -5,3 °C 19,3 km/h (3 Bft)
14.02.2025 11:39 22,4 °C 0,6 °C 45 % 86 % 1026,2 hPa 0,0 l/m² 10,5 km/h (2 Bft) NW 319 ° 2 min 218 W/m² -1,5 °C -3,2 °C 17,7 km/h (3 Bft)
14.02.2025 11:40 22,4 °C 0,6 °C 45 % 86 % 1026,2 hPa 0,0 l/m² 11,4 km/h (2 Bft) N-NO 14 ° 1 min 218 W/m² -1,5 °C -3,9 °C 16,1 km/h (3 Bft)
14.02.2025 11:41 22,4 °C 0,6 °C 45 % 86 % 1026,2 hPa 0,0 l/m² 13,5 km/h (3 Bft) N 350 ° 1 min 225 W/m² -1,5 °C -5,3 °C 16,1 km/h (3 Bft)
14.02.2025 11:42 22,4 °C 0,6 °C 45 % 86 % 1026,2 hPa 0,0 l/m² 9,7 km/h (2 Bft) NW 306 ° 1 min 229 W/m² -1,5 °C -2,5 °C 12,9 km/h (3 Bft)
14.02.2025 11:45 22,4 °C 0,7 °C 45 % 86 % 1026,2 hPa 0,0 l/m² 10,2 km/h (2 Bft) W-NW 299 ° 3 min 236 W/m² -1,4 °C -2,8 °C 14,5 km/h (3 Bft)
14.02.2025 11:47 22,4 °C 0,7 °C 45 % 86 % 1026,2 hPa 0,0 l/m² 9,8 km/h (2 Bft) NW 307 ° 2 min 246 W/m² -1,4 °C -2,5 °C 19,3 km/h (3 Bft)
14.02.2025 11:49 22,4 °C 0,7 °C 45 % 86 % 1026,2 hPa 0,0 l/m² 11,2 km/h (2 Bft) N-NW 346 ° 2 min 243 W/m² -1,4 °C -3,6 °C 16,1 km/h (3 Bft)
14.02.2025 11:50 22,4 °C 0,7 °C 45 % 86 % 1026,2 hPa 0,0 l/m² 9,8 km/h (2 Bft) N-NW 341 ° 1 min 246 W/m² -1,4 °C -2,5 °C 14,5 km/h (3 Bft)
14.02.2025 11:51 22,4 °C 0,7 °C 45 % 87 % 1026,2 hPa 0,0 l/m² 7,3 km/h (2 Bft) NW 323 ° 1 min 253 W/m² -1,2 °C -0,2 °C 9,7 km/h (2 Bft)
14.02.2025 11:52 22,4 °C 0,7 °C 45 % 86 % 1026,2 hPa 0,0 l/m² 11,7 km/h (2 Bft) N-NW 331 ° 1 min 260 W/m² -1,4 °C -4,0 °C 17,7 km/h (3 Bft)
14.02.2025 11:54 22,4 °C 0,7 °C 45 % 86 % 1026,2 hPa 0,0 l/m² 11,0 km/h (2 Bft) N-NW 346 ° 2 min 260 W/m² -1,4 °C -3,5 °C 16,1 km/h (3 Bft)
14.02.2025 11:56 22,4 °C 0,8 °C 45 % 86 % 1026,2 hPa 0,0 l/m² 9,4 km/h (2 Bft) N-NW 337 ° 2 min 248 W/m² -1,3 °C -2,1 °C 16,1 km/h (3 Bft)
14.02.2025 11:58 22,4 °C 0,8 °C 45 % 86 % 1026,3 hPa 0,0 l/m² 10,8 km/h (2 Bft) N 360 ° 2 min 239 W/m² -1,3 °C -3,2 °C 16,1 km/h (3 Bft)
14.02.2025 12:00 22,4 °C 0,8 °C 45 % 86 % 1026,2 hPa 0,0 l/m² 12,8 km/h (3 Bft) N-NW 341 ° 2 min 244 W/m² -1,3 °C -4,6 °C 19,3 km/h (3 Bft)
14.02.2025 12:01 22,5 °C 0,8 °C 45 % 86 % 1026,3 hPa 0,0 l/m² 10,6 km/h (2 Bft) N-NW 338 ° 1 min 244 W/m² -1,3 °C -3,0 °C 16,1 km/h (3 Bft)
14.02.2025 12:02 22,5 °C 0,8 °C 45 % 86 % 1026,3 hPa 0,0 l/m² 11,4 km/h (2 Bft) N-NW 335 ° 1 min 243 W/m² -1,3 °C -3,6 °C 17,7 km/h (3 Bft)
14.02.2025 12:05 22,4 °C 0,8 °C 45 % 86 % 1026,3 hPa 0,0 l/m² 13,5 km/h (3 Bft) W-NW 303 ° 3 min 241 W/m² -1,3 °C -5,1 °C 19,3 km/h (3 Bft)
14.02.2025 12:07 22,4 °C 0,8 °C 45 % 86 % 1026,3 hPa 0,0 l/m² 10,3 km/h (2 Bft) N-NW 333 ° 2 min 243 W/m² -1,3 °C -2,8 °C 16,1 km/h (3 Bft)
14.02.2025 12:09 22,4 °C 0,8 °C 45 % 86 % 1026,3 hPa 0,0 l/m² 7,2 km/h (2 Bft) W-NW 297 ° 2 min 248 W/m² -1,3 °C -0,0 °C 12,9 km/h (3 Bft)
14.02.2025 12:11 22,4 °C 0,8 °C 45 % 86 % 1026,2 hPa 0,0 l/m² 10,5 km/h (2 Bft) NW 308 ° 2 min 244 W/m² -1,3 °C -3,0 °C 17,7 km/h (3 Bft)
14.02.2025 12:12 22,4 °C 0,8 °C 45 % 86 % 1026,2 hPa 0,0 l/m² 10,0 km/h (2 Bft) NW 309 ° 1 min 246 W/m² -1,3 °C -2,6 °C 14,5 km/h (3 Bft)
14.02.2025 12:13 22,4 °C 0,8 °C 45 % 86 % 1026,2 hPa 0,0 l/m² 11,9 km/h (2 Bft) N-NW 344 ° 1 min 250 W/m² -1,3 °C -4,0 °C 16,1 km/h (3 Bft)
14.02.2025 12:15 22,4 °C 0,8 °C 45 % 86 % 1026,1 hPa 0,0 l/m² 13,0 km/h (3 Bft) NW 324 ° 2 min 265 W/m² -1,3 °C -4,8 °C 17,7 km/h (3 Bft)
14.02.2025 12:17 22,4 °C 0,8 °C 45 % 86 % 1026,1 hPa 0,0 l/m² 11,9 km/h (2 Bft) NW 319 ° 2 min 278 W/m² -1,3 °C -4,0 °C 20,9 km/h (4 Bft)
14.02.2025 12:18 22,4 °C 0,8 °C 45 % 86 % 1026,1 hPa 0,0 l/m² 9,9 km/h (2 Bft) N-NW 332 ° 1 min 276 W/m² -1,3 °C -2,5 °C 17,7 km/h (3 Bft)
14.02.2025 12:19 22,4 °C 0,8 °C 45 % 86 % 1026,1 hPa 0,0 l/m² 9,6 km/h (2 Bft) N-NW 337 ° 1 min 279 W/m² -1,3 °C -2,2 °C 16,1 km/h (3 Bft)
14.02.2025 12:21 22,4 °C 0,8 °C 45 % 86 % 1026,0 hPa 0,0 l/m² 12,1 km/h (2 Bft) NW 313 ° 2 min 276 W/m² -1,3 °C -4,2 °C 17,7 km/h (3 Bft)
14.02.2025 12:22 22,4 °C 0,8 °C 45 % 86 % 1026,0 hPa 0,0 l/m² 12,7 km/h (3 Bft) NW 319 ° 1 min 269 W/m² -1,3 °C -4,6 °C 16,1 km/h (3 Bft)
14.02.2025 12:23 22,4 °C 0,8 °C 45 % 86 % 1026,0 hPa 0,0 l/m² 12,2 km/h (2 Bft) NW 316 ° 1 min 262 W/m² -1,3 °C -4,2 °C 20,9 km/h (4 Bft)
14.02.2025 12:24 22,5 °C 0,8 °C 45 % 86 % 1026,2 hPa 0,0 l/m² 9,1 km/h (2 Bft) NW 305 ° 1 min 267 W/m² -1,3 °C -1,8 °C 14,5 km/h (3 Bft)
14.02.2025 12:25 22,5 °C 0,8 °C 45 % 86 % 1026,0 hPa 0,0 l/m² 11,3 km/h (2 Bft) N-NW 331 ° 1 min 276 W/m² -1,3 °C -3,6 °C 16,1 km/h (3 Bft)
14.02.2025 12:26 22,5 °C 0,8 °C 45 % 86 % 1026,1 hPa 0,0 l/m² 10,5 km/h (2 Bft) W-NW 297 ° 1 min 281 W/m² -1,3 °C -3,0 °C 14,5 km/h (3 Bft)
14.02.2025 12:27 22,4 °C 0,8 °C 45 % 86 % 1026,1 hPa 0,0 l/m² 11,2 km/h (2 Bft) NW 320 ° 1 min 279 W/m² -1,3 °C -3,5 °C 16,1 km/h (3 Bft)
14.02.2025 12:28 22,4 °C 0,9 °C 45 % 86 % 1026,1 hPa 0,0 l/m² 9,9 km/h (2 Bft) W-NW 300 ° 1 min 276 W/m² -1,2 °C -2,4 °C 14,5 km/h (3 Bft)
14.02.2025 12:29 22,5 °C 0,9 °C 45 % 87 % 1026,1 hPa 0,0 l/m² 10,2 km/h (2 Bft) W-NW 301 ° 1 min 271 W/m² -1,0 °C -2,6 °C 14,5 km/h (3 Bft)
14.02.2025 12:30 22,5 °C 0,9 °C 45 % 87 % 1026,2 hPa 0,0 l/m² 8,1 km/h (2 Bft) NW 323 ° 1 min 272 W/m² -1,0 °C -0,8 °C 12,9 km/h (3 Bft)
14.02.2025 12:31 22,5 °C 1,0 °C 45 % 87 % 1026,2 hPa 0,0 l/m² 12,2 km/h (2 Bft) N-NW 347 ° 1 min 272 W/m² -0,9 °C -4,0 °C 16,1 km/h (3 Bft)
14.02.2025 12:32 22,5 °C 1,0 °C 45 % 87 % 1026,2 hPa 0,0 l/m² 13,9 km/h (3 Bft) N-NW 347 ° 1 min 272 W/m² -0,9 °C -5,1 °C 19,3 km/h (3 Bft)
14.02.2025 12:33 22,5 °C 1,0 °C 45 % 86 % 1026,2 hPa 0,0 l/m² 12,2 km/h (2 Bft) N-NW 336 ° 1 min 271 W/m² -1,1 °C -4,0 °C 16,1 km/h (3 Bft)
14.02.2025 12:34 22,5 °C 1,0 °C 45 % 86 % 1026,2 hPa 0,0 l/m² 9,7 km/h (2 Bft) N-NW 327 ° 1 min 272 W/m² -1,1 °C -2,1 °C 12,9 km/h (3 Bft)
14.02.2025 12:35 22,5 °C 1,0 °C 45 % 86 % 1026,3 hPa 0,0 l/m² 6,4 km/h (2 Bft) NW 318 ° 1 min 269 W/m² -1,1 °C 1,0 °C 11,3 km/h (2 Bft)
14.02.2025 12:36 22,5 °C 1,1 °C 45 % 87 % 1026,2 hPa 0,0 l/m² 9,4 km/h (2 Bft) W 271 ° 1 min 265 W/m² -0,8 °C -1,7 °C 14,5 km/h (3 Bft)
14.02.2025 12:37 22,5 °C 1,1 °C 45 % 86 % 1026,2 hPa 0,0 l/m² 13,3 km/h (3 Bft) W-NW 303 ° 1 min 262 W/m² -1,0 °C -4,6 °C 16,1 km/h (3 Bft)
14.02.2025 12:38 22,5 °C 1,0 °C 45 % 86 % 1026,2 hPa 0,0 l/m² 15,7 km/h (3 Bft) N-NW 331 ° 1 min 260 W/m² -1,1 °C -6,2 °C 22,5 km/h (4 Bft)
14.02.2025 12:39 22,5 °C 1,0 °C 45 % 86 % 1026,2 hPa 0,0 l/m² 11,9 km/h (2 Bft) W-NW 302 ° 1 min 260 W/m² -1,1 °C -3,8 °C 14,5 km/h (3 Bft)
14.02.2025 12:41 22,5 °C 1,0 °C 45 % 86 % 1026,2 hPa 0,0 l/m² 10,1 km/h (2 Bft) NW 315 ° 2 min 257 W/m² -1,1 °C -2,4 °C 16,1 km/h (3 Bft)
14.02.2025 12:43 22,5 °C 1,0 °C 45 % 86 % 1026,2 hPa 0,0 l/m² 12,4 km/h (2 Bft) NW 308 ° 2 min 258 W/m² -1,1 °C -4,1 °C 17,7 km/h (3 Bft)
14.02.2025 12:44 22,5 °C 1,0 °C 45 % 87 % 1026,3 hPa 0,0 l/m² 6,6 km/h (2 Bft) N-NW 328 ° 1 min 262 W/m² -0,9 °C 0,8 °C 14,5 km/h (3 Bft)
14.02.2025 12:46 22,6 °C 1,1 °C 45 % 86 % 1026,4 hPa 0,0 l/m² 10,8 km/h (2 Bft) NW 311 ° 2 min 265 W/m² -1,0 °C -2,9 °C 17,7 km/h (3 Bft)
14.02.2025 12:47 22,6 °C 1,0 °C 45 % 86 % 1026,3 hPa 0,0 l/m² 9,0 km/h (2 Bft) NW 321 ° 1 min 264 W/m² -1,1 °C -1,5 °C 16,1 km/h (3 Bft)
14.02.2025 12:48 22,6 °C 1,0 °C 45 % 87 % 1026,4 hPa 0,0 l/m² 6,5 km/h (2 Bft) N-NW 329 ° 1 min 262 W/m² -0,9 °C 0,9 °C 9,7 km/h (2 Bft)
14.02.2025 12:49 22,6 °C 1,1 °C 45 % 86 % 1026,3 hPa 0,0 l/m² 8,4 km/h (2 Bft) N-NW 342 ° 1 min 262 W/m² -1,0 °C -0,9 °C 12,9 km/h (3 Bft)
14.02.2025 12:51 22,6 °C 1,1 °C 45 % 87 % 1026,3 hPa 0,2 l/m² 7,4 km/h (2 Bft) N-NW 336 ° 2 min 267 W/m² -0,8 °C 0,1 °C 12,9 km/h (3 Bft)
14.02.2025 12:53 22,6 °C 1,1 °C 45 % 87 % 1026,2 hPa 0,2 l/m² 10,9 km/h (2 Bft) NW 320 ° 2 min 269 W/m² -0,8 °C -2,9 °C 17,7 km/h (3 Bft)
14.02.2025 12:54 22,5 °C 1,1 °C 45 % 87 % 1026,2 hPa 0,0 l/m² 11,8 km/h (2 Bft) N-NW 327 ° 1 min 265 W/m² -0,8 °C -3,6 °C 17,7 km/h (3 Bft)
14.02.2025 12:55 22,6 °C 1,1 °C 45 % 87 % 1026,3 hPa 0,0 l/m² 10,7 km/h (2 Bft) NW 318 ° 1 min 264 W/m² -0,8 °C -2,8 °C 16,1 km/h (3 Bft)
14.02.2025 12:56 22,6 °C 1,1 °C 45 % 87 % 1026,2 hPa 0,0 l/m² 9,7 km/h (2 Bft) W-NW 302 ° 1 min 264 W/m² -0,8 °C -2,0 °C 14,5 km/h (3 Bft)
14.02.2025 12:57 22,6 °C 1,1 °C 45 % 87 % 1026,2 hPa 0,2 l/m² 11,3 km/h (2 Bft) NW 314 ° 1 min 267 W/m² -0,8 °C -3,2 °C 17,7 km/h (3 Bft)
14.02.2025 12:58 22,6 °C 1,1 °C 45 % 86 % 1026,2 hPa 0,0 l/m² 10,5 km/h (2 Bft) N-NW 332 ° 1 min 276 W/m² -1,0 °C -2,6 °C 14,5 km/h (3 Bft)
14.02.2025 12:59 22,6 °C 1,1 °C 45 % 87 % 1026,3 hPa 0,0 l/m² 11,4 km/h (2 Bft) N-NW 342 ° 1 min 278 W/m² -0,8 °C -3,3 °C 16,1 km/h (3 Bft)
14.02.2025 13:00 22,6 °C 1,1 °C 45 % 87 % 1026,2 hPa 0,0 l/m² 9,7 km/h (2 Bft) N 351 ° 1 min 274 W/m² -0,8 °C -2,0 °C 17,7 km/h (3 Bft)
14.02.2025 13:02 22,6 °C 1,2 °C 45 % 87 % 1026,2 hPa 0,0 l/m² 9,9 km/h (2 Bft) W 274 ° 2 min 264 W/m² -0,7 °C -2,0 °C 20,9 km/h (4 Bft)
14.02.2025 13:04 22,6 °C 1,2 °C 45 % 86 % 1026,4 hPa 0,2 l/m² 11,0 km/h (2 Bft) W-NW 302 ° 2 min 253 W/m² -0,9 °C -2,9 °C 19,3 km/h (3 Bft)
14.02.2025 13:05 22,6 °C 1,2 °C 45 % 87 % 1026,3 hPa 0,0 l/m² 10,6 km/h (2 Bft) N 355 ° 1 min 251 W/m² -0,7 °C -2,6 °C 20,9 km/h (4 Bft)
14.02.2025 13:06 22,6 °C 1,2 °C 45 % 87 % 1026,3 hPa 0,0 l/m² 13,9 km/h (3 Bft) N-NW 327 ° 1 min 248 W/m² -0,7 °C -4,9 °C 22,5 km/h (4 Bft)
14.02.2025 13:07 22,6 °C 1,1 °C 45 % 87 % 1026,3 hPa 0,0 l/m² 16,9 km/h (3 Bft) NW 318 ° 1 min 244 W/m² -0,8 °C -6,7 °C 24,1 km/h (4 Bft)
14.02.2025 13:08 22,6 °C 1,1 °C 45 % 87 % 1026,4 hPa 0,0 l/m² 12,8 km/h (3 Bft) N-NW 327 ° 1 min 241 W/m² -0,8 °C -4,3 °C 22,5 km/h (4 Bft)
14.02.2025 13:09 22,6 °C 1,1 °C 45 % 86 % 1026,3 hPa 0,0 l/m² 15,8 km/h (3 Bft) N-NW 329 ° 1 min 241 W/m² -1,0 °C -6,1 °C 24,1 km/h (4 Bft)
14.02.2025 13:10 22,6 °C 1,1 °C 45 % 86 % 1026,4 hPa 0,2 l/m² 14,3 km/h (3 Bft) N-NW 329 ° 1 min 244 W/m² -1,0 °C -5,2 °C 19,3 km/h (3 Bft)
14.02.2025 13:12 22,6 °C 1,1 °C 45 % 87 % 1026,4 hPa 0,0 l/m² 14,7 km/h (3 Bft) NW 323 ° 2 min 244 W/m² -0,8 °C -5,5 °C 20,9 km/h (4 Bft)
14.02.2025 13:14 22,6 °C 1,1 °C 45 % 87 % 1026,4 hPa 0,0 l/m² 13,7 km/h (3 Bft) N-NW 333 ° 2 min 241 W/m² -0,8 °C -4,9 °C 20,9 km/h (4 Bft)
14.02.2025 13:15 22,6 °C 1,0 °C 45 % 87 % 1026,5 hPa 0,0 l/m² 13,9 km/h (3 Bft) N-NW 327 ° 1 min 237 W/m² -0,9 °C -5,1 °C 19,3 km/h (3 Bft)
14.02.2025 13:16 22,6 °C 1,1 °C 45 % 87 % 1026,5 hPa 0,0 l/m² 15,8 km/h (3 Bft) N-NW 331 ° 1 min 234 W/m² -0,8 °C -6,1 °C 20,9 km/h (4 Bft)
14.02.2025 13:17 22,6 °C 1,1 °C 45 % 87 % 1026,4 hPa 0,0 l/m² 14,8 km/h (3 Bft) N 355 ° 1 min 232 W/m² -0,8 °C -5,5 °C 22,5 km/h (4 Bft)
14.02.2025 13:18 22,6 °C 1,0 °C 45 % 87 % 1026,4 hPa 0,2 l/m² 16,3 km/h (3 Bft) NW 313 ° 1 min 229 W/m² -0,9 °C -6,5 °C 20,9 km/h (4 Bft)
14.02.2025 13:19 22,6 °C 1,0 °C 45 % 87 % 1026,4 hPa 0,0 l/m² 15,8 km/h (3 Bft) N 355 ° 1 min 225 W/m² -0,9 °C -6,2 °C 20,9 km/h (4 Bft)
14.02.2025 13:20 22,6 °C 1,0 °C 45 % 87 % 1026,4 hPa 0,0 l/m² 15,1 km/h (3 Bft) N-NW 335 ° 1 min 218 W/m² -0,9 °C -5,8 °C 24,1 km/h (4 Bft)
14.02.2025 13:22 22,6 °C 1,0 °C 45 % 87 % 1026,5 hPa 0,0 l/m² 11,3 km/h (2 Bft) N-NW 330 ° 2 min 206 W/m² -0,9 °C -3,3 °C 19,3 km/h (3 Bft)
14.02.2025 13:24 22,6 °C 1,1 °C 45 % 87 % 1026,5 hPa 0,0 l/m² 10,2 km/h (2 Bft) N-NW 340 ° 2 min 200 W/m² -0,8 °C -2,4 °C 16,1 km/h (3 Bft)
14.02.2025 13:25 22,6 °C 1,1 °C 45 % 87 % 1026,5 hPa 0,0 l/m² 9,3 km/h (2 Bft) N-NO 22 ° 1 min 188 W/m² -0,8 °C -1,7 °C 16,1 km/h (3 Bft)
14.02.2025 13:26 22,6 °C 1,1 °C 45 % 87 % 1026,5 hPa 0,0 l/m² 11,7 km/h (2 Bft) N 360 ° 1 min 172 W/m² -0,8 °C -3,5 °C 17,7 km/h (3 Bft)
14.02.2025 13:27 22,6 °C 1,1 °C 45 % 87 % 1026,5 hPa 0,0 l/m² 11,5 km/h (2 Bft) N 349 ° 1 min 163 W/m² -0,8 °C -3,4 °C 16,1 km/h (3 Bft)
14.02.2025 13:28 22,6 °C 1,1 °C 45 % 87 % 1026,6 hPa 0,2 l/m² 12,8 km/h (3 Bft) N-NW 342 ° 1 min 155 W/m² -0,8 °C -4,3 °C 16,1 km/h (3 Bft)
14.02.2025 13:29 22,6 °C 1,1 °C 45 % 87 % 1026,4 hPa 0,0 l/m² 11,1 km/h (2 Bft) N-NW 342 ° 1 min 156 W/m² -0,8 °C -3,1 °C 14,5 km/h (3 Bft)
14.02.2025 13:30 22,6 °C 1,1 °C 45 % 87 % 1026,5 hPa 0,0 l/m² 12,6 km/h (3 Bft) N 355 ° 1 min 151 W/m² -0,8 °C -4,1 °C 19,3 km/h (3 Bft)
14.02.2025 13:32 22,6 °C 1,1 °C 45 % 87 % 1026,5 hPa 0,0 l/m² 11,9 km/h (2 Bft) N-NW 344 ° 2 min 120 W/m² -0,8 °C -3,7 °C 17,7 km/h (3 Bft)
14.02.2025 13:34 22,6 °C 1,1 °C 45 % 87 % 1026,5 hPa 0,0 l/m² 9,8 km/h (2 Bft) N-NO 18 ° 2 min 116 W/m² -0,8 °C -2,1 °C 17,7 km/h (3 Bft)
14.02.2025 13:35 22,6 °C 1,1 °C 45 % 87 % 1026,5 hPa 0,0 l/m² 10,8 km/h (2 Bft) N 355 ° 1 min 123 W/m² -0,8 °C -2,9 °C 17,7 km/h (3 Bft)
14.02.2025 13:36 22,6 °C 1,0 °C 45 % 87 % 1026,5 hPa 0,0 l/m² 6,9 km/h (2 Bft) N-NW 342 ° 1 min 141 W/m² -0,9 °C 0,5 °C 9,7 km/h (2 Bft)
14.02.2025 13:37 22,6 °C 1,0 °C 45 % 87 % 1026,4 hPa 0,0 l/m² 7,8 km/h (2 Bft) N-NW 336 ° 1 min 163 W/m² -0,9 °C -0,4 °C 12,9 km/h (3 Bft)
14.02.2025 13:38 22,6 °C 1,0 °C 45 % 87 % 1026,4 hPa 0,0 l/m² 12,0 km/h (2 Bft) N 350 ° 1 min 171 W/m² -0,9 °C -3,8 °C 16,1 km/h (3 Bft)
14.02.2025 13:39 22,6 °C 1,0 °C 45 % 87 % 1026,4 hPa 0,0 l/m² 11,9 km/h (2 Bft) N 355 ° 1 min 160 W/m² -0,9 °C -3,8 °C 19,3 km/h (3 Bft)
14.02.2025 13:40 22,6 °C 1,0 °C 45 % 87 % 1026,4 hPa 0,0 l/m² 9,2 km/h (2 Bft) N-NW 340 ° 1 min 167 W/m² -0,9 °C -1,7 °C 12,9 km/h (3 Bft)
14.02.2025 13:42 22,6 °C 1,0 °C 45 % 87 % 1026,4 hPa 0,0 l/m² 8,9 km/h (2 Bft) N 5 ° 2 min 151 W/m² -0,9 °C -1,4 °C 17,7 km/h (3 Bft)
14.02.2025 13:44 22,6 °C 1,0 °C 45 % 87 % 1026,5 hPa 0,0 l/m² 7,6 km/h (2 Bft) N 5 ° 2 min 135 W/m² -0,9 °C -0,2 °C 16,1 km/h (3 Bft)
14.02.2025 13:45 22,6 °C 1,1 °C 45 % 88 % 1026,5 hPa 0,2 l/m² 13,3 km/h (3 Bft) N-NW 335 ° 1 min 141 W/m² -0,7 °C -4,6 °C 17,7 km/h (3 Bft)
14.02.2025 13:46 22,6 °C 1,0 °C 45 % 87 % 1026,4 hPa 0,0 l/m² 10,9 km/h (2 Bft) N 355 ° 1 min 142 W/m² -0,9 °C -3,0 °C 14,5 km/h (3 Bft)
14.02.2025 13:47 22,6 °C 1,0 °C 45 % 87 % 1026,4 hPa 0,0 l/m² 7,0 km/h (2 Bft) N-NW 342 ° 1 min 142 W/m² -0,9 °C 0,4 °C 12,9 km/h (3 Bft)
14.02.2025 13:48 22,6 °C 1,0 °C 45 % 87 % 1026,5 hPa 0,0 l/m² 10,5 km/h (2 Bft) N-NW 345 ° 1 min 139 W/m² -0,9 °C -2,7 °C 14,5 km/h (3 Bft)
14.02.2025 13:49 22,6 °C 1,0 °C 45 % 87 % 1026,4 hPa 0,0 l/m² 11,9 km/h (2 Bft) NO 34 ° 1 min 134 W/m² -0,9 °C -3,8 °C 17,7 km/h (3 Bft)
14.02.2025 13:50 22,5 °C 1,0 °C 45 % 87 % 1026,5 hPa 0,0 l/m² 11,4 km/h (2 Bft) NW 311 ° 1 min 142 W/m² -0,9 °C -3,4 °C 16,1 km/h (3 Bft)
14.02.2025 13:52 22,6 °C 0,9 °C 45 % 87 % 1026,5 hPa 0,0 l/m² 11,4 km/h (2 Bft) N-NW 348 ° 2 min 163 W/m² -1,0 °C -3,5 °C 17,7 km/h (3 Bft)
14.02.2025 13:54 22,5 °C 0,9 °C 45 % 87 % 1026,5 hPa 0,0 l/m² 10,1 km/h (2 Bft) N-NW 344 ° 2 min 169 W/m² -1,0 °C -2,5 °C 14,5 km/h (3 Bft)
14.02.2025 13:55 22,6 °C 0,9 °C 45 % 87 % 1026,5 hPa 0,0 l/m² 7,8 km/h (2 Bft) NW 321 ° 1 min 160 W/m² -1,0 °C -0,5 °C 12,9 km/h (3 Bft)
14.02.2025 13:56 22,6 °C 1,0 °C 45 % 87 % 1026,5 hPa 0,0 l/m² 7,6 km/h (2 Bft) N 9 ° 1 min 156 W/m² -0,9 °C -0,2 °C 12,9 km/h (3 Bft)
14.02.2025 13:57 22,6 °C 1,0 °C 45 % 88 % 1026,5 hPa 0,0 l/m² 9,6 km/h (2 Bft) N 355 ° 1 min 178 W/m² -0,8 °C -2,0 °C 14,5 km/h (3 Bft)
14.02.2025 13:58 22,6 °C 1,0 °C 45 % 88 % 1026,5 hPa 0,0 l/m² 6,3 km/h (2 Bft) N-NW 327 ° 1 min 188 W/m² -0,8 °C 1,0 °C 8,0 km/h (2 Bft)
14.02.2025 13:59 22,6 °C 1,0 °C 45 % 88 % 1026,5 hPa 0,0 l/m² 5,2 km/h (1 Bft) NW 309 ° 1 min 190 W/m² -0,8 °C 1,0 °C 11,3 km/h (2 Bft)
14.02.2025 14:00 22,6 °C 1,1 °C 45 % 88 % 1026,4 hPa 0,0 l/m² 10,8 km/h (2 Bft) N-NW 334 ° 1 min 190 W/m² -0,7 °C -2,9 °C 16,1 km/h (3 Bft)
14.02.2025 14:02 22,6 °C 1,0 °C 45 % 88 % 1026,4 hPa 0,0 l/m² 9,6 km/h (2 Bft) N-NW 335 ° 2 min 190 W/m² -0,8 °C -2,0 °C 12,9 km/h (3 Bft)
14.02.2025 14:04 22,6 °C 1,1 °C 45 % 88 % 1026,4 hPa 0,0 l/m² 6,6 km/h (2 Bft) NW 317 ° 2 min 185 W/m² -0,7 °C 0,9 °C 12,9 km/h (3 Bft)
14.02.2025 14:05 22,6 °C 1,1 °C 45 % 88 % 1026,4 hPa 0,2 l/m² 9,9 km/h (2 Bft) N-NW 343 ° 1 min 183 W/m² -0,7 °C -2,2 °C 14,5 km/h (3 Bft)
14.02.2025 14:06 22,6 °C 1,1 °C 45 % 88 % 1026,4 hPa 0,0 l/m² 7,9 km/h (2 Bft) N-NW 347 ° 1 min 181 W/m² -0,7 °C -0,4 °C 17,7 km/h (3 Bft)
14.02.2025 14:07 22,6 °C 1,1 °C 45 % 87 % 1026,4 hPa 0,0 l/m² 11,1 km/h (2 Bft) N-NW 344 ° 1 min 181 W/m² -0,8 °C -3,1 °C 16,1 km/h (3 Bft)
14.02.2025 14:08 22,6 °C 1,1 °C 45 % 87 % 1026,3 hPa 0,0 l/m² 7,6 km/h (2 Bft) N-NW 340 ° 1 min 183 W/m² -0,8 °C -0,1 °C 12,9 km/h (3 Bft)
14.02.2025 14:09 22,6 °C 1,1 °C 45 % 87 % 1026,4 hPa 0,0 l/m² 12,3 km/h (2 Bft) NW 324 ° 1 min 183 W/m² -0,8 °C -3,9 °C 17,7 km/h (3 Bft)
14.02.2025 14:10 22,6 °C 1,1 °C 45 % 88 % 1026,4 hPa 0,0 l/m² 8,2 km/h (2 Bft) NW 323 ° 1 min 179 W/m² -0,7 °C -0,7 °C 12,9 km/h (3 Bft)
14.02.2025 14:12 22,6 °C 1,1 °C 45 % 88 % 1026,4 hPa 0,0 l/m² 7,4 km/h (2 Bft) N-NW 329 ° 2 min 174 W/m² -0,7 °C 0,1 °C 16,1 km/h (3 Bft)
14.02.2025 14:14 22,6 °C 1,1 °C 45 % 88 % 1026,5 hPa 0,0 l/m² 8,3 km/h (2 Bft) N-NW 346 ° 2 min 171 W/m² -0,7 °C -0,8 °C 14,5 km/h (3 Bft)
14.02.2025 14:15 22,6 °C 1,1 °C 45 % 88 % 1026,4 hPa 0,0 l/m² 7,5 km/h (2 Bft) NW 317 ° 1 min 171 W/m² -0,7 °C -0,0 °C 12,9 km/h (3 Bft)
14.02.2025 14:16 22,6 °C 1,1 °C 45 % 88 % 1026,4 hPa 0,0 l/m² 6,8 km/h (2 Bft) N 355 ° 1 min 169 W/m² -0,7 °C 0,7 °C 9,7 km/h (2 Bft)
14.02.2025 14:17 22,6 °C 1,1 °C 45 % 88 % 1026,4 hPa 0,0 l/m² 5,0 km/h (1 Bft) N 355 ° 1 min 171 W/m² -0,7 °C 1,1 °C 6,4 km/h (2 Bft)
14.02.2025 14:18 22,6 °C 1,1 °C 45 % 88 % 1026,4 hPa 0,0 l/m² 5,9 km/h (2 Bft) N-NW 336 ° 1 min 171 W/m² -0,7 °C 1,1 °C 9,7 km/h (2 Bft)
14.02.2025 14:19 22,6 °C 1,2 °C 45 % 88 % 1026,4 hPa 0,0 l/m² 12,8 km/h (3 Bft) N-NW 338 ° 1 min 171 W/m² -0,6 °C -4,2 °C 16,1 km/h (3 Bft)
14.02.2025 14:20 22,6 °C 1,1 °C 45 % 88 % 1026,4 hPa 0,0 l/m² 10,9 km/h (2 Bft) N-NW 328 ° 1 min 167 W/m² -0,7 °C -2,9 °C 14,5 km/h (3 Bft)
14.02.2025 14:22 22,6 °C 1,1 °C 45 % 88 % 1026,4 hPa 0,0 l/m² 9,2 km/h (2 Bft) NW 311 ° 2 min 163 W/m² -0,7 °C -1,6 °C 16,1 km/h (3 Bft)
14.02.2025 14:24 22,6 °C 1,1 °C 45 % 88 % 1026,4 hPa 0,0 l/m² 9,5 km/h (2 Bft) W-NW 300 ° 2 min 162 W/m² -0,7 °C -1,8 °C 14,5 km/h (3 Bft)
14.02.2025 14:25 22,6 °C 1,1 °C 45 % 88 % 1026,4 hPa 0,2 l/m² 10,0 km/h (2 Bft) N-NW 346 ° 1 min 162 W/m² -0,7 °C -2,2 °C 14,5 km/h (3 Bft)
14.02.2025 14:26 22,5 °C 1,1 °C 45 % 88 % 1026,4 hPa 0,0 l/m² 9,5 km/h (2 Bft) N-NW 336 ° 1 min 165 W/m² -0,7 °C -1,8 °C 14,5 km/h (3 Bft)
14.02.2025 14:27 22,6 °C 1,1 °C 45 % 88 % 1026,4 hPa 0,0 l/m² 9,9 km/h (2 Bft) N-NW 332 ° 1 min 165 W/m² -0,7 °C -2,2 °C 16,1 km/h (3 Bft)
14.02.2025 14:28 22,6 °C 1,1 °C 45 % 88 % 1026,4 hPa 0,0 l/m² 13,5 km/h (3 Bft) N-NW 337 ° 1 min 163 W/m² -0,7 °C -4,7 °C 16,1 km/h (3 Bft)
14.02.2025 14:29 22,6 °C 1,1 °C 45 % 87 % 1026,4 hPa 0,0 l/m² 12,5 km/h (2 Bft) N-NW 329 ° 1 min 162 W/m² -0,8 °C -4,1 °C 17,7 km/h (3 Bft)
14.02.2025 14:30 22,6 °C 1,1 °C 45 % 87 % 1026,5 hPa 0,0 l/m² 9,4 km/h (2 Bft) N-NW 333 ° 1 min 158 W/m² -0,8 °C -1,7 °C 12,9 km/h (3 Bft)
14.02.2025 14:32 22,6 °C 1,1 °C 45 % 88 % 1026,5 hPa 0,0 l/m² 4,5 km/h (1 Bft) N-NW 346 ° 2 min 162 W/m² -0,7 °C 1,1 °C 9,7 km/h (2 Bft)
14.02.2025 14:34 22,5 °C 1,1 °C 45 % 88 % 1026,4 hPa 0,0 l/m² 7,2 km/h (2 Bft) N 351 ° 2 min 163 W/m² -0,7 °C 0,3 °C 12,9 km/h (3 Bft)
14.02.2025 14:35 22,6 °C 1,2 °C 45 % 88 % 1026,5 hPa 0,0 l/m² 4,8 km/h (1 Bft) W-NW 293 ° 1 min 163 W/m² -0,6 °C 1,2 °C 9,7 km/h (2 Bft)
14.02.2025 14:36 22,5 °C 1,2 °C 45 % 88 % 1026,4 hPa 0,0 l/m² 4,9 km/h (1 Bft) NW 325 ° 1 min 163 W/m² -0,6 °C 1,2 °C 8,0 km/h (2 Bft)
14.02.2025 14:37 22,6 °C 1,2 °C 45 % 88 % 1026,4 hPa 0,0 l/m² 6,6 km/h (2 Bft) NW 305 ° 1 min 165 W/m² -0,6 °C 1,0 °C 9,7 km/h (2 Bft)
14.02.2025 14:38 22,6 °C 1,2 °C 45 % 88 % 1026,4 hPa 0,0 l/m² 6,4 km/h (2 Bft) N-NW 336 ° 1 min 172 W/m² -0,6 °C 1,2 °C 9,7 km/h (2 Bft)
14.02.2025 14:39 22,6 °C 1,2 °C 45 % 88 % 1026,5 hPa 0,0 l/m² 7,7 km/h (2 Bft) N-NW 334 ° 1 min 176 W/m² -0,6 °C -0,1 °C 12,9 km/h (3 Bft)
14.02.2025 14:40 22,6 °C 1,2 °C 45 % 88 % 1026,4 hPa 0,0 l/m² 9,9 km/h (2 Bft) NW 308 ° 1 min 174 W/m² -0,6 °C -2,0 °C 14,5 km/h (3 Bft)
14.02.2025 14:42 22,6 °C 1,2 °C 45 % 87 % 1026,5 hPa 0,0 l/m² 8,6 km/h (2 Bft) NW 325 ° 2 min 167 W/m² -0,7 °C -0,9 °C 14,5 km/h (3 Bft)
14.02.2025 14:43 22,5 °C 1,2 °C 45 % 87 % 1026,4 hPa 0,0 l/m² 11,9 km/h (2 Bft) N-NW 348 ° 1 min 162 W/m² -0,7 °C -3,5 °C 16,1 km/h (3 Bft)
14.02.2025 14:44 22,5 °C 1,2 °C 45 % 87 % 1026,5 hPa 0,0 l/m² 8,3 km/h (2 Bft) N-NW 336 ° 1 min 149 W/m² -0,7 °C -0,7 °C 14,5 km/h (3 Bft)
14.02.2025 14:45 22,5 °C 1,2 °C 45 % 87 % 1026,5 hPa 0,0 l/m² 5,8 km/h (2 Bft) NW 320 ° 1 min 146 W/m² -0,7 °C 1,2 °C 8,0 km/h (2 Bft)
14.02.2025 14:46 22,5 °C 1,2 °C 45 % 87 % 1026,5 hPa 0,0 l/m² 10,3 km/h (2 Bft) N-NW 327 ° 1 min 142 W/m² -0,7 °C -2,4 °C 16,1 km/h (3 Bft)
14.02.2025 14:47 22,5 °C 1,2 °C 45 % 87 % 1026,5 hPa 0,0 l/m² 11,9 km/h (2 Bft) NW 325 ° 1 min 141 W/m² -0,7 °C -3,5 °C 16,1 km/h (3 Bft)
14.02.2025 14:48 22,5 °C 1,2 °C 45 % 87 % 1026,5 hPa 0,0 l/m² 9,1 km/h (2 Bft) NW 309 ° 1 min 141 W/m² -0,7 °C -1,4 °C 12,9 km/h (3 Bft)
14.02.2025 14:49 22,5 °C 1,2 °C 45 % 87 % 1026,5 hPa 0,0 l/m² 9,4 km/h (2 Bft) NW 323 ° 1 min 141 W/m² -0,7 °C -1,6 °C 14,5 km/h (3 Bft)
14.02.2025 14:51 22,5 °C 1,2 °C 45 % 87 % 1026,6 hPa 0,2 l/m² 9,0 km/h (2 Bft) N-NW 346 ° 2 min 139 W/m² -0,7 °C -1,3 °C 14,5 km/h (3 Bft)
14.02.2025 14:53 22,5 °C 1,2 °C 45 % 87 % 1026,4 hPa 0,0 l/m² 9,6 km/h (2 Bft) N-NW 334 ° 2 min 137 W/m² -0,7 °C -1,8 °C 16,1 km/h (3 Bft)
14.02.2025 14:54 22,4 °C 1,2 °C 45 % 87 % 1026,5 hPa 0,0 l/m² 7,5 km/h (2 Bft) W-NW 303 ° 1 min 137 W/m² -0,7 °C 0,1 °C 14,5 km/h (3 Bft)
14.02.2025 14:55 22,5 °C 1,1 °C 45 % 87 % 1026,3 hPa 0,0 l/m² 9,2 km/h (2 Bft) N-NW 338 ° 1 min 135 W/m² -0,8 °C -1,6 °C 12,9 km/h (3 Bft)
14.02.2025 14:56 22,5 °C 1,2 °C 45 % 87 % 1026,4 hPa 0,0 l/m² 7,9 km/h (2 Bft) NW 308 ° 1 min 130 W/m² -0,7 °C -0,3 °C 14,5 km/h (3 Bft)
14.02.2025 14:57 22,5 °C 1,2 °C 45 % 87 % 1026,5 hPa 0,0 l/m² 11,2 km/h (2 Bft) NW 314 ° 1 min 130 W/m² -0,7 °C -3,0 °C 12,9 km/h (3 Bft)
14.02.2025 14:58 22,5 °C 1,2 °C 45 % 87 % 1026,5 hPa 0,0 l/m² 5,8 km/h (2 Bft) NW 321 ° 1 min 128 W/m² -0,7 °C 1,2 °C 9,7 km/h (2 Bft)
14.02.2025 14:59 22,5 °C 1,2 °C 45 % 87 % 1026,4 hPa 0,0 l/m² 7,8 km/h (2 Bft) W-NW 296 ° 1 min 128 W/m² -0,7 °C -0,2 °C 14,5 km/h (3 Bft)
14.02.2025 15:01 22,4 °C 1,2 °C 45 % 87 % 1026,5 hPa 0,0 l/m² 7,3 km/h (2 Bft) NW 326 ° 2 min 128 W/m² -0,7 °C 0,3 °C 12,9 km/h (3 Bft)
14.02.2025 15:03 22,4 °C 1,2 °C 45 % 87 % 1026,5 hPa 0,0 l/m² 5,7 km/h (2 Bft) W-NW 302 ° 2 min 125 W/m² -0,7 °C 1,2 °C 9,7 km/h (2 Bft)
14.02.2025 15:04 22,4 °C 1,2 °C 45 % 88 % 1026,5 hPa 0,0 l/m² 11,7 km/h (2 Bft) NW 321 ° 1 min 125 W/m² -0,6 °C -3,4 °C 14,5 km/h (3 Bft)
14.02.2025 15:05 22,4 °C 1,2 °C 45 % 87 % 1026,5 hPa 0,0 l/m² 9,7 km/h (2 Bft) NW 323 ° 1 min 123 W/m² -0,7 °C -1,9 °C 14,5 km/h (3 Bft)
14.02.2025 15:06 22,4 °C 1,2 °C 45 % 87 % 1026,5 hPa 0,0 l/m² 8,2 km/h (2 Bft) NW 304 ° 1 min 120 W/m² -0,7 °C -0,6 °C 14,5 km/h (3 Bft)
14.02.2025 15:07 22,4 °C 1,2 °C 45 % 87 % 1026,6 hPa 0,0 l/m² 8,2 km/h (2 Bft) N-NW 327 ° 1 min 116 W/m² -0,7 °C -0,6 °C 12,9 km/h (3 Bft)
14.02.2025 15:08 22,4 °C 1,2 °C 45 % 87 % 1026,5 hPa 0,0 l/m² 7,2 km/h (2 Bft) W-NW 302 ° 1 min 114 W/m² -0,7 °C 0,4 °C 9,7 km/h (2 Bft)
14.02.2025 15:09 22,4 °C 1,2 °C 45 % 87 % 1026,5 hPa 0,0 l/m² 8,1 km/h (2 Bft) NW 321 ° 1 min 114 W/m² -0,7 °C -0,5 °C 12,9 km/h (3 Bft)
14.02.2025 15:11 22,5 °C 1,2 °C 45 % 87 % 1026,5 hPa 0,0 l/m² 8,7 km/h (2 Bft) N-NW 336 ° 2 min 114 W/m² -0,7 °C -1,0 °C 14,5 km/h (3 Bft)
14.02.2025 15:13 22,4 °C 1,2 °C 45 % 87 % 1026,5 hPa 0,0 l/m² 8,8 km/h (2 Bft) N-NW 344 ° 2 min 114 W/m² -0,7 °C -1,1 °C 14,5 km/h (3 Bft)
14.02.2025 15:14 22,4 °C 1,2 °C 45 % 87 % 1026,6 hPa 0,0 l/m² 9,0 km/h (2 Bft) N-NW 341 ° 1 min 114 W/m² -0,7 °C -1,3 °C 16,1 km/h (3 Bft)
14.02.2025 15:15 22,4 °C 1,2 °C 45 % 87 % 1026,6 hPa 0,0 l/m² 6,4 km/h (2 Bft) N-NW 336 ° 1 min 113 W/m² -0,7 °C 1,2 °C 12,9 km/h (3 Bft)
14.02.2025 15:16 22,4 °C 1,2 °C 45 % 87 % 1026,5 hPa 0,0 l/m² 7,6 km/h (2 Bft) N 360 ° 1 min 111 W/m² -0,7 °C -0,0 °C 12,9 km/h (3 Bft)
14.02.2025 15:17 22,4 °C 1,2 °C 45 % 87 % 1026,5 hPa 0,0 l/m² 5,0 km/h (1 Bft) N-NW 333 ° 1 min 109 W/m² -0,7 °C 1,2 °C 8,0 km/h (2 Bft)
14.02.2025 15:18 22,4 °C 1,2 °C 45 % 87 % 1026,6 hPa 0,0 l/m² 5,5 km/h (2 Bft) N 355 ° 1 min 107 W/m² -0,7 °C 1,2 °C 8,0 km/h (2 Bft)
14.02.2025 15:19 22,4 °C 1,2 °C 45 % 87 % 1026,6 hPa 0,0 l/m² 6,6 km/h (2 Bft) NW 319 ° 1 min 105 W/m² -0,7 °C 1,0 °C 9,7 km/h (2 Bft)
14.02.2025 15:21 22,4 °C 1,2 °C 45 % 87 % 1026,6 hPa 0,0 l/m² 6,1 km/h (2 Bft) W-NW 298 ° 2 min 105 W/m² -0,7 °C 1,2 °C 11,3 km/h (2 Bft)
14.02.2025 15:23 22,4 °C 1,2 °C 45 % 87 % 1026,7 hPa 0,0 l/m² 6,8 km/h (2 Bft) NW 324 ° 2 min 105 W/m² -0,7 °C 0,8 °C 12,9 km/h (3 Bft)
14.02.2025 15:24 22,4 °C 1,3 °C 45 % 88 % 1026,7 hPa 0,0 l/m² 7,2 km/h (2 Bft) NW 315 ° 1 min 104 W/m² -0,5 °C 0,5 °C 12,9 km/h (3 Bft)
14.02.2025 15:25 22,4 °C 1,3 °C 45 % 88 % 1026,8 hPa 0,2 l/m² 8,1 km/h (2 Bft) N-NW 334 ° 1 min 102 W/m² -0,5 °C -0,4 °C 12,9 km/h (3 Bft)
14.02.2025 15:26 22,4 °C 1,3 °C 45 % 87 % 1026,8 hPa 0,0 l/m² 8,0 km/h (2 Bft) N-NW 347 ° 1 min 100 W/m² -0,6 °C -0,3 °C 12,9 km/h (3 Bft)
14.02.2025 15:27 22,4 °C 1,2 °C 45 % 87 % 1026,7 hPa 0,0 l/m² 7,2 km/h (2 Bft) N-NW 342 ° 1 min 100 W/m² -0,7 °C 0,4 °C 12,9 km/h (3 Bft)
14.02.2025 15:28 22,4 °C 1,2 °C 45 % 87 % 1026,8 hPa 0,0 l/m² 5,9 km/h (2 Bft) NW 317 ° 1 min 98 W/m² -0,7 °C 1,2 °C 8,0 km/h (2 Bft)
14.02.2025 15:29 22,4 °C 1,2 °C 45 % 88 % 1026,8 hPa 0,0 l/m² 5,5 km/h (2 Bft) NW 323 ° 1 min 97 W/m² -0,6 °C 1,2 °C 9,7 km/h (2 Bft)
14.02.2025 15:31 22,4 °C 1,2 °C 45 % 88 % 1026,7 hPa 0,0 l/m² 7,1 km/h (2 Bft) NW 312 ° 2 min 93 W/m² -0,6 °C 0,5 °C 12,9 km/h (3 Bft)
14.02.2025 15:33 22,4 °C 1,2 °C 45 % 88 % 1026,9 hPa 0,0 l/m² 8,6 km/h (2 Bft) N-NW 336 ° 2 min 91 W/m² -0,6 °C -0,9 °C 12,9 km/h (3 Bft)
14.02.2025 15:34 22,4 °C 1,3 °C 45 % 88 % 1026,8 hPa 0,0 l/m² 8,4 km/h (2 Bft) NW 313 ° 1 min 90 W/m² -0,5 °C -0,7 °C 11,3 km/h (2 Bft)
14.02.2025 15:35 22,4 °C 1,3 °C 45 % 88 % 1026,8 hPa 0,0 l/m² 8,9 km/h (2 Bft) N-NW 339 ° 1 min 90 W/m² -0,5 °C -1,1 °C 14,5 km/h (3 Bft)
14.02.2025 15:36 22,4 °C 1,2 °C 45 % 88 % 1026,8 hPa 0,0 l/m² 7,0 km/h (2 Bft) N-NW 327 ° 1 min 90 W/m² -0,6 °C 0,6 °C 9,7 km/h (2 Bft)
14.02.2025 15:37 22,4 °C 1,2 °C 45 % 88 % 1026,8 hPa 0,0 l/m² 6,4 km/h (2 Bft) N-NW 343 ° 1 min 88 W/m² -0,6 °C 1,2 °C 9,7 km/h (2 Bft)
14.02.2025 15:38 22,4 °C 1,3 °C 45 % 88 % 1026,8 hPa 0,0 l/m² 6,8 km/h (2 Bft) N-NW 336 ° 1 min 88 W/m² -0,5 °C 0,9 °C 11,3 km/h (2 Bft)
14.02.2025 15:39 22,4 °C 1,2 °C 45 % 88 % 1026,8 hPa 0,0 l/m² 5,5 km/h (2 Bft) NW 311 ° 1 min 88 W/m² -0,6 °C 1,2 °C 9,7 km/h (2 Bft)
14.02.2025 15:41 22,4 °C 1,2 °C 45 % 88 % 1026,8 hPa 0,0 l/m² 7,0 km/h (2 Bft) N-NW 329 ° 2 min 88 W/m² -0,6 °C 0,6 °C 9,7 km/h (2 Bft)
14.02.2025 15:43 22,4 °C 1,2 °C 45 % 88 % 1026,8 hPa 0,0 l/m² 7,4 km/h (2 Bft) N-NW 332 ° 2 min 84 W/m² -0,6 °C 0,2 °C 12,9 km/h (3 Bft)
14.02.2025 15:45 22,4 °C 1,3 °C 45 % 88 % 1026,8 hPa 0,0 l/m² 7,6 km/h (2 Bft) NW 315 ° 2 min 81 W/m² -0,5 °C 0,1 °C 12,9 km/h (3 Bft)
14.02.2025 15:46 22,4 °C 1,2 °C 45 % 88 % 1026,8 hPa 0,0 l/m² 8,2 km/h (2 Bft) N-NW 344 ° 1 min 81 W/m² -0,6 °C -0,6 °C 12,9 km/h (3 Bft)
14.02.2025 15:47 22,4 °C 1,3 °C 45 % 88 % 1026,8 hPa 0,0 l/m² 7,3 km/h (2 Bft) N-NW 331 ° 1 min 79 W/m² -0,5 °C 0,4 °C 9,7 km/h (2 Bft)
14.02.2025 15:48 22,4 °C 1,3 °C 46 % 88 % 1026,9 hPa 0,0 l/m² 6,0 km/h (2 Bft) NW 316 ° 1 min 76 W/m² -0,5 °C 1,3 °C 9,7 km/h (2 Bft)
14.02.2025 15:49 22,3 °C 1,3 °C 45 % 88 % 1026,9 hPa 0,0 l/m² 7,6 km/h (2 Bft) N-NW 331 ° 1 min 74 W/m² -0,5 °C 0,1 °C 12,9 km/h (3 Bft)
14.02.2025 15:51 22,4 °C 1,3 °C 45 % 88 % 1026,8 hPa 0,0 l/m² 7,5 km/h (2 Bft) NW 304 ° 2 min 70 W/m² -0,5 °C 0,2 °C 14,5 km/h (3 Bft)
14.02.2025 15:53 22,4 °C 1,3 °C 45 % 88 % 1026,9 hPa 0,0 l/m² 6,6 km/h (2 Bft) N-NW 330 ° 2 min 67 W/m² -0,5 °C 1,1 °C 14,5 km/h (3 Bft)
14.02.2025 15:54 22,3 °C 1,3 °C 45 % 88 % 1026,9 hPa 0,0 l/m² 8,4 km/h (2 Bft) N-NW 330 ° 1 min 63 W/m² -0,5 °C -0,7 °C 14,5 km/h (3 Bft)
14.02.2025 15:55 22,3 °C 1,3 °C 45 % 88 % 1026,9 hPa 0,0 l/m² 8,0 km/h (2 Bft) W-NW 300 ° 1 min 62 W/m² -0,5 °C -0,3 °C 12,9 km/h (3 Bft)
14.02.2025 15:56 22,4 °C 1,3 °C 45 % 88 % 1026,9 hPa 0,0 l/m² 5,5 km/h (2 Bft) NW 321 ° 1 min 60 W/m² -0,5 °C 1,3 °C 8,0 km/h (2 Bft)
14.02.2025 15:57 22,3 °C 1,2 °C 45 % 88 % 1026,8 hPa 0,0 l/m² 5,8 km/h (2 Bft) W-NW 299 ° 1 min 58 W/m² -0,6 °C 1,2 °C 8,0 km/h (2 Bft)
14.02.2025 15:58 22,3 °C 1,3 °C 45 % 88 % 1027,0 hPa 0,0 l/m² 4,4 km/h (1 Bft) N 5 ° 1 min 58 W/m² -0,5 °C 1,3 °C 8,0 km/h (2 Bft)
14.02.2025 15:59 22,3 °C 1,3 °C 45 % 88 % 1026,9 hPa 0,0 l/m² 6,5 km/h (2 Bft) N-NW 328 ° 1 min 58 W/m² -0,5 °C 1,2 °C 11,3 km/h (2 Bft)
14.02.2025 16:01 22,3 °C 1,3 °C 45 % 88 % 1027,0 hPa 0,0 l/m² 5,5 km/h (2 Bft) NW 323 ° 2 min 58 W/m² -0,5 °C 1,3 °C 8,0 km/h (2 Bft)
14.02.2025 16:02 22,3 °C 1,3 °C 45 % 88 % 1026,9 hPa 0,0 l/m² 4,8 km/h (1 Bft) NW 315 ° 1 min 58 W/m² -0,5 °C 1,3 °C 11,3 km/h (2 Bft)
14.02.2025 16:03 22,3 °C 1,3 °C 45 % 88 % 1026,9 hPa 0,0 l/m² 4,8 km/h (1 Bft) N-NW 337 ° 1 min 58 W/m² -0,5 °C 1,3 °C 8,0 km/h (2 Bft)
14.02.2025 16:04 22,3 °C 1,3 °C 45 % 88 % 1026,9 hPa 0,0 l/m² 7,7 km/h (2 Bft) NW 321 ° 1 min 58 W/m² -0,5 °C 0,0 °C 9,7 km/h (2 Bft)
14.02.2025 16:05 22,3 °C 1,3 °C 45 % 88 % 1026,9 hPa 0,0 l/m² 5,0 km/h (1 Bft) NW 317 ° 1 min 58 W/m² -0,5 °C 1,3 °C 8,0 km/h (2 Bft)
14.02.2025 16:06 22,3 °C 1,3 °C 45 % 88 % 1027,0 hPa 0,0 l/m² 5,7 km/h (2 Bft) NW 323 ° 1 min 56 W/m² -0,5 °C 1,3 °C 8,0 km/h (2 Bft)
14.02.2025 16:07 22,3 °C 1,2 °C 45 % 88 % 1026,9 hPa 0,0 l/m² 3,3 km/h (1 Bft) NW 321 ° 1 min 54 W/m² -0,6 °C 1,2 °C 6,4 km/h (2 Bft)
14.02.2025 16:08 22,3 °C 1,3 °C 45 % 88 % 1027,0 hPa 0,0 l/m² 3,3 km/h (1 Bft) NW 308 ° 1 min 53 W/m² -0,5 °C 1,3 °C 8,0 km/h (2 Bft)
14.02.2025 16:09 22,3 °C 1,3 °C 45 % 88 % 1027,0 hPa 0,0 l/m² 5,4 km/h (2 Bft) N-NW 343 ° 0 min 51 W/m² -0,5 °C 1,3 °C 8,0 km/h (2 Bft)
14.02.2025 16:11 22,3 °C 1,2 °C 45 % 88 % 1026,9 hPa 0,0 l/m² 7,1 km/h (2 Bft) N-NW 331 ° 0 min 47 W/m² -0,6 °C 0,5 °C 12,9 km/h (3 Bft)
14.02.2025 16:13 22,3 °C 1,2 °C 45 % 88 % 1027,0 hPa 0,0 l/m² 4,8 km/h (1 Bft) NW 324 ° 0 min 44 W/m² -0,6 °C 1,2 °C 9,7 km/h (2 Bft)
14.02.2025 16:14 22,3 °C 1,2 °C 45 % 88 % 1027,0 hPa 0,0 l/m² 10,8 km/h (2 Bft) N-NW 342 ° 0 min 42 W/m² -0,6 °C -2,7 °C 14,5 km/h (3 Bft)
14.02.2025 16:15 22,3 °C 1,2 °C 45 % 88 % 1026,9 hPa 0,0 l/m² 8,0 km/h (2 Bft) NW 311 ° 0 min 40 W/m² -0,6 °C -0,4 °C 12,9 km/h (3 Bft)
14.02.2025 16:16 22,3 °C 1,2 °C 45 % 88 % 1026,9 hPa 0,0 l/m² 8,9 km/h (2 Bft) N-NW 346 ° 0 min 40 W/m² -0,6 °C -1,2 °C 14,5 km/h (3 Bft)
14.02.2025 16:17 22,3 °C 1,2 °C 45 % 88 % 1026,9 hPa 0,0 l/m² 7,7 km/h (2 Bft) W-NW 300 ° 0 min 39 W/m² -0,6 °C -0,1 °C 12,9 km/h (3 Bft)
14.02.2025 16:18 22,3 °C 1,2 °C 45 % 88 % 1026,9 hPa 0,0 l/m² 9,1 km/h (2 Bft) NW 320 ° 0 min 37 W/m² -0,6 °C -1,4 °C 14,5 km/h (3 Bft)
14.02.2025 16:19 22,3 °C 1,2 °C 45 % 88 % 1027,0 hPa 0,0 l/m² 8,0 km/h (2 Bft) N-NW 338 ° 0 min 33 W/m² -0,6 °C -0,4 °C 9,7 km/h (2 Bft)
14.02.2025 16:21 22,3 °C 1,2 °C 45 % 88 % 1026,9 hPa 0,0 l/m² 7,5 km/h (2 Bft) N-NW 333 ° 0 min 32 W/m² -0,6 °C 0,1 °C 12,9 km/h (3 Bft)
14.02.2025 16:23 22,3 °C 1,2 °C 45 % 88 % 1027,0 hPa 0,0 l/m² 6,9 km/h (2 Bft) N-NW 337 ° 0 min 28 W/m² -0,6 °C 0,7 °C 9,7 km/h (2 Bft)
14.02.2025 16:24 22,3 °C 1,2 °C 45 % 88 % 1027,1 hPa 0,0 l/m² 6,1 km/h (2 Bft) NW 320 ° 0 min 28 W/m² -0,6 °C 1,2 °C 8,0 km/h (2 Bft)
14.02.2025 16:25 22,3 °C 1,2 °C 45 % 88 % 1027,0 hPa 0,0 l/m² 6,8 km/h (2 Bft) N-NW 346 ° 0 min 28 W/m² -0,6 °C 0,8 °C 9,7 km/h (2 Bft)
14.02.2025 16:26 22,3 °C 1,1 °C 45 % 88 % 1027,0 hPa 0,0 l/m² 5,4 km/h (2 Bft) N-NW 348 ° 0 min 28 W/m² -0,7 °C 1,1 °C 9,7 km/h (2 Bft)
14.02.2025 16:27 22,3 °C 1,2 °C 45 % 88 % 1027,1 hPa 0,0 l/m² 7,1 km/h (2 Bft) N-NW 342 ° 0 min 28 W/m² -0,6 °C 0,5 °C 9,7 km/h (2 Bft)
14.02.2025 16:28 22,2 °C 1,1 °C 45 % 88 % 1027,0 hPa 0,0 l/m² 4,3 km/h (1 Bft) N-NW 338 ° 0 min 28 W/m² -0,7 °C 1,1 °C 6,4 km/h (2 Bft)
14.02.2025 16:29 22,3 °C 1,1 °C 45 % 88 % 1027,0 hPa 0,0 l/m² 4,2 km/h (1 Bft) NW 315 ° 0 min 28 W/m² -0,7 °C 1,1 °C 6,4 km/h (2 Bft)
14.02.2025 16:31 22,3 °C 1,1 °C 45 % 88 % 1027,0 hPa 0,0 l/m² 4,0 km/h (1 Bft) N 351 ° 0 min 28 W/m² -0,7 °C 1,1 °C 8,0 km/h (2 Bft)
14.02.2025 16:33 22,3 °C 1,1 °C 45 % 88 % 1027,1 hPa 0,0 l/m² 3,4 km/h (1 Bft) N-NW 339 ° 0 min 28 W/m² -0,7 °C 1,1 °C 6,4 km/h (2 Bft)
14.02.2025 16:34 22,2 °C 1,1 °C 45 % 88 % 1027,0 hPa 0,0 l/m² 2,6 km/h (1 Bft) N-NW 342 ° 0 min 28 W/m² -0,7 °C 1,1 °C 4,8 km/h (1 Bft)
14.02.2025 16:35 22,2 °C 1,1 °C 45 % 88 % 1027,1 hPa 0,0 l/m² 4,0 km/h (1 Bft) N-NW 338 ° 0 min 28 W/m² -0,7 °C 1,1 °C 6,4 km/h (2 Bft)
14.02.2025 16:36 22,2 °C 1,1 °C 45 % 88 % 1027,1 hPa 0,0 l/m² 5,1 km/h (1 Bft) N-NW 337 ° 0 min 28 W/m² -0,7 °C 1,1 °C 8,0 km/h (2 Bft)
14.02.2025 16:37 22,2 °C 1,1 °C 45 % 88 % 1027,1 hPa 0,0 l/m² 5,4 km/h (2 Bft) N-NW 335 ° 0 min 28 W/m² -0,7 °C 1,1 °C 8,0 km/h (2 Bft)
14.02.2025 16:38 22,2 °C 1,1 °C 45 % 88 % 1027,1 hPa 0,0 l/m² 5,4 km/h (2 Bft) N-NW 332 ° 0 min 26 W/m² -0,7 °C 1,1 °C 9,7 km/h (2 Bft)
14.02.2025 16:39 22,2 °C 1,1 °C 45 % 88 % 1027,0 hPa 0,0 l/m² 4,5 km/h (1 Bft) NW 324 ° 0 min 26 W/m² -0,7 °C 1,1 °C 8,0 km/h (2 Bft)
14.02.2025 16:41 22,2 °C 1,1 °C 45 % 88 % 1027,0 hPa 0,0 l/m² 6,3 km/h (2 Bft) N-NW 340 ° 0 min 23 W/m² -0,7 °C 1,1 °C 9,7 km/h (2 Bft)
14.02.2025 16:43 22,2 °C 1,1 °C 45 % 88 % 1027,1 hPa 0,0 l/m² 5,2 km/h (1 Bft) W-NW 299 ° 0 min 21 W/m² -0,7 °C 1,1 °C 8,0 km/h (2 Bft)
14.02.2025 16:44 22,2 °C 1,1 °C 45 % 88 % 1027,2 hPa 0,0 l/m² 5,2 km/h (1 Bft) N-NW 338 ° 0 min 21 W/m² -0,7 °C 1,1 °C 8,0 km/h (2 Bft)
14.02.2025 16:45 22,2 °C 1,1 °C 44 % 88 % 1027,1 hPa 0,0 l/m² 5,5 km/h (2 Bft) NW 313 ° 0 min 19 W/m² -0,7 °C 1,1 °C 8,0 km/h (2 Bft)
14.02.2025 16:46 22,2 °C 1,1 °C 44 % 88 % 1027,1 hPa 0,0 l/m² 7,3 km/h (2 Bft) N-NW 344 ° 0 min 19 W/m² -0,7 °C 0,2 °C 9,7 km/h (2 Bft)
14.02.2025 16:47 22,2 °C 1,1 °C 44 % 88 % 1027,1 hPa 0,0 l/m² 6,2 km/h (2 Bft) N-NW 348 ° 0 min 18 W/m² -0,7 °C 1,1 °C 9,7 km/h (2 Bft)
14.02.2025 16:48 22,2 °C 1,1 °C 44 % 88 % 1027,1 hPa 0,0 l/m² 3,9 km/h (1 Bft) NW 315 ° 0 min 16 W/m² -0,7 °C 1,1 °C 8,0 km/h (2 Bft)
14.02.2025 16:49 22,2 °C 1,1 °C 44 % 88 % 1027,1 hPa 0,0 l/m² 4,8 km/h (1 Bft) NW 321 ° 0 min 16 W/m² -0,7 °C 1,1 °C 8,0 km/h (2 Bft)
14.02.2025 16:51 22,1 °C 1,0 °C 43 % 88 % 1027,1 hPa 0,0 l/m² 4,9 km/h (1 Bft) N-NW 344 ° 0 min 16 W/m² -0,8 °C 1,0 °C 8,0 km/h (2 Bft)
14.02.2025 16:53 22,1 °C 1,0 °C 43 % 88 % 1027,2 hPa 0,0 l/m² 5,4 km/h (2 Bft) N-NW 337 ° 0 min 14 W/m² -0,8 °C 1,0 °C 9,7 km/h (2 Bft)
14.02.2025 16:54 22,1 °C 1,0 °C 43 % 88 % 1027,2 hPa 0,0 l/m² 4,2 km/h (1 Bft) N-NW 329 ° 0 min 14 W/m² -0,8 °C 1,0 °C 4,8 km/h (1 Bft)
14.02.2025 16:55 22,1 °C 1,0 °C 43 % 88 % 1027,1 hPa 0,0 l/m² 5,9 km/h (2 Bft) NW 313 ° 0 min 12 W/m² -0,8 °C 1,0 °C 9,7 km/h (2 Bft)
14.02.2025 16:56 22,1 °C 1,0 °C 44 % 88 % 1027,1 hPa 0,0 l/m² 6,9 km/h (2 Bft) N-NW 331 ° 0 min 12 W/m² -0,8 °C 0,5 °C 8,0 km/h (2 Bft)
14.02.2025 16:57 22,1 °C 1,0 °C 44 % 88 % 1027,1 hPa 0,0 l/m² 6,4 km/h (2 Bft) N-NW 327 ° 0 min 12 W/m² -0,8 °C 1,0 °C 9,7 km/h (2 Bft)
14.02.2025 16:58 22,1 °C 0,9 °C 44 % 88 % 1027,2 hPa 0,0 l/m² 7,5 km/h (2 Bft) N-NW 348 ° 0 min 11 W/m² -0,9 °C -0,2 °C 9,7 km/h (2 Bft)
14.02.2025 16:59 22,1 °C 0,9 °C 44 % 88 % 1027,2 hPa 0,0 l/m² 6,5 km/h (2 Bft) NW 326 ° 0 min 11 W/m² -0,9 °C 0,8 °C 8,0 km/h (2 Bft)
14.02.2025 17:01 22,1 °C 0,9 °C 44 % 88 % 1027,2 hPa 0,0 l/m² 5,0 km/h (1 Bft) N-NW 344 ° 0 min 9 W/m² -0,9 °C 0,9 °C 8,0 km/h (2 Bft)
14.02.2025 17:03 22,1 °C 0,9 °C 44 % 88 % 1027,2 hPa 0,0 l/m² 4,5 km/h (1 Bft) N-NW 348 ° 0 min 9 W/m² -0,9 °C 0,9 °C 8,0 km/h (2 Bft)
14.02.2025 17:04 22,1 °C 0,9 °C 44 % 88 % 1027,2 hPa 0,0 l/m² 6,4 km/h (2 Bft) NW 309 ° 0 min 7 W/m² -0,9 °C 0,9 °C 8,0 km/h (2 Bft)
14.02.2025 17:05 22,1 °C 0,9 °C 44 % 88 % 1027,2 hPa 0,0 l/m² 2,2 km/h (1 Bft) N-NW 327 ° 0 min 7 W/m² -0,9 °C 0,9 °C 3,2 km/h (1 Bft)
14.02.2025 17:06 22,1 °C 0,9 °C 44 % 88 % 1027,3 hPa 0,0 l/m² 5,8 km/h (2 Bft) NW 325 ° 0 min 7 W/m² -0,9 °C 0,9 °C 9,7 km/h (2 Bft)
14.02.2025 17:07 22,1 °C 0,9 °C 44 % 88 % 1027,4 hPa 0,0 l/m² 3,1 km/h (1 Bft) NW 307 ° 0 min 5 W/m² -0,9 °C 0,9 °C 4,8 km/h (1 Bft)
14.02.2025 17:08 22,1 °C 0,9 °C 44 % 88 % 1027,3 hPa 0,0 l/m² 5,0 km/h (1 Bft) NW 313 ° 0 min 5 W/m² -0,9 °C 0,9 °C 6,4 km/h (2 Bft)
14.02.2025 17:09 22,1 °C 0,9 °C 44 % 88 % 1027,3 hPa 0,0 l/m² 6,6 km/h (2 Bft) NW 323 ° 0 min 5 W/m² -0,9 °C 0,7 °C 8,0 km/h (2 Bft)
14.02.2025 17:11 22,1 °C 0,9 °C 44 % 88 % 1027,3 hPa 0,0 l/m² 4,7 km/h (1 Bft) NW 325 ° 0 min 0 W/m² -0,9 °C 0,9 °C 6,4 km/h (2 Bft)
14.02.2025 17:12 22,1 °C 0,9 °C 44 % 88 % 1027,3 hPa 0,0 l/m² 3,9 km/h (1 Bft) N-NW 333 ° 0 min 0 W/m² -0,9 °C 0,9 °C 6,4 km/h (2 Bft)
14.02.2025 17:13 22,1 °C 0,9 °C 44 % 88 % 1027,3 hPa 0,0 l/m² 4,1 km/h (1 Bft) N-NW 336 ° 0 min 0 W/m² -0,9 °C 0,9 °C 6,4 km/h (2 Bft)
14.02.2025 17:14 22,1 °C 0,9 °C 44 % 88 % 1027,4 hPa 0,0 l/m² 2,5 km/h (1 Bft) N-NW 344 ° 0 min 0 W/m² -0,9 °C 0,9 °C 4,8 km/h (1 Bft)
14.02.2025 17:15 22,1 °C 0,9 °C 44 % 88 % 1027,4 hPa 0,0 l/m² 6,0 km/h (2 Bft) N-NW 345 ° 0 min 0 W/m² -0,9 °C 0,9 °C 6,4 km/h (2 Bft)
14.02.2025 17:16 22,1 °C 0,9 °C 44 % 88 % 1027,4 hPa 0,0 l/m² 5,4 km/h (2 Bft) NW 324 ° 0 min 0 W/m² -0,9 °C 0,9 °C 8,0 km/h (2 Bft)
14.02.2025 17:17 22,1 °C 0,9 °C 44 % 88 % 1027,5 hPa 0,0 l/m² 2,2 km/h (1 Bft) N-NW 346 ° 0 min 0 W/m² -0,9 °C 0,9 °C 4,8 km/h (1 Bft)
14.02.2025 17:18 22,1 °C 0,9 °C 44 % 88 % 1027,4 hPa 0,0 l/m² 3,5 km/h (1 Bft) N-NW 335 ° 0 min 0 W/m² -0,9 °C 0,9 °C 6,4 km/h (2 Bft)
14.02.2025 17:19 22,1 °C 0,8 °C 44 % 88 % 1027,5 hPa 0,0 l/m² 3,4 km/h (1 Bft) N-NW 328 ° 0 min 0 W/m² -1,0 °C 0,8 °C 9,7 km/h (2 Bft)
14.02.2025 17:21 22,0 °C 0,8 °C 44 % 88 % 1027,5 hPa 0,0 l/m² 5,6 km/h (2 Bft) N 9 ° 0 min 0 W/m² -1,0 °C 0,8 °C 8,0 km/h (2 Bft)
14.02.2025 17:23 22,0 °C 0,8 °C 44 % 88 % 1027,5 hPa 0,0 l/m² 6,5 km/h (2 Bft) N 5 ° 0 min 0 W/m² -1,0 °C 0,7 °C 14,5 km/h (3 Bft)
14.02.2025 17:24 22,0 °C 0,8 °C 44 % 88 % 1027,5 hPa 0,0 l/m² 3,4 km/h (1 Bft) N 350 ° 0 min 0 W/m² -1,0 °C 0,8 °C 6,4 km/h (2 Bft)
14.02.2025 17:25 22,1 °C 0,8 °C 44 % 88 % 1027,5 hPa 0,0 l/m² 2,1 km/h (1 Bft) N-NO 14 ° 0 min 0 W/m² -1,0 °C 0,8 °C 4,8 km/h (1 Bft)
14.02.2025 17:26 22,1 °C 0,8 °C 44 % 88 % 1027,5 hPa 0,0 l/m² 1,7 km/h (1 Bft) N 5 ° 0 min 0 W/m² -1,0 °C 0,8 °C 3,2 km/h (1 Bft)
14.02.2025 17:27 22,0 °C 0,8 °C 44 % 88 % 1027,5 hPa 0,0 l/m² 4,1 km/h (1 Bft) N-NW 339 ° 0 min 0 W/m² -1,0 °C 0,8 °C 9,7 km/h (2 Bft)
14.02.2025 17:28 22,0 °C 0,8 °C 44 % 88 % 1027,5 hPa 0,0 l/m² 7,9 km/h (2 Bft) N 360 ° 0 min 0 W/m² -1,0 °C -0,7 °C 9,7 km/h (2 Bft)
14.02.2025 17:29 22,1 °C 0,8 °C 44 % 88 % 1027,5 hPa 0,0 l/m² 5,7 km/h (2 Bft) N 360 ° 0 min 0 W/m² -1,0 °C 0,8 °C 8,0 km/h (2 Bft)
14.02.2025 17:31 22,0 °C 0,8 °C 44 % 88 % 1027,5 hPa 0,0 l/m² 5,1 km/h (1 Bft) N 355 ° 0 min 0 W/m² -1,0 °C 0,8 °C 6,4 km/h (2 Bft)
14.02.2025 17:33 22,0 °C 0,8 °C 44 % 88 % 1027,6 hPa 0,0 l/m² 3,1 km/h (1 Bft) N-NO 24 ° 0 min 0 W/m² -1,0 °C 0,8 °C 6,4 km/h (2 Bft)
14.02.2025 17:34 22,0 °C 0,8 °C 44 % 88 % 1027,5 hPa 0,0 l/m² 1,3 km/h (1 Bft) NO 34 ° 0 min 0 W/m² -1,0 °C 0,8 °C 3,2 km/h (1 Bft)
14.02.2025 17:35 22,0 °C 0,8 °C 44 % 89 % 1027,5 hPa 0,0 l/m² 1,1 km/h (1 Bft) N-NO 19 ° 0 min 0 W/m² -0,8 °C 0,8 °C 3,2 km/h (1 Bft)
14.02.2025 17:36 22,0 °C 0,8 °C 44 % 89 % 1027,6 hPa 0,0 l/m² 2,2 km/h (1 Bft) NO 36 ° 0 min 0 W/m² -0,8 °C 0,8 °C 3,2 km/h (1 Bft)
14.02.2025 17:37 22,1 °C 0,8 °C 44 % 89 % 1027,6 hPa 0,0 l/m² 1,2 km/h (1 Bft) N-NO 30 ° 0 min 0 W/m² -0,8 °C 0,8 °C 3,2 km/h (1 Bft)
14.02.2025 17:38 22,0 °C 0,7 °C 44 % 89 % 1027,5 hPa 0,0 l/m² 0,3 km/h (0 Bft) N-NO 30 ° 0 min 0 W/m² -0,9 °C 0,7 °C 1,6 km/h (1 Bft)
14.02.2025 17:39 22,0 °C 0,7 °C 44 % 89 % 1027,5 hPa 0,0 l/m² 0,1 km/h (0 Bft) N-NO 30 ° 0 min 0 W/m² -0,9 °C 0,7 °C 1,6 km/h (1 Bft)
14.02.2025 17:41 22,0 °C 0,7 °C 45 % 89 % 1027,6 hPa 0,0 l/m² 2,2 km/h (1 Bft) NO 34 ° 0 min 0 W/m² -0,9 °C 0,7 °C 4,8 km/h (1 Bft)
14.02.2025 17:43 22,0 °C 0,7 °C 45 % 89 % 1027,5 hPa 0,0 l/m² 2,2 km/h (1 Bft) NO 36 ° 0 min 0 W/m² -0,9 °C 0,7 °C 6,4 km/h (2 Bft)
14.02.2025 17:44 22,1 °C 0,7 °C 45 % 89 % 1027,5 hPa 0,0 l/m² 1,2 km/h (1 Bft) NO 36 ° 0 min 0 W/m² -0,9 °C 0,7 °C 3,2 km/h (1 Bft)
14.02.2025 17:45 22,0 °C 0,7 °C 45 % 89 % 1027,5 hPa 0,0 l/m² 3,6 km/h (1 Bft) NO 39 ° 0 min 0 W/m² -0,9 °C 0,7 °C 6,4 km/h (2 Bft)
14.02.2025 17:46 22,0 °C 0,7 °C 45 % 89 % 1027,6 hPa 0,0 l/m² 1,4 km/h (1 Bft) NO 38 ° 0 min 0 W/m² -0,9 °C 0,7 °C 3,2 km/h (1 Bft)
14.02.2025 17:47 22,1 °C 0,7 °C 45 % 89 % 1027,6 hPa 0,0 l/m² 2,9 km/h (1 Bft) NO 46 ° 0 min 0 W/m² -0,9 °C 0,7 °C 4,8 km/h (1 Bft)
14.02.2025 17:48 22,1 °C 0,7 °C 45 % 89 % 1027,5 hPa 0,0 l/m² 2,0 km/h (1 Bft) N-NO 30 ° 0 min 0 W/m² -0,9 °C 0,7 °C 4,8 km/h (1 Bft)
14.02.2025 17:49 22,1 °C 0,7 °C 45 % 89 % 1027,5 hPa 0,0 l/m² 0,9 km/h (0 Bft) N-NO 30 ° 0 min 0 W/m² -0,9 °C 0,7 °C 3,2 km/h (1 Bft)
14.02.2025 17:51 22,0 °C 0,7 °C 45 % 89 % 1027,6 hPa 0,0 l/m² 2,7 km/h (1 Bft) N-NO 27 ° 0 min 0 W/m² -0,9 °C 0,7 °C 6,4 km/h (2 Bft)
14.02.2025 17:53 22,1 °C 0,7 °C 45 % 89 % 1027,7 hPa 0,0 l/m² 2,5 km/h (1 Bft) N-NO 26 ° 0 min 0 W/m² -0,9 °C 0,7 °C 6,4 km/h (2 Bft)
14.02.2025 17:54 22,1 °C 0,7 °C 45 % 89 % 1027,6 hPa 0,0 l/m² 1,3 km/h (1 Bft) N-NO 26 ° 0 min 0 W/m² -0,9 °C 0,7 °C 3,2 km/h (1 Bft)
14.02.2025 17:55 22,1 °C 0,6 °C 45 % 89 % 1027,6 hPa 0,0 l/m² 1,2 km/h (1 Bft) N-NO 26 ° 0 min 0 W/m² -1,0 °C 0,6 °C 3,2 km/h (1 Bft)
14.02.2025 17:56 22,1 °C 0,7 °C 45 % 89 % 1027,7 hPa 0,0 l/m² 1,0 km/h (0 Bft) N-NO 26 ° 0 min 0 W/m² -0,9 °C 0,7 °C 3,2 km/h (1 Bft)
14.02.2025 17:57 22,1 °C 0,6 °C 45 % 89 % 1027,7 hPa 0,0 l/m² 2,9 km/h (1 Bft) N-NO 27 ° 0 min 0 W/m² -1,0 °C 0,6 °C 4,8 km/h (1 Bft)
14.02.2025 17:58 22,1 °C 0,6 °C 45 % 89 % 1027,7 hPa 0,0 l/m² 0,6 km/h (0 Bft) N-NO 27 ° 0 min 0 W/m² -1,0 °C 0,6 °C 3,2 km/h (1 Bft)
14.02.2025 17:59 22,1 °C 0,6 °C 45 % 89 % 1027,8 hPa 0,0 l/m² 0,1 km/h (0 Bft) N-NO 27 ° 0 min 0 W/m² -1,0 °C 0,6 °C 1,6 km/h (1 Bft)
14.02.2025 18:01 22,1 °C 0,6 °C 45 % 89 % 1027,7 hPa 0,0 l/m² 4,4 km/h (1 Bft) N-NO 28 ° 0 min 0 W/m² -1,0 °C 0,6 °C 8,0 km/h (2 Bft)
14.02.2025 18:03 22,1 °C 0,6 °C 46 % 89 % 1027,7 hPa 0,0 l/m² 2,3 km/h (1 Bft) NO 51 ° 0 min 0 W/m² -1,0 °C 0,6 °C 6,4 km/h (2 Bft)
14.02.2025 18:04 22,1 °C 0,6 °C 46 % 89 % 1027,7 hPa 0,0 l/m² 2,5 km/h (1 Bft) N-NO 19 ° 0 min 0 W/m² -1,0 °C 0,6 °C 6,4 km/h (2 Bft)
14.02.2025 18:05 22,1 °C 0,6 °C 46 % 89 % 1027,7 hPa 0,0 l/m² 3,9 km/h (1 Bft) N-NO 12 ° 0 min 0 W/m² -1,0 °C 0,6 °C 4,8 km/h (1 Bft)
14.02.2025 18:06 22,1 °C 0,6 °C 46 % 89 % 1027,5 hPa 0,0 l/m² 0,6 km/h (0 Bft) N-NO 12 ° 0 min 0 W/m² -1,0 °C 0,6 °C 3,2 km/h (1 Bft)
14.02.2025 18:07 22,1 °C 0,5 °C 46 % 89 % 1027,7 hPa 0,0 l/m² 0,6 km/h (0 Bft) N-NO 12 ° 0 min 0 W/m² -1,1 °C 0,5 °C 3,2 km/h (1 Bft)
14.02.2025 18:08 22,1 °C 0,6 °C 46 % 89 % 1027,8 hPa 0,0 l/m² 0,1 km/h (0 Bft) N-NO 12 ° 0 min 0 W/m² -1,0 °C 0,6 °C 1,6 km/h (1 Bft)
14.02.2025 18:09 22,1 °C 0,6 °C 46 % 89 % 1027,7 hPa 0,0 l/m² 0,1 km/h (0 Bft) N-NO 12 ° 0 min 0 W/m² -1,0 °C 0,6 °C 1,6 km/h (1 Bft)
14.02.2025 18:11 22,1 °C 0,5 °C 46 % 89 % 1027,8 hPa 0,0 l/m² 0,0 km/h (0 Bft) N-NO 12 ° 0 min 0 W/m² -1,1 °C 0,5 °C 0,0 km/h (0 Bft)
14.02.2025 18:13 22,1 °C 0,5 °C 47 % 89 % 1027,8 hPa 0,0 l/m² 0,4 km/h (0 Bft) N-NO 12 ° 0 min 0 W/m² -1,1 °C 0,5 °C 3,2 km/h (1 Bft)
14.02.2025 18:14 22,1 °C 0,5 °C 47 % 89 % 1027,8 hPa 0,0 l/m² 0,0 km/h (0 Bft) N-NO 12 ° 0 min 0 W/m² -1,1 °C 0,5 °C 0,0 km/h (0 Bft)
14.02.2025 18:15 22,1 °C 0,5 °C 47 % 89 % 1027,8 hPa 0,0 l/m² 0,1 km/h (0 Bft) N-NO 12 ° 0 min 0 W/m² -1,1 °C 0,5 °C 1,6 km/h (1 Bft)
14.02.2025 18:17 22,1 °C 0,5 °C 47 % 89 % 1027,9 hPa 0,0 l/m² 2,0 km/h (1 Bft) N-NO 12 ° 0 min 0 W/m² -1,1 °C 0,5 °C 6,4 km/h (2 Bft)
14.02.2025 18:18 22,1 °C 0,5 °C 47 % 89 % 1027,9 hPa 0,0 l/m² 2,8 km/h (1 Bft) N-NO 12 ° 0 min 0 W/m² -1,1 °C 0,5 °C 4,8 km/h (1 Bft)
14.02.2025 18:19 22,1 °C 0,5 °C 47 % 89 % 1027,9 hPa 0,0 l/m² 0,4 km/h (0 Bft) N-NO 12 ° 0 min 0 W/m² -1,1 °C 0,5 °C 3,2 km/h (1 Bft)
14.02.2025 18:21 22,1 °C 0,4 °C 47 % 89 % 1027,9 hPa 0,0 l/m² 0,0 km/h (0 Bft) N-NO 12 ° 0 min 0 W/m² -1,2 °C 0,4 °C 0,0 km/h (0 Bft)
14.02.2025 18:23 22,1 °C 0,5 °C 47 % 89 % 1027,9 hPa 0,0 l/m² 0,0 km/h (0 Bft) N-NO 12 ° 0 min 0 W/m² -1,1 °C 0,5 °C 0,0 km/h (0 Bft)
14.02.2025 18:24 22,1 °C 0,4 °C 47 % 89 % 1027,9 hPa 0,0 l/m² 0,0 km/h (0 Bft) N-NO 12 ° 0 min 0 W/m² -1,2 °C 0,4 °C 0,0 km/h (0 Bft)
14.02.2025 18:25 22,1 °C 0,4 °C 47 % 89 % 1027,9 hPa 0,0 l/m² 0,0 km/h (0 Bft) N-NO 12 ° 0 min 0 W/m² -1,2 °C 0,4 °C 0,0 km/h (0 Bft)
14.02.2025 18:26 22,1 °C 0,4 °C 47 % 89 % 1027,9 hPa 0,0 l/m² 0,0 km/h (0 Bft) N-NO 12 ° 0 min 0 W/m² -1,2 °C 0,4 °C 0,0 km/h (0 Bft)
14.02.2025 18:27 22,1 °C 0,4 °C 48 % 89 % 1028,0 hPa 0,0 l/m² 0,0 km/h (0 Bft) N-NO 12 ° 0 min 0 W/m² -1,2 °C 0,4 °C 0,0 km/h (0 Bft)
14.02.2025 18:28 22,1 °C 0,4 °C 48 % 89 % 1027,9 hPa 0,0 l/m² 0,0 km/h (0 Bft) N-NO 12 ° 0 min 0 W/m² -1,2 °C 0,4 °C 0,0 km/h (0 Bft)
14.02.2025 18:29 22,1 °C 0,4 °C 48 % 89 % 1028,0 hPa 0,0 l/m² 0,0 km/h (0 Bft) N-NO 12 ° 0 min 0 W/m² -1,2 °C 0,4 °C 0,0 km/h (0 Bft)
14.02.2025 18:31 22,1 °C 0,4 °C 48 % 89 % 1028,0 hPa 0,0 l/m² 0,0 km/h (0 Bft) N-NO 12 ° 0 min 0 W/m² -1,2 °C 0,4 °C 0,0 km/h (0 Bft)
14.02.2025 18:33 22,2 °C 0,4 °C 49 % 89 % 1027,9 hPa 0,0 l/m² 0,0 km/h (0 Bft) N-NO 12 ° 0 min 0 W/m² -1,2 °C 0,4 °C 0,0 km/h (0 Bft)
14.02.2025 18:34 22,2 °C 0,4 °C 49 % 89 % 1027,8 hPa 0,0 l/m² 0,0 km/h (0 Bft) N-NO 12 ° 0 min 0 W/m² -1,2 °C 0,4 °C 0,0 km/h (0 Bft)
14.02.2025 18:35 22,2 °C 0,4 °C 49 % 89 % 1027,8 hPa 0,0 l/m² 0,0 km/h (0 Bft) N-NO 12 ° 0 min 0 W/m² -1,2 °C 0,4 °C 0,0 km/h (0 Bft)
14.02.2025 18:36 22,2 °C 0,4 °C 49 % 89 % 1027,8 hPa 0,0 l/m² 0,0 km/h (0 Bft) N-NO 12 ° 0 min 0 W/m² -1,2 °C 0,4 °C 0,0 km/h (0 Bft)
14.02.2025 18:37 22,2 °C 0,4 °C 49 % 89 % 1027,8 hPa 0,0 l/m² 0,0 km/h (0 Bft) N-NO 12 ° 0 min 0 W/m² -1,2 °C 0,4 °C 0,0 km/h (0 Bft)
14.02.2025 18:38 22,2 °C 0,4 °C 49 % 89 % 1027,8 hPa 0,0 l/m² 0,0 km/h (0 Bft) N-NO 12 ° 0 min 0 W/m² -1,2 °C 0,4 °C 0,0 km/h (0 Bft)
14.02.2025 18:39 22,2 °C 0,4 °C 49 % 89 % 1027,9 hPa 0,0 l/m² 0,0 km/h (0 Bft) N-NO 12 ° 0 min 0 W/m² -1,2 °C 0,4 °C 0,0 km/h (0 Bft)
14.02.2025 18:40 22,2 °C 0,4 °C 49 % 89 % 1027,9 hPa 0,0 l/m² 0,1 km/h (0 Bft) N-NO 12 ° 0 min 0 W/m² -1,2 °C 0,4 °C 1,6 km/h (1 Bft)
14.02.2025 18:42 22,2 °C 0,4 °C 49 % 89 % 1028,2 hPa 0,0 l/m² 0,0 km/h (0 Bft) N-NO 12 ° 0 min 0 W/m² -1,2 °C 0,4 °C 0,0 km/h (0 Bft)
14.02.2025 18:44 22,2 °C 0,4 °C 49 % 89 % 1028,1 hPa 0,0 l/m² 0,0 km/h (0 Bft) N-NO 12 ° 0 min 0 W/m² -1,2 °C 0,4 °C 0,0 km/h (0 Bft)
14.02.2025 18:46 22,2 °C 0,4 °C 49 % 89 % 1028,2 hPa 0,0 l/m² 0,2 km/h (0 Bft) N-NO 12 ° 0 min 0 W/m² -1,2 °C 0,4 °C 1,6 km/h (1 Bft)
14.02.2025 18:47 22,2 °C 0,4 °C 49 % 89 % 1028,1 hPa 0,0 l/m² 0,1 km/h (0 Bft) N-NO 12 ° 0 min 0 W/m² -1,2 °C 0,4 °C 1,6 km/h (1 Bft)
14.02.2025 18:48 22,2 °C 0,4 °C 49 % 89 % 1028,1 hPa 0,0 l/m² 0,0 km/h (0 Bft) N-NO 12 ° 0 min 0 W/m² -1,2 °C 0,4 °C 0,0 km/h (0 Bft)
14.02.2025 18:49 22,1 °C 0,4 °C 49 % 89 % 1028,1 hPa 0,0 l/m² 0,0 km/h (0 Bft) N-NO 12 ° 0 min 0 W/m² -1,2 °C 0,4 °C 0,0 km/h (0 Bft)
14.02.2025 18:50 22,1 °C 0,4 °C 49 % 89 % 1028,1 hPa 0,0 l/m² 0,0 km/h (0 Bft) N-NO 12 ° 0 min 0 W/m² -1,2 °C 0,4 °C 0,0 km/h (0 Bft)
14.02.2025 18:52 22,1 °C 0,4 °C 49 % 89 % 1028,2 hPa 0,0 l/m² 0,0 km/h (0 Bft) N-NO 12 ° 0 min 0 W/m² -1,2 °C 0,4 °C 0,0 km/h (0 Bft)
14.02.2025 18:54 22,1 °C 0,3 °C 48 % 89 % 1027,9 hPa 0,0 l/m² 0,0 km/h (0 Bft) N-NO 12 ° 0 min 0 W/m² -1,3 °C 0,3 °C 0,0 km/h (0 Bft)
14.02.2025 18:55 22,1 °C 0,3 °C 48 % 89 % 1027,9 hPa 0,0 l/m² 0,0 km/h (0 Bft) N-NO 12 ° 0 min 0 W/m² -1,3 °C 0,3 °C 0,0 km/h (0 Bft)
14.02.2025 18:56 22,1 °C 0,3 °C 48 % 89 % 1027,8 hPa 0,0 l/m² 0,0 km/h (0 Bft) N-NO 12 ° 0 min 0 W/m² -1,3 °C 0,3 °C 0,0 km/h (0 Bft)
14.02.2025 18:57 22,1 °C 0,3 °C 48 % 89 % 1027,9 hPa 0,0 l/m² 0,0 km/h (0 Bft) N-NO 12 ° 0 min 0 W/m² -1,3 °C 0,3 °C 0,0 km/h (0 Bft)
14.02.2025 18:58 22,1 °C 0,3 °C 48 % 89 % 1028,0 hPa 0,0 l/m² 0,0 km/h (0 Bft) N-NO 12 ° 0 min 0 W/m² -1,3 °C 0,3 °C 0,0 km/h (0 Bft)
14.02.2025 18:59 22,1 °C 0,3 °C 48 % 89 % 1028,1 hPa 0,0 l/m² 0,0 km/h (0 Bft) N-NO 12 ° 0 min 0 W/m² -1,3 °C 0,3 °C 0,0 km/h (0 Bft)
14.02.2025 19:01 22,1 °C 0,3 °C 49 % 89 % 1028,0 hPa 0,0 l/m² 0,0 km/h (0 Bft) N-NO 12 ° 0 min 0 W/m² -1,3 °C 0,3 °C 0,0 km/h (0 Bft)
14.02.2025 19:03 22,1 °C 0,3 °C 49 % 90 % 1028,0 hPa 0,0 l/m² 0,0 km/h (0 Bft) N-NO 12 ° 0 min 0 W/m² -1,1 °C 0,3 °C 0,0 km/h (0 Bft)
14.02.2025 19:04 22,1 °C 0,3 °C 49 % 90 % 1028,1 hPa 0,0 l/m² 0,0 km/h (0 Bft) N-NO 12 ° 0 min 0 W/m² -1,1 °C 0,3 °C 0,0 km/h (0 Bft)
14.02.2025 19:05 22,1 °C 0,3 °C 49 % 90 % 1028,2 hPa 0,0 l/m² 0,0 km/h (0 Bft) N-NO 12 ° 0 min 0 W/m² -1,1 °C 0,3 °C 0,0 km/h (0 Bft)
14.02.2025 19:06 22,1 °C 0,3 °C 49 % 90 % 1028,3 hPa 0,0 l/m² 0,0 km/h (0 Bft) N-NO 12 ° 0 min 0 W/m² -1,1 °C 0,3 °C 0,0 km/h (0 Bft)
14.02.2025 19:07 22,1 °C 0,3 °C 49 % 90 % 1028,3 hPa 0,0 l/m² 0,0 km/h (0 Bft) N-NO 12 ° 0 min 0 W/m² -1,1 °C 0,3 °C 0,0 km/h (0 Bft)
14.02.2025 19:08 22,1 °C 0,3 °C 48 % 90 % 1028,2 hPa 0,0 l/m² 0,0 km/h (0 Bft) N-NO 12 ° 0 min 0 W/m² -1,1 °C 0,3 °C 0,0 km/h (0 Bft)
14.02.2025 19:09 22,1 °C 0,3 °C 49 % 90 % 1028,1 hPa 0,0 l/m² 0,0 km/h (0 Bft) N-NO 12 ° 0 min 0 W/m² -1,1 °C 0,3 °C 0,0 km/h (0 Bft)
14.02.2025 19:10 22,1 °C 0,3 °C 49 % 90 % 1028,2 hPa 0,0 l/m² 0,0 km/h (0 Bft) N-NO 12 ° 0 min 0 W/m² -1,1 °C 0,3 °C 0,0 km/h (0 Bft)
14.02.2025 19:12 22,1 °C 0,3 °C 48 % 90 % 1028,2 hPa 0,0 l/m² 0,0 km/h (0 Bft) N-NO 12 ° 0 min 0 W/m² -1,1 °C 0,3 °C 0,0 km/h (0 Bft)
14.02.2025 19:13 22,1 °C 0,3 °C 48 % 90 % 1028,1 hPa 0,0 l/m² 0,0 km/h (0 Bft) N-NO 12 ° 0 min 0 W/m² -1,1 °C 0,3 °C 0,0 km/h (0 Bft)
14.02.2025 19:14 22,1 °C 0,3 °C 48 % 90 % 1028,1 hPa 0,0 l/m² 0,0 km/h (0 Bft) N-NO 12 ° 0 min 0 W/m² -1,1 °C 0,3 °C 0,0 km/h (0 Bft)
14.02.2025 19:15 22,1 °C 0,3 °C 48 % 90 % 1028,0 hPa 0,0 l/m² 0,0 km/h (0 Bft) N-NO 12 ° 0 min 0 W/m² -1,1 °C 0,3 °C 0,0 km/h (0 Bft)
14.02.2025 19:16 22,1 °C 0,3 °C 48 % 90 % 1028,1 hPa 0,0 l/m² 0,0 km/h (0 Bft) N-NO 12 ° 0 min 0 W/m² -1,1 °C 0,3 °C 0,0 km/h (0 Bft)
14.02.2025 19:17 22,1 °C 0,3 °C 48 % 90 % 1028,3 hPa 0,0 l/m² 0,0 km/h (0 Bft) N-NO 12 ° 0 min 0 W/m² -1,1 °C 0,3 °C 0,0 km/h (0 Bft)
14.02.2025 19:18 22,1 °C 0,3 °C 48 % 90 % 1028,3 hPa 0,0 l/m² 0,8 km/h (0 Bft) N-NO 12 ° 0 min 0 W/m² -1,1 °C 0,3 °C 1,6 km/h (1 Bft)
14.02.2025 19:19 22,0 °C 0,3 °C 48 % 89 % 1028,3 hPa 0,0 l/m² 0,6 km/h (0 Bft) N-NO 12 ° 0 min 0 W/m² -1,3 °C 0,3 °C 1,6 km/h (1 Bft)
14.02.2025 19:21 22,1 °C 0,2 °C 48 % 89 % 1028,3 hPa 0,0 l/m² 0,0 km/h (0 Bft) N-NO 12 ° 0 min 0 W/m² -1,4 °C 0,2 °C 0,0 km/h (0 Bft)
14.02.2025 19:23 22,1 °C 0,2 °C 49 % 89 % 1028,3 hPa 0,0 l/m² 0,1 km/h (0 Bft) N-NO 12 ° 0 min 0 W/m² -1,4 °C 0,2 °C 1,6 km/h (1 Bft)
14.02.2025 19:24 22,0 °C 0,2 °C 49 % 89 % 1028,3 hPa 0,0 l/m² 0,0 km/h (0 Bft) N-NO 12 ° 0 min 0 W/m² -1,4 °C 0,2 °C 0,0 km/h (0 Bft)
14.02.2025 19:25 22,1 °C 0,2 °C 49 % 90 % 1028,3 hPa 0,0 l/m² 0,0 km/h (0 Bft) N-NO 12 ° 0 min 0 W/m² -1,2 °C 0,2 °C 0,0 km/h (0 Bft)
14.02.2025 19:26 22,1 °C 0,2 °C 49 % 89 % 1028,3 hPa 0,0 l/m² 0,0 km/h (0 Bft) N-NO 12 ° 0 min 0 W/m² -1,4 °C 0,2 °C 0,0 km/h (0 Bft)
14.02.2025 19:27 22,1 °C 0,2 °C 49 % 90 % 1028,3 hPa 0,0 l/m² 0,0 km/h (0 Bft) N-NO 12 ° 0 min 0 W/m² -1,2 °C 0,2 °C 0,0 km/h (0 Bft)
14.02.2025 19:28 22,1 °C 0,2 °C 49 % 90 % 1028,3 hPa 0,0 l/m² 0,0 km/h (0 Bft) N-NO 12 ° 0 min 0 W/m² -1,2 °C 0,2 °C 0,0 km/h (0 Bft)
14.02.2025 19:29 22,1 °C 0,2 °C 49 % 90 % 1028,2 hPa 0,0 l/m² 0,1 km/h (0 Bft) N-NO 12 ° 0 min 0 W/m² -1,2 °C 0,2 °C 1,6 km/h (1 Bft)
14.02.2025 19:30 22,1 °C 0,2 °C 49 % 90 % 1028,3 hPa 0,0 l/m² 0,0 km/h (0 Bft) N-NO 12 ° 0 min 0 W/m² -1,2 °C 0,2 °C 0,0 km/h (0 Bft)
14.02.2025 19:32 22,1 °C 0,1 °C 49 % 90 % 1028,3 hPa 0,0 l/m² 0,0 km/h (0 Bft) N-NO 12 ° 0 min 0 W/m² -1,3 °C 0,1 °C 0,0 km/h (0 Bft)
14.02.2025 19:33 22,1 °C 0,1 °C 49 % 90 % 1028,3 hPa 0,0 l/m² 0,0 km/h (0 Bft) N-NO 12 ° 0 min 0 W/m² -1,3 °C 0,1 °C 0,0 km/h (0 Bft)
14.02.2025 19:34 22,1 °C 0,1 °C 49 % 90 % 1028,3 hPa 0,0 l/m² 0,0 km/h (0 Bft) N-NO 12 ° 0 min 0 W/m² -1,3 °C 0,1 °C 0,0 km/h (0 Bft)
14.02.2025 19:35 22,1 °C 0,1 °C 49 % 90 % 1028,3 hPa 0,0 l/m² 0,0 km/h (0 Bft) N-NO 12 ° 0 min 0 W/m² -1,3 °C 0,1 °C 0,0 km/h (0 Bft)
14.02.2025 19:36 22,1 °C 0,1 °C 49 % 90 % 1028,3 hPa 0,0 l/m² 0,0 km/h (0 Bft) N-NO 12 ° 0 min 0 W/m² -1,3 °C 0,1 °C 0,0 km/h (0 Bft)
14.02.2025 19:37 22,1 °C 0,1 °C 49 % 90 % 1028,3 hPa 0,0 l/m² 0,0 km/h (0 Bft) N-NO 12 ° 0 min 0 W/m² -1,3 °C 0,1 °C 0,0 km/h (0 Bft)
14.02.2025 19:38 22,1 °C 0,1 °C 49 % 90 % 1028,3 hPa 0,0 l/m² 0,0 km/h (0 Bft) N-NO 12 ° 0 min 0 W/m² -1,3 °C 0,1 °C 0,0 km/h (0 Bft)
14.02.2025 19:39 22,1 °C 0,1 °C 49 % 90 % 1028,3 hPa 0,0 l/m² 0,0 km/h (0 Bft) N-NO 12 ° 0 min 0 W/m² -1,3 °C 0,1 °C 0,0 km/h (0 Bft)
14.02.2025 19:40 22,1 °C 0,1 °C 50 % 90 % 1028,3 hPa 0,0 l/m² 0,0 km/h (0 Bft) N-NO 12 ° 0 min 0 W/m² -1,3 °C 0,1 °C 0,0 km/h (0 Bft)
14.02.2025 19:42 22,1 °C 0,1 °C 50 % 90 % 1028,3 hPa 0,0 l/m² 0,0 km/h (0 Bft) N-NO 12 ° 0 min 0 W/m² -1,3 °C 0,1 °C 0,0 km/h (0 Bft)
14.02.2025 19:44 22,1 °C 0,1 °C 50 % 90 % 1028,3 hPa 0,0 l/m² 0,0 km/h (0 Bft) N-NO 12 ° 0 min 0 W/m² -1,3 °C 0,1 °C 0,0 km/h (0 Bft)
14.02.2025 19:45 22,1 °C 0,1 °C 50 % 90 % 1028,3 hPa 0,0 l/m² 0,0 km/h (0 Bft) N-NO 12 ° 0 min 0 W/m² -1,3 °C 0,1 °C 0,0 km/h (0 Bft)
14.02.2025 19:46 22,2 °C 0,1 °C 50 % 90 % 1028,3 hPa 0,0 l/m² 0,0 km/h (0 Bft) N-NO 12 ° 0 min 0 W/m² -1,3 °C 0,1 °C 0,0 km/h (0 Bft)
14.02.2025 19:47 22,1 °C 0,0 °C 50 % 90 % 1028,3 hPa 0,0 l/m² 0,0 km/h (0 Bft) N-NO 12 ° 0 min 0 W/m² -1,4 °C 0,0 °C 0,0 km/h (0 Bft)
14.02.2025 19:48 22,1 °C 0,0 °C 50 % 90 % 1028,3 hPa 0,0 l/m² 0,0 km/h (0 Bft) N-NO 12 ° 0 min 0 W/m² -1,4 °C 0,0 °C 0,0 km/h (0 Bft)
14.02.2025 19:49 22,2 °C 0,0 °C 50 % 90 % 1028,3 hPa 0,0 l/m² 0,0 km/h (0 Bft) N-NO 12 ° 0 min 0 W/m² -1,4 °C 0,0 °C 0,0 km/h (0 Bft)
14.02.2025 19:51 22,1 °C 0,0 °C 50 % 90 % 1028,4 hPa 0,0 l/m² 0,0 km/h (0 Bft) N-NO 12 ° 0 min 0 W/m² -1,4 °C 0,0 °C 0,0 km/h (0 Bft)
14.02.2025 19:53 22,2 °C 0,0 °C 50 % 90 % 1028,3 hPa 0,0 l/m² 0,0 km/h (0 Bft) N-NO 12 ° 0 min 0 W/m² -1,4 °C 0,0 °C 0,0 km/h (0 Bft)
14.02.2025 19:54 22,2 °C 0,0 °C 50 % 90 % 1028,3 hPa 0,0 l/m² 0,0 km/h (0 Bft) N-NO 12 ° 0 min 0 W/m² -1,4 °C 0,0 °C 0,0 km/h (0 Bft)
14.02.2025 19:55 22,2 °C 0,0 °C 50 % 90 % 1028,3 hPa 0,0 l/m² 0,0 km/h (0 Bft) N-NO 12 ° 0 min 0 W/m² -1,4 °C 0,0 °C 0,0 km/h (0 Bft)
14.02.2025 19:56 22,2 °C 0,0 °C 50 % 90 % 1028,4 hPa 0,0 l/m² 0,0 km/h (0 Bft) N-NO 12 ° 0 min 0 W/m² -1,4 °C 0,0 °C 0,0 km/h (0 Bft)
14.02.2025 19:57 22,2 °C -0,1 °C 50 % 90 % 1028,3 hPa 0,0 l/m² 0,0 km/h (0 Bft) N-NO 12 ° 0 min 0 W/m² -1,5 °C -0,1 °C 0,0 km/h (0 Bft)
14.02.2025 19:58 22,2 °C 0,0 °C 50 % 90 % 1028,4 hPa 0,0 l/m² 0,0 km/h (0 Bft) N-NO 12 ° 0 min 0 W/m² -1,4 °C 0,0 °C 0,0 km/h (0 Bft)
14.02.2025 19:59 22,2 °C -0,1 °C 50 % 90 % 1028,4 hPa 0,0 l/m² 0,0 km/h (0 Bft) N-NO 12 ° 0 min 0 W/m² -1,5 °C -0,1 °C 0,0 km/h (0 Bft)
14.02.2025 20:00 22,2 °C -0,1 °C 50 % 90 % 1028,3 hPa 0,0 l/m² 0,0 km/h (0 Bft) N-NO 12 ° 0 min 0 W/m² -1,5 °C -0,1 °C 0,0 km/h (0 Bft)
14.02.2025 20:01 22,2 °C -0,1 °C 50 % 90 % 1028,3 hPa 0,0 l/m² 0,0 km/h (0 Bft) N-NO 12 ° 0 min 0 W/m² -1,5 °C -0,1 °C 0,0 km/h (0 Bft)
14.02.2025 20:02 22,2 °C -0,1 °C 50 % 90 % 1028,3 hPa 0,0 l/m² 0,0 km/h (0 Bft) N-NO 12 ° 0 min 0 W/m² -1,5 °C -0,1 °C 0,0 km/h (0 Bft)
14.02.2025 20:03 22,2 °C -0,1 °C 50 % 90 % 1028,4 hPa 0,0 l/m² 0,0 km/h (0 Bft) N-NO 12 ° 0 min 0 W/m² -1,5 °C -0,1 °C 0,0 km/h (0 Bft)
14.02.2025 20:04 22,2 °C -0,1 °C 50 % 90 % 1028,4 hPa 0,0 l/m² 0,0 km/h (0 Bft) N-NO 12 ° 0 min 0 W/m² -1,5 °C -0,1 °C 0,0 km/h (0 Bft)
14.02.2025 20:05 22,2 °C -0,1 °C 50 % 90 % 1028,4 hPa 0,0 l/m² 0,0 km/h (0 Bft) N-NO 12 ° 0 min 0 W/m² -1,5 °C -0,1 °C 0,0 km/h (0 Bft)
14.02.2025 20:06 22,2 °C -0,1 °C 50 % 90 % 1028,4 hPa 0,0 l/m² 0,0 km/h (0 Bft) N-NO 12 ° 0 min 0 W/m² -1,5 °C -0,1 °C 0,0 km/h (0 Bft)
14.02.2025 20:07 22,2 °C -0,1 °C 50 % 90 % 1028,4 hPa 0,0 l/m² 0,0 km/h (0 Bft) N-NO 12 ° 0 min 0 W/m² -1,5 °C -0,1 °C 0,0 km/h (0 Bft)
14.02.2025 20:08 22,2 °C -0,1 °C 50 % 90 % 1028,4 hPa 0,0 l/m² 0,0 km/h (0 Bft) N-NO 12 ° 0 min 0 W/m² -1,5 °C -0,1 °C 0,0 km/h (0 Bft)
14.02.2025 20:09 22,2 °C -0,1 °C 50 % 90 % 1028,4 hPa 0,0 l/m² 0,0 km/h (0 Bft) N-NO 12 ° 0 min 0 W/m² -1,5 °C -0,1 °C 0,0 km/h (0 Bft)
14.02.2025 20:10 22,2 °C -0,1 °C 50 % 90 % 1028,3 hPa 0,0 l/m² 0,0 km/h (0 Bft) N-NO 12 ° 0 min 0 W/m² -1,5 °C -0,1 °C 0,0 km/h (0 Bft)
14.02.2025 20:12 22,2 °C -0,1 °C 50 % 90 % 1028,4 hPa 0,0 l/m² 0,0 km/h (0 Bft) N-NO 12 ° 0 min 0 W/m² -1,5 °C -0,1 °C 0,0 km/h (0 Bft)
14.02.2025 20:14 22,2 °C -0,1 °C 50 % 90 % 1028,3 hPa 0,0 l/m² 0,0 km/h (0 Bft) N-NO 12 ° 0 min 0 W/m² -1,5 °C -0,1 °C 0,0 km/h (0 Bft)
14.02.2025 20:15 22,2 °C -0,1 °C 50 % 90 % 1028,4 hPa 0,0 l/m² 0,0 km/h (0 Bft) N-NO 12 ° 0 min 0 W/m² -1,5 °C -0,1 °C 0,0 km/h (0 Bft)
14.02.2025 20:16 22,3 °C -0,1 °C 50 % 90 % 1028,5 hPa 0,0 l/m² 0,0 km/h (0 Bft) N-NO 12 ° 0 min 0 W/m² -1,5 °C -0,1 °C 0,0 km/h (0 Bft)
14.02.2025 20:17 22,2 °C -0,1 °C 50 % 90 % 1028,3 hPa 0,0 l/m² 0,0 km/h (0 Bft) N-NO 12 ° 0 min 0 W/m² -1,5 °C -0,1 °C 0,0 km/h (0 Bft)
14.02.2025 20:18 22,2 °C -0,1 °C 50 % 90 % 1028,5 hPa 0,0 l/m² 0,0 km/h (0 Bft) N-NO 12 ° 0 min 0 W/m² -1,5 °C -0,1 °C 0,0 km/h (0 Bft)
14.02.2025 20:19 22,2 °C -0,2 °C 50 % 90 % 1028,5 hPa 0,0 l/m² 0,0 km/h (0 Bft) N-NO 12 ° 0 min 0 W/m² -1,6 °C -0,2 °C 0,0 km/h (0 Bft)
14.02.2025 20:20 22,2 °C -0,2 °C 50 % 90 % 1028,5 hPa 0,0 l/m² 0,0 km/h (0 Bft) N-NO 12 ° 0 min 0 W/m² -1,6 °C -0,2 °C 0,0 km/h (0 Bft)
14.02.2025 20:22 22,2 °C -0,2 °C 50 % 90 % 1028,5 hPa 0,0 l/m² 0,0 km/h (0 Bft) N-NO 12 ° 0 min 0 W/m² -1,6 °C -0,2 °C 0,0 km/h (0 Bft)
14.02.2025 20:24 22,2 °C -0,2 °C 50 % 90 % 1028,5 hPa 0,0 l/m² 0,0 km/h (0 Bft) N-NO 12 ° 0 min 0 W/m² -1,6 °C -0,2 °C 0,0 km/h (0 Bft)
14.02.2025 20:25 22,3 °C -0,2 °C 50 % 90 % 1028,4 hPa 0,0 l/m² 0,0 km/h (0 Bft) N-NO 12 ° 0 min 0 W/m² -1,6 °C -0,2 °C 0,0 km/h (0 Bft)
14.02.2025 20:26 22,2 °C -0,2 °C 50 % 90 % 1028,5 hPa 0,0 l/m² 0,1 km/h (0 Bft) N-NO 12 ° 0 min 0 W/m² -1,6 °C -0,2 °C 1,6 km/h (1 Bft)
14.02.2025 20:27 22,2 °C -0,2 °C 50 % 90 % 1028,5 hPa 0,0 l/m² 0,3 km/h (0 Bft) N-NO 12 ° 0 min 0 W/m² -1,6 °C -0,2 °C 1,6 km/h (1 Bft)
14.02.2025 20:28 22,2 °C -0,2 °C 50 % 90 % 1028,5 hPa 0,0 l/m² 3,6 km/h (1 Bft) N 11 ° 0 min 0 W/m² -1,6 °C -0,2 °C 6,4 km/h (2 Bft)
14.02.2025 20:29 22,2 °C -0,2 °C 50 % 90 % 1028,5 hPa 0,0 l/m² 3,1 km/h (1 Bft) N 9 ° 0 min 0 W/m² -1,6 °C -0,2 °C 4,8 km/h (1 Bft)
14.02.2025 20:30 22,2 °C -0,2 °C 50 % 90 % 1028,5 hPa 0,0 l/m² 3,9 km/h (1 Bft) N 355 ° 0 min 0 W/m² -1,6 °C -0,2 °C 6,4 km/h (2 Bft)
14.02.2025 20:32 22,3 °C -0,2 °C 50 % 90 % 1028,5 hPa 0,0 l/m² 0,7 km/h (0 Bft) N 355 ° 0 min 0 W/m² -1,6 °C -0,2 °C 3,2 km/h (1 Bft)
14.02.2025 20:34 22,3 °C -0,2 °C 50 % 90 % 1028,6 hPa 0,0 l/m² 1,5 km/h (1 Bft) N 355 ° 0 min 0 W/m² -1,6 °C -0,2 °C 3,2 km/h (1 Bft)
14.02.2025 20:35 22,3 °C -0,2 °C 50 % 90 % 1028,6 hPa 0,0 l/m² 0,0 km/h (0 Bft) N 355 ° 0 min 0 W/m² -1,6 °C -0,2 °C 0,0 km/h (0 Bft)
14.02.2025 20:36 22,3 °C -0,2 °C 50 % 90 % 1028,5 hPa 0,0 l/m² 0,0 km/h (0 Bft) N 355 ° 0 min 0 W/m² -1,6 °C -0,2 °C 0,0 km/h (0 Bft)
14.02.2025 20:37 22,2 °C -0,2 °C 50 % 90 % 1028,6 hPa 0,0 l/m² 0,0 km/h (0 Bft) N 355 ° 0 min 0 W/m² -1,6 °C -0,2 °C 0,0 km/h (0 Bft)
14.02.2025 20:38 22,3 °C -0,2 °C 50 % 90 % 1028,6 hPa 0,0 l/m² 0,0 km/h (0 Bft) N 355 ° 0 min 0 W/m² -1,6 °C -0,2 °C 0,0 km/h (0 Bft)
14.02.2025 20:39 22,3 °C -0,2 °C 50 % 90 % 1028,6 hPa 0,0 l/m² 0,3 km/h (0 Bft) N 355 ° 0 min 0 W/m² -1,6 °C -0,2 °C 1,6 km/h (1 Bft)
14.02.2025 20:40 22,3 °C -0,2 °C 50 % 90 % 1028,6 hPa 0,0 l/m² 0,0 km/h (0 Bft) N 355 ° 0 min 0 W/m² -1,6 °C -0,2 °C 0,0 km/h (0 Bft)
14.02.2025 20:41 22,3 °C -0,2 °C 50 % 90 % 1028,5 hPa 0,0 l/m² 0,0 km/h (0 Bft) N 355 ° 0 min 0 W/m² -1,6 °C -0,2 °C 0,0 km/h (0 Bft)
14.02.2025 20:42 22,3 °C -0,2 °C 50 % 90 % 1028,5 hPa 0,0 l/m² 0,4 km/h (0 Bft) N 355 ° 0 min 0 W/m² -1,6 °C -0,2 °C 3,2 km/h (1 Bft)
14.02.2025 20:43 22,3 °C -0,2 °C 50 % 90 % 1028,6 hPa 0,0 l/m² 0,8 km/h (0 Bft) N 355 ° 0 min 0 W/m² -1,6 °C -0,2 °C 3,2 km/h (1 Bft)
14.02.2025 20:44 22,3 °C -0,2 °C 50 % 90 % 1028,7 hPa 0,0 l/m² 0,0 km/h (0 Bft) N 355 ° 0 min 0 W/m² -1,6 °C -0,2 °C 0,0 km/h (0 Bft)
14.02.2025 20:45 22,3 °C -0,2 °C 50 % 90 % 1028,6 hPa 0,0 l/m² 0,0 km/h (0 Bft) N 355 ° 0 min 0 W/m² -1,6 °C -0,2 °C 0,0 km/h (0 Bft)
14.02.2025 20:46 22,3 °C -0,2 °C 50 % 90 % 1028,7 hPa 0,0 l/m² 0,2 km/h (0 Bft) N 355 ° 0 min 0 W/m² -1,6 °C -0,2 °C 1,6 km/h (1 Bft)
14.02.2025 20:47 22,3 °C -0,2 °C 50 % 90 % 1028,6 hPa 0,0 l/m² 0,0 km/h (0 Bft) N 355 ° 0 min 0 W/m² -1,6 °C -0,2 °C 0,0 km/h (0 Bft)
14.02.2025 20:48 22,3 °C -0,2 °C 50 % 90 % 1028,6 hPa 0,0 l/m² 0,1 km/h (0 Bft) N 355 ° 0 min 0 W/m² -1,6 °C -0,2 °C 1,6 km/h (1 Bft)
14.02.2025 20:49 22,3 °C -0,2 °C 50 % 90 % 1028,7 hPa 0,0 l/m² 0,0 km/h (0 Bft) N 355 ° 0 min 0 W/m² -1,6 °C -0,2 °C 0,0 km/h (0 Bft)
14.02.2025 20:50 22,3 °C -0,2 °C 50 % 90 % 1028,6 hPa 0,0 l/m² 0,2 km/h (0 Bft) N 355 ° 0 min 0 W/m² -1,6 °C -0,2 °C 1,6 km/h (1 Bft)
14.02.2025 20:51 22,3 °C -0,2 °C 50 % 90 % 1028,6 hPa 0,0 l/m² 0,0 km/h (0 Bft) N 355 ° 0 min 0 W/m² -1,6 °C -0,2 °C 0,0 km/h (0 Bft)
14.02.2025 20:52 22,3 °C -0,2 °C 50 % 90 % 1028,6 hPa 0,0 l/m² 0,1 km/h (0 Bft) N 355 ° 0 min 0 W/m² -1,6 °C -0,2 °C 1,6 km/h (1 Bft)
14.02.2025 20:53 22,3 °C -0,2 °C 50 % 90 % 1028,5 hPa 0,0 l/m² 1,5 km/h (1 Bft) N 355 ° 0 min 0 W/m² -1,6 °C -0,2 °C 3,2 km/h (1 Bft)
14.02.2025 20:54 22,3 °C -0,2 °C 50 % 90 % 1028,6 hPa 0,0 l/m² 0,1 km/h (0 Bft) N 355 ° 0 min 0 W/m² -1,6 °C -0,2 °C 1,6 km/h (1 Bft)
14.02.2025 20:55 22,3 °C -0,2 °C 50 % 90 % 1028,7 hPa 0,0 l/m² 0,0 km/h (0 Bft) N 355 ° 0 min 0 W/m² -1,6 °C -0,2 °C 0,0 km/h (0 Bft)
14.02.2025 20:56 22,3 °C -0,2 °C 50 % 90 % 1028,7 hPa 0,0 l/m² 0,0 km/h (0 Bft) N 355 ° 0 min 0 W/m² -1,6 °C -0,2 °C 0,0 km/h (0 Bft)
14.02.2025 20:57 22,3 °C -0,2 °C 50 % 90 % 1028,7 hPa 0,0 l/m² 0,0 km/h (0 Bft) N 355 ° 0 min 0 W/m² -1,6 °C -0,2 °C 0,0 km/h (0 Bft)
14.02.2025 20:58 22,3 °C -0,2 °C 50 % 90 % 1028,8 hPa 0,0 l/m² 0,0 km/h (0 Bft) N 355 ° 0 min 0 W/m² -1,6 °C -0,2 °C 0,0 km/h (0 Bft)
14.02.2025 20:59 22,3 °C -0,2 °C 50 % 90 % 1028,8 hPa 0,0 l/m² 0,0 km/h (0 Bft) N 355 ° 0 min 0 W/m² -1,6 °C -0,2 °C 0,0 km/h (0 Bft)
14.02.2025 21:00 22,3 °C -0,2 °C 50 % 90 % 1028,8 hPa 0,0 l/m² 0,0 km/h (0 Bft) N 355 ° 0 min 0 W/m² -1,6 °C -0,2 °C 0,0 km/h (0 Bft)
14.02.2025 21:01 22,3 °C -0,2 °C 50 % 90 % 1028,8 hPa 0,0 l/m² 0,0 km/h (0 Bft) N 355 ° 0 min 0 W/m² -1,6 °C -0,2 °C 0,0 km/h (0 Bft)
14.02.2025 21:02 22,3 °C -0,2 °C 50 % 90 % 1028,8 hPa 0,0 l/m² 0,0 km/h (0 Bft) N 355 ° 0 min 0 W/m² -1,6 °C -0,2 °C 0,0 km/h (0 Bft)
14.02.2025 21:03 22,3 °C -0,2 °C 50 % 90 % 1028,8 hPa 0,0 l/m² 0,0 km/h (0 Bft) N 355 ° 0 min 0 W/m² -1,6 °C -0,2 °C 0,0 km/h (0 Bft)
14.02.2025 21:04 22,3 °C -0,2 °C 50 % 90 % 1028,8 hPa 0,0 l/m² 0,0 km/h (0 Bft) N 355 ° 0 min 0 W/m² -1,6 °C -0,2 °C 0,0 km/h (0 Bft)
14.02.2025 21:05 22,3 °C -0,2 °C 50 % 90 % 1028,8 hPa 0,0 l/m² 0,0 km/h (0 Bft) N 355 ° 0 min 0 W/m² -1,6 °C -0,2 °C 0,0 km/h (0 Bft)
14.02.2025 21:06 22,3 °C -0,2 °C 50 % 90 % 1028,9 hPa 0,0 l/m² 0,0 km/h (0 Bft) N 355 ° 0 min 0 W/m² -1,6 °C -0,2 °C 0,0 km/h (0 Bft)
14.02.2025 21:07 22,3 °C -0,2 °C 50 % 90 % 1028,7 hPa 0,0 l/m² 0,0 km/h (0 Bft) N 355 ° 0 min 0 W/m² -1,6 °C -0,2 °C 0,0 km/h (0 Bft)
14.02.2025 21:08 22,3 °C -0,2 °C 50 % 90 % 1028,7 hPa 0,0 l/m² 0,1 km/h (0 Bft) N 355 ° 0 min 0 W/m² -1,6 °C -0,2 °C 1,6 km/h (1 Bft)
14.02.2025 21:09 22,4 °C -0,2 °C 50 % 90 % 1028,8 hPa 0,0 l/m² 0,0 km/h (0 Bft) N 355 ° 0 min 0 W/m² -1,6 °C -0,2 °C 0,0 km/h (0 Bft)
14.02.2025 21:10 22,3 °C -0,2 °C 50 % 90 % 1028,8 hPa 0,0 l/m² 0,0 km/h (0 Bft) N 355 ° 0 min 0 W/m² -1,6 °C -0,2 °C 0,0 km/h (0 Bft)
14.02.2025 21:11 22,3 °C -0,2 °C 50 % 90 % 1028,7 hPa 0,0 l/m² 0,0 km/h (0 Bft) N 355 ° 0 min 0 W/m² -1,6 °C -0,2 °C 0,0 km/h (0 Bft)
14.02.2025 21:12 22,3 °C -0,2 °C 50 % 90 % 1028,8 hPa 0,0 l/m² 0,0 km/h (0 Bft) N 355 ° 0 min 0 W/m² -1,6 °C -0,2 °C 0,0 km/h (0 Bft)
14.02.2025 21:13 22,3 °C -0,2 °C 50 % 90 % 1028,8 hPa 0,0 l/m² 0,0 km/h (0 Bft) N 355 ° 0 min 0 W/m² -1,6 °C -0,2 °C 0,0 km/h (0 Bft)
14.02.2025 21:14 22,4 °C -0,2 °C 50 % 90 % 1028,8 hPa 0,0 l/m² 0,0 km/h (0 Bft) N 355 ° 0 min 0 W/m² -1,6 °C -0,2 °C 0,0 km/h (0 Bft)
14.02.2025 21:15 22,3 °C -0,2 °C 50 % 90 % 1028,9 hPa 0,0 l/m² 0,0 km/h (0 Bft) N 355 ° 0 min 0 W/m² -1,6 °C -0,2 °C 0,0 km/h (0 Bft)
14.02.2025 21:16 22,3 °C -0,2 °C 50 % 90 % 1028,9 hPa 0,0 l/m² 0,0 km/h (0 Bft) N 355 ° 0 min 0 W/m² -1,6 °C -0,2 °C 0,0 km/h (0 Bft)
14.02.2025 21:17 22,4 °C -0,2 °C 50 % 90 % 1028,8 hPa 0,0 l/m² 0,0 km/h (0 Bft) N 355 ° 0 min 0 W/m² -1,6 °C -0,2 °C 0,0 km/h (0 Bft)
14.02.2025 21:18 22,3 °C -0,2 °C 50 % 90 % 1028,8 hPa 0,0 l/m² 0,0 km/h (0 Bft) N 355 ° 0 min 0 W/m² -1,6 °C -0,2 °C 0,0 km/h (0 Bft)
14.02.2025 21:19 22,4 °C -0,2 °C 50 % 90 % 1028,8 hPa 0,0 l/m² 0,0 km/h (0 Bft) N 355 ° 0 min 0 W/m² -1,6 °C -0,2 °C 0,0 km/h (0 Bft)
14.02.2025 21:20 22,4 °C -0,2 °C 50 % 90 % 1028,9 hPa 0,0 l/m² 0,0 km/h (0 Bft) N 355 ° 0 min 0 W/m² -1,6 °C -0,2 °C 0,0 km/h (0 Bft)
14.02.2025 21:21 22,4 °C -0,2 °C 50 % 90 % 1028,8 hPa 0,0 l/m² 0,0 km/h (0 Bft) N 355 ° 0 min 0 W/m² -1,6 °C -0,2 °C 0,0 km/h (0 Bft)
14.02.2025 21:22 22,3 °C -0,2 °C 50 % 90 % 1028,9 hPa 0,0 l/m² 0,0 km/h (0 Bft) N 355 ° 0 min 0 W/m² -1,6 °C -0,2 °C 0,0 km/h (0 Bft)
14.02.2025 21:23 22,4 °C -0,2 °C 50 % 90 % 1028,8 hPa 0,0 l/m² 0,0 km/h (0 Bft) N 355 ° 0 min 0 W/m² -1,6 °C -0,2 °C 0,0 km/h (0 Bft)
14.02.2025 21:24 22,4 °C -0,2 °C 50 % 90 % 1028,7 hPa 0,0 l/m² 0,0 km/h (0 Bft) N 355 ° 0 min 0 W/m² -1,6 °C -0,2 °C 0,0 km/h (0 Bft)
14.02.2025 21:25 22,4 °C -0,2 °C 50 % 90 % 1028,8 hPa 0,0 l/m² 0,0 km/h (0 Bft) N 355 ° 0 min 0 W/m² -1,6 °C -0,2 °C 0,0 km/h (0 Bft)
14.02.2025 21:26 22,4 °C -0,2 °C 50 % 90 % 1028,9 hPa 0,0 l/m² 0,0 km/h (0 Bft) N 355 ° 0 min 0 W/m² -1,6 °C -0,2 °C 0,0 km/h (0 Bft)
14.02.2025 21:27 22,4 °C -0,2 °C 50 % 90 % 1028,8 hPa 0,0 l/m² 0,0 km/h (0 Bft) N 355 ° 0 min 0 W/m² -1,6 °C -0,2 °C 0,0 km/h (0 Bft)
14.02.2025 21:29 22,4 °C -0,2 °C 50 % 90 % 1028,8 hPa 0,0 l/m² 0,0 km/h (0 Bft) N 355 ° 0 min 0 W/m² -1,6 °C -0,2 °C 0,0 km/h (0 Bft)
14.02.2025 21:30 22,4 °C -0,2 °C 50 % 90 % 1028,8 hPa 0,0 l/m² 0,0 km/h (0 Bft) N 355 ° 0 min 0 W/m² -1,6 °C -0,2 °C 0,0 km/h (0 Bft)
14.02.2025 21:31 22,4 °C -0,2 °C 50 % 90 % 1028,9 hPa 0,0 l/m² 0,0 km/h (0 Bft) N 355 ° 0 min 0 W/m² -1,6 °C -0,2 °C 0,0 km/h (0 Bft)
14.02.2025 21:32 22,4 °C -0,2 °C 50 % 90 % 1028,8 hPa 0,0 l/m² 0,0 km/h (0 Bft) N 355 ° 0 min 0 W/m² -1,6 °C -0,2 °C 0,0 km/h (0 Bft)
14.02.2025 21:33 22,4 °C -0,2 °C 50 % 90 % 1028,8 hPa 0,0 l/m² 0,0 km/h (0 Bft) N 355 ° 0 min 0 W/m² -1,6 °C -0,2 °C 0,0 km/h (0 Bft)
14.02.2025 21:34 22,4 °C -0,3 °C 49 % 90 % 1028,9 hPa 0,0 l/m² 0,0 km/h (0 Bft) N 355 ° 0 min 0 W/m² -1,7 °C -0,3 °C 0,0 km/h (0 Bft)
14.02.2025 21:35 22,4 °C -0,2 °C 49 % 90 % 1028,8 hPa 0,0 l/m² 0,0 km/h (0 Bft) N 355 ° 0 min 0 W/m² -1,6 °C -0,2 °C 0,0 km/h (0 Bft)
14.02.2025 21:36 22,4 °C -0,2 °C 49 % 90 % 1028,9 hPa 0,0 l/m² 0,0 km/h (0 Bft) N 355 ° 0 min 0 W/m² -1,6 °C -0,2 °C 0,0 km/h (0 Bft)
14.02.2025 21:37 22,4 °C -0,2 °C 49 % 90 % 1028,9 hPa 0,0 l/m² 0,0 km/h (0 Bft) N 355 ° 0 min 0 W/m² -1,6 °C -0,2 °C 0,0 km/h (0 Bft)
14.02.2025 21:38 22,4 °C -0,2 °C 49 % 90 % 1028,9 hPa 0,0 l/m² 0,0 km/h (0 Bft) N 355 ° 0 min 0 W/m² -1,6 °C -0,2 °C 0,0 km/h (0 Bft)
14.02.2025 21:39 22,4 °C -0,2 °C 49 % 90 % 1028,8 hPa 0,0 l/m² 0,1 km/h (0 Bft) N 355 ° 0 min 0 W/m² -1,6 °C -0,2 °C 1,6 km/h (1 Bft)
14.02.2025 21:40 22,4 °C -0,3 °C 49 % 90 % 1028,9 hPa 0,0 l/m² 0,3 km/h (0 Bft) N 355 ° 0 min 0 W/m² -1,7 °C -0,3 °C 1,6 km/h (1 Bft)
14.02.2025 21:41 22,4 °C -0,3 °C 49 % 90 % 1028,9 hPa 0,0 l/m² 0,0 km/h (0 Bft) N 355 ° 0 min 0 W/m² -1,7 °C -0,3 °C 0,0 km/h (0 Bft)
14.02.2025 21:42 22,4 °C -0,2 °C 49 % 90 % 1028,9 hPa 0,0 l/m² 0,1 km/h (0 Bft) N 355 ° 0 min 0 W/m² -1,6 °C -0,2 °C 1,6 km/h (1 Bft)
14.02.2025 21:43 22,4 °C -0,3 °C 49 % 90 % 1028,8 hPa 0,0 l/m² 0,0 km/h (0 Bft) N 355 ° 0 min 0 W/m² -1,7 °C -0,3 °C 0,0 km/h (0 Bft)
14.02.2025 21:45 22,4 °C -0,2 °C 49 % 90 % 1028,9 hPa 0,0 l/m² 0,0 km/h (0 Bft) N 355 ° 0 min 0 W/m² -1,6 °C -0,2 °C 0,0 km/h (0 Bft)
14.02.2025 21:46 22,4 °C -0,3 °C 49 % 90 % 1028,9 hPa 0,0 l/m² 0,0 km/h (0 Bft) N 355 ° 0 min 0 W/m² -1,7 °C -0,3 °C 0,0 km/h (0 Bft)
14.02.2025 21:47 22,4 °C -0,3 °C 49 % 90 % 1028,9 hPa 0,0 l/m² 0,0 km/h (0 Bft) N 355 ° 0 min 0 W/m² -1,7 °C -0,3 °C 0,0 km/h (0 Bft)
14.02.2025 21:48 22,4 °C -0,3 °C 49 % 90 % 1028,8 hPa 0,0 l/m² 0,0 km/h (0 Bft) N 355 ° 0 min 0 W/m² -1,7 °C -0,3 °C 0,0 km/h (0 Bft)
14.02.2025 21:49 22,4 °C -0,3 °C 49 % 90 % 1028,9 hPa 0,0 l/m² 0,0 km/h (0 Bft) N 355 ° 0 min 0 W/m² -1,7 °C -0,3 °C 0,0 km/h (0 Bft)
14.02.2025 21:50 22,4 °C -0,3 °C 49 % 90 % 1028,9 hPa 0,0 l/m² 0,0 km/h (0 Bft) N 355 ° 0 min 0 W/m² -1,7 °C -0,3 °C 0,0 km/h (0 Bft)
14.02.2025 21:51 22,5 °C -0,3 °C 49 % 90 % 1028,8 hPa 0,0 l/m² 0,0 km/h (0 Bft) N 355 ° 0 min 0 W/m² -1,7 °C -0,3 °C 0,0 km/h (0 Bft)
14.02.2025 21:52 22,4 °C -0,2 °C 49 % 90 % 1028,9 hPa 0,0 l/m² 0,0 km/h (0 Bft) N 355 ° 0 min 0 W/m² -1,6 °C -0,2 °C 0,0 km/h (0 Bft)
14.02.2025 21:53 22,4 °C -0,3 °C 49 % 90 % 1028,9 hPa 0,0 l/m² 0,0 km/h (0 Bft) N 355 ° 0 min 0 W/m² -1,7 °C -0,3 °C 0,0 km/h (0 Bft)
14.02.2025 21:54 22,4 °C -0,3 °C 49 % 90 % 1028,9 hPa 0,0 l/m² 0,0 km/h (0 Bft) N 355 ° 0 min 0 W/m² -1,7 °C -0,3 °C 0,0 km/h (0 Bft)
14.02.2025 21:55 22,4 °C -0,3 °C 49 % 90 % 1028,8 hPa 0,0 l/m² 0,0 km/h (0 Bft) N 355 ° 0 min 0 W/m² -1,7 °C -0,3 °C 0,0 km/h (0 Bft)
14.02.2025 21:56 22,5 °C -0,3 °C 49 % 90 % 1028,8 hPa 0,0 l/m² 0,0 km/h (0 Bft) N 355 ° 0 min 0 W/m² -1,7 °C -0,3 °C 0,0 km/h (0 Bft)
14.02.2025 21:57 22,5 °C -0,3 °C 49 % 90 % 1028,9 hPa 0,0 l/m² 0,0 km/h (0 Bft) N 355 ° 0 min 0 W/m² -1,7 °C -0,3 °C 0,0 km/h (0 Bft)
14.02.2025 21:58 22,5 °C -0,3 °C 49 % 90 % 1028,9 hPa 0,0 l/m² 0,0 km/h (0 Bft) N 355 ° 0 min 0 W/m² -1,7 °C -0,3 °C 0,0 km/h (0 Bft)
14.02.2025 21:59 22,5 °C -0,3 °C 49 % 90 % 1028,8 hPa 0,0 l/m² 0,0 km/h (0 Bft) N 355 ° 0 min 0 W/m² -1,7 °C -0,3 °C 0,0 km/h (0 Bft)
14.02.2025 22:00 22,5 °C -0,3 °C 49 % 90 % 1028,8 hPa 0,0 l/m² 0,0 km/h (0 Bft) N 355 ° 0 min 0 W/m² -1,7 °C -0,3 °C 0,0 km/h (0 Bft)
14.02.2025 22:01 22,5 °C -0,3 °C 49 % 90 % 1028,9 hPa 0,0 l/m² 0,0 km/h (0 Bft) N 355 ° 0 min 0 W/m² -1,7 °C -0,3 °C 0,0 km/h (0 Bft)
14.02.2025 22:02 22,5 °C -0,3 °C 49 % 90 % 1028,8 hPa 0,0 l/m² 0,0 km/h (0 Bft) N 355 ° 0 min 0 W/m² -1,7 °C -0,3 °C 0,0 km/h (0 Bft)
14.02.2025 22:03 22,5 °C -0,3 °C 49 % 90 % 1028,9 hPa 0,0 l/m² 0,0 km/h (0 Bft) N 355 ° 0 min 0 W/m² -1,7 °C -0,3 °C 0,0 km/h (0 Bft)
14.02.2025 22:04 22,5 °C -0,3 °C 49 % 90 % 1028,9 hPa 0,0 l/m² 0,0 km/h (0 Bft) N 355 ° 0 min 0 W/m² -1,7 °C -0,3 °C 0,0 km/h (0 Bft)
14.02.2025 22:05 22,5 °C -0,3 °C 49 % 90 % 1028,9 hPa 0,0 l/m² 0,0 km/h (0 Bft) N 355 ° 0 min 0 W/m² -1,7 °C -0,3 °C 0,0 km/h (0 Bft)
14.02.2025 22:06 22,5 °C -0,3 °C 49 % 90 % 1028,9 hPa 0,0 l/m² 0,0 km/h (0 Bft) N 355 ° 0 min 0 W/m² -1,7 °C -0,3 °C 0,0 km/h (0 Bft)
14.02.2025 22:07 22,5 °C -0,3 °C 48 % 90 % 1028,9 hPa 0,0 l/m² 0,0 km/h (0 Bft) N 355 ° 0 min 0 W/m² -1,7 °C -0,3 °C 0,0 km/h (0 Bft)
14.02.2025 22:08 22,5 °C -0,3 °C 48 % 90 % 1028,8 hPa 0,0 l/m² 0,0 km/h (0 Bft) N 355 ° 0 min 0 W/m² -1,7 °C -0,3 °C 0,0 km/h (0 Bft)
14.02.2025 22:09 22,5 °C -0,3 °C 48 % 90 % 1028,9 hPa 0,0 l/m² 0,0 km/h (0 Bft) N 355 ° 0 min 0 W/m² -1,7 °C -0,3 °C 0,0 km/h (0 Bft)
14.02.2025 22:10 22,5 °C -0,3 °C 48 % 90 % 1028,9 hPa 0,0 l/m² 0,0 km/h (0 Bft) N 355 ° 0 min 0 W/m² -1,7 °C -0,3 °C 0,0 km/h (0 Bft)
14.02.2025 22:11 22,5 °C -0,3 °C 48 % 90 % 1028,9 hPa 0,0 l/m² 0,0 km/h (0 Bft) N 355 ° 0 min 0 W/m² -1,7 °C -0,3 °C 0,0 km/h (0 Bft)
14.02.2025 22:12 22,5 °C -0,3 °C 48 % 90 % 1028,9 hPa 0,0 l/m² 0,0 km/h (0 Bft) N 355 ° 0 min 0 W/m² -1,7 °C -0,3 °C 0,0 km/h (0 Bft)
14.02.2025 22:13 22,5 °C -0,3 °C 48 % 90 % 1028,9 hPa 0,0 l/m² 0,0 km/h (0 Bft) N 355 ° 0 min 0 W/m² -1,7 °C -0,3 °C 0,0 km/h (0 Bft)
14.02.2025 22:14 22,4 °C -0,3 °C 48 % 90 % 1028,9 hPa 0,0 l/m² 0,0 km/h (0 Bft) N 355 ° 0 min 0 W/m² -1,7 °C -0,3 °C 0,0 km/h (0 Bft)
14.02.2025 22:15 22,5 °C -0,3 °C 48 % 90 % 1028,9 hPa 0,0 l/m² 0,0 km/h (0 Bft) N 355 ° 0 min 0 W/m² -1,7 °C -0,3 °C 0,0 km/h (0 Bft)
14.02.2025 22:16 22,5 °C -0,4 °C 48 % 90 % 1028,8 hPa 0,0 l/m² 0,0 km/h (0 Bft) N 355 ° 0 min 0 W/m² -1,8 °C -0,4 °C 0,0 km/h (0 Bft)
14.02.2025 22:18 22,5 °C -0,4 °C 48 % 90 % 1028,8 hPa 0,0 l/m² 1,3 km/h (1 Bft) N 355 ° 0 min 0 W/m² -1,8 °C -0,4 °C 3,2 km/h (1 Bft)
14.02.2025 22:19 22,5 °C -0,3 °C 48 % 90 % 1028,8 hPa 0,0 l/m² 1,8 km/h (1 Bft) N 355 ° 0 min 0 W/m² -1,7 °C -0,3 °C 3,2 km/h (1 Bft)
14.02.2025 22:20 22,5 °C -0,4 °C 48 % 90 % 1028,8 hPa 0,0 l/m² 1,9 km/h (1 Bft) N 355 ° 0 min 0 W/m² -1,8 °C -0,4 °C 3,2 km/h (1 Bft)
14.02.2025 22:21 22,5 °C -0,3 °C 48 % 90 % 1028,8 hPa 0,0 l/m² 2,1 km/h (1 Bft) N 355 ° 0 min 0 W/m² -1,7 °C -0,3 °C 3,2 km/h (1 Bft)
14.02.2025 22:22 22,5 °C -0,4 °C 48 % 90 % 1028,8 hPa 0,0 l/m² 2,2 km/h (1 Bft) N 355 ° 0 min 0 W/m² -1,8 °C -0,4 °C 3,2 km/h (1 Bft)
14.02.2025 22:23 22,5 °C -0,4 °C 48 % 90 % 1028,8 hPa 0,0 l/m² 1,7 km/h (1 Bft) N 355 ° 0 min 0 W/m² -1,8 °C -0,4 °C 3,2 km/h (1 Bft)
14.02.2025 22:24 22,5 °C -0,4 °C 48 % 90 % 1028,8 hPa 0,0 l/m² 1,7 km/h (1 Bft) N 355 ° 0 min 0 W/m² -1,8 °C -0,4 °C 3,2 km/h (1 Bft)
14.02.2025 22:25 22,5 °C -0,4 °C 48 % 90 % 1028,8 hPa 0,0 l/m² 1,3 km/h (1 Bft) N 355 ° 0 min 0 W/m² -1,8 °C -0,4 °C 3,2 km/h (1 Bft)
14.02.2025 22:26 22,4 °C -0,4 °C 48 % 90 % 1028,8 hPa 0,0 l/m² 1,3 km/h (1 Bft) N 355 ° 0 min 0 W/m² -1,8 °C -0,4 °C 3,2 km/h (1 Bft)
14.02.2025 22:27 22,5 °C -0,4 °C 48 % 90 % 1028,8 hPa 0,0 l/m² 0,1 km/h (0 Bft) N 355 ° 0 min 0 W/m² -1,8 °C -0,4 °C 1,6 km/h (1 Bft)
14.02.2025 22:28 22,5 °C -0,4 °C 48 % 90 % 1028,7 hPa 0,0 l/m² 0,0 km/h (0 Bft) N 355 ° 0 min 0 W/m² -1,8 °C -0,4 °C 0,0 km/h (0 Bft)
14.02.2025 22:29 22,5 °C -0,4 °C 48 % 90 % 1028,8 hPa 0,0 l/m² 0,0 km/h (0 Bft) N 355 ° 0 min 0 W/m² -1,8 °C -0,4 °C 0,0 km/h (0 Bft)
14.02.2025 22:30 22,5 °C -0,4 °C 48 % 90 % 1028,8 hPa 0,0 l/m² 0,0 km/h (0 Bft) N 355 ° 0 min 0 W/m² -1,8 °C -0,4 °C 0,0 km/h (0 Bft)
14.02.2025 22:31 22,4 °C -0,4 °C 48 % 90 % 1028,8 hPa 0,0 l/m² 0,0 km/h (0 Bft) N 355 ° 0 min 0 W/m² -1,8 °C -0,4 °C 0,0 km/h (0 Bft)
14.02.2025 22:32 22,5 °C -0,4 °C 48 % 90 % 1028,8 hPa 0,0 l/m² 0,0 km/h (0 Bft) N 355 ° 0 min 0 W/m² -1,8 °C -0,4 °C 0,0 km/h (0 Bft)
14.02.2025 22:33 22,5 °C -0,4 °C 48 % 90 % 1028,8 hPa 0,0 l/m² 0,1 km/h (0 Bft) N 355 ° 0 min 0 W/m² -1,8 °C -0,4 °C 1,6 km/h (1 Bft)
14.02.2025 22:34 22,5 °C -0,4 °C 48 % 90 % 1028,8 hPa 0,0 l/m² 0,1 km/h (0 Bft) N 355 ° 0 min 0 W/m² -1,8 °C -0,4 °C 1,6 km/h (1 Bft)
14.02.2025 22:35 22,4 °C -0,4 °C 48 % 90 % 1028,8 hPa 0,0 l/m² 0,1 km/h (0 Bft) N 355 ° 0 min 0 W/m² -1,8 °C -0,4 °C 1,6 km/h (1 Bft)
14.02.2025 22:36 22,4 °C -0,4 °C 48 % 90 % 1028,8 hPa 0,0 l/m² 0,2 km/h (0 Bft) N 355 ° 0 min 0 W/m² -1,8 °C -0,4 °C 1,6 km/h (1 Bft)
14.02.2025 22:37 22,4 °C -0,4 °C 48 % 90 % 1028,8 hPa 0,0 l/m² 2,3 km/h (1 Bft) N 355 ° 0 min 0 W/m² -1,8 °C -0,4 °C 3,2 km/h (1 Bft)
14.02.2025 22:38 22,5 °C -0,4 °C 48 % 91 % 1028,8 hPa 0,0 l/m² 1,8 km/h (1 Bft) N 355 ° 0 min 0 W/m² -1,7 °C -0,4 °C 3,2 km/h (1 Bft)
14.02.2025 22:39 22,4 °C -0,4 °C 48 % 90 % 1028,8 hPa 0,0 l/m² 0,2 km/h (0 Bft) N 355 ° 0 min 0 W/m² -1,8 °C -0,4 °C 1,6 km/h (1 Bft)
14.02.2025 22:40 22,5 °C -0,4 °C 48 % 91 % 1028,8 hPa 0,0 l/m² 0,0 km/h (0 Bft) N 355 ° 0 min 0 W/m² -1,7 °C -0,4 °C 0,0 km/h (0 Bft)
14.02.2025 22:41 22,5 °C -0,4 °C 48 % 91 % 1028,8 hPa 0,0 l/m² 0,0 km/h (0 Bft) N 355 ° 0 min 0 W/m² -1,7 °C -0,4 °C 0,0 km/h (0 Bft)
14.02.2025 22:42 22,4 °C -0,4 °C 48 % 90 % 1028,8 hPa 0,0 l/m² 0,0 km/h (0 Bft) N 355 ° 0 min 0 W/m² -1,8 °C -0,4 °C 0,0 km/h (0 Bft)
14.02.2025 22:43 22,4 °C -0,4 °C 48 % 90 % 1028,8 hPa 0,0 l/m² 0,0 km/h (0 Bft) N 355 ° 0 min 0 W/m² -1,8 °C -0,4 °C 0,0 km/h (0 Bft)
14.02.2025 22:44 22,4 °C -0,5 °C 48 % 90 % 1028,8 hPa 0,0 l/m² 0,0 km/h (0 Bft) N 355 ° 0 min 0 W/m² -1,9 °C -0,5 °C 0,0 km/h (0 Bft)
14.02.2025 22:45 22,4 °C -0,4 °C 48 % 90 % 1028,7 hPa 0,0 l/m² 0,0 km/h (0 Bft) N 355 ° 0 min 0 W/m² -1,8 °C -0,4 °C 0,0 km/h (0 Bft)
14.02.2025 22:46 22,4 °C -0,4 °C 48 % 90 % 1028,9 hPa 0,0 l/m² 0,0 km/h (0 Bft) N 355 ° 0 min 0 W/m² -1,8 °C -0,4 °C 0,0 km/h (0 Bft)
14.02.2025 22:47 22,4 °C -0,4 °C 48 % 90 % 1028,8 hPa 0,0 l/m² 0,0 km/h (0 Bft) N 355 ° 0 min 0 W/m² -1,8 °C -0,4 °C 0,0 km/h (0 Bft)
14.02.2025 22:48 22,4 °C -0,4 °C 48 % 90 % 1028,8 hPa 0,0 l/m² 0,0 km/h (0 Bft) N 355 ° 0 min 0 W/m² -1,8 °C -0,4 °C 0,0 km/h (0 Bft)
14.02.2025 22:49 22,4 °C -0,5 °C 48 % 90 % 1028,8 hPa 0,0 l/m² 0,0 km/h (0 Bft) N 355 ° 0 min 0 W/m² -1,9 °C -0,5 °C 0,0 km/h (0 Bft)
14.02.2025 22:50 22,4 °C -0,4 °C 48 % 90 % 1028,8 hPa 0,0 l/m² 0,0 km/h (0 Bft) N 355 ° 0 min 0 W/m² -1,8 °C -0,4 °C 0,0 km/h (0 Bft)
14.02.2025 22:51 22,4 °C -0,5 °C 47 % 90 % 1028,8 hPa 0,0 l/m² 0,0 km/h (0 Bft) N 355 ° 0 min 0 W/m² -1,9 °C -0,5 °C 0,0 km/h (0 Bft)
14.02.2025 22:52 22,4 °C -0,4 °C 48 % 90 % 1028,8 hPa 0,0 l/m² 0,0 km/h (0 Bft) N 355 ° 0 min 0 W/m² -1,8 °C -0,4 °C 0,0 km/h (0 Bft)
14.02.2025 22:53 22,4 °C -0,4 °C 48 % 90 % 1028,8 hPa 0,0 l/m² 0,0 km/h (0 Bft) N 355 ° 0 min 0 W/m² -1,8 °C -0,4 °C 0,0 km/h (0 Bft)
14.02.2025 22:54 22,4 °C -0,4 °C 48 % 90 % 1028,8 hPa 0,0 l/m² 0,0 km/h (0 Bft) N 355 ° 0 min 0 W/m² -1,8 °C -0,4 °C 0,0 km/h (0 Bft)
14.02.2025 22:55 22,5 °C -0,4 °C 48 % 90 % 1028,8 hPa 0,0 l/m² 0,0 km/h (0 Bft) N 355 ° 0 min 0 W/m² -1,8 °C -0,4 °C 0,0 km/h (0 Bft)
14.02.2025 22:56 22,5 °C -0,4 °C 47 % 90 % 1028,8 hPa 0,0 l/m² 0,3 km/h (0 Bft) N 355 ° 0 min 0 W/m² -1,8 °C -0,4 °C 1,6 km/h (1 Bft)
14.02.2025 22:57 22,4 °C -0,4 °C 47 % 90 % 1028,8 hPa 0,0 l/m² 1,1 km/h (1 Bft) N 355 ° 0 min 0 W/m² -1,8 °C -0,4 °C 3,2 km/h (1 Bft)
14.02.2025 22:58 22,4 °C -0,4 °C 48 % 90 % 1028,7 hPa 0,0 l/m² 0,0 km/h (0 Bft) N 355 ° 0 min 0 W/m² -1,8 °C -0,4 °C 0,0 km/h (0 Bft)
14.02.2025 22:59 22,4 °C -0,4 °C 48 % 90 % 1028,8 hPa 0,0 l/m² 0,0 km/h (0 Bft) N 355 ° 0 min 0 W/m² -1,8 °C -0,4 °C 0,0 km/h (0 Bft)
14.02.2025 23:00 22,4 °C -0,4 °C 47 % 90 % 1028,7 hPa 0,0 l/m² 0,0 km/h (0 Bft) N 355 ° 0 min 0 W/m² -1,8 °C -0,4 °C 0,0 km/h (0 Bft)
14.02.2025 23:01 22,4 °C -0,4 °C 47 % 90 % 1028,7 hPa 0,0 l/m² 0,0 km/h (0 Bft) N 355 ° 0 min 0 W/m² -1,8 °C -0,4 °C 0,0 km/h (0 Bft)
14.02.2025 23:02 22,4 °C -0,4 °C 47 % 90 % 1028,8 hPa 0,0 l/m² 0,0 km/h (0 Bft) N 355 ° 0 min 0 W/m² -1,8 °C -0,4 °C 0,0 km/h (0 Bft)
14.02.2025 23:03 22,4 °C -0,5 °C 47 % 90 % 1028,8 hPa 0,0 l/m² 0,0 km/h (0 Bft) N 355 ° 0 min 0 W/m² -1,9 °C -0,5 °C 0,0 km/h (0 Bft)
14.02.2025 23:04 22,4 °C -0,5 °C 48 % 90 % 1028,8 hPa 0,0 l/m² 0,0 km/h (0 Bft) N 355 ° 0 min 0 W/m² -1,9 °C -0,5 °C 0,0 km/h (0 Bft)
14.02.2025 23:05 22,4 °C -0,4 °C 47 % 90 % 1028,8 hPa 0,0 l/m² 0,0 km/h (0 Bft) N 355 ° 0 min 0 W/m² -1,8 °C -0,4 °C 0,0 km/h (0 Bft)
14.02.2025 23:06 22,4 °C -0,5 °C 47 % 90 % 1028,7 hPa 0,0 l/m² 0,0 km/h (0 Bft) N 355 ° 0 min 0 W/m² -1,9 °C -0,5 °C 0,0 km/h (0 Bft)
14.02.2025 23:07 22,5 °C -0,4 °C 47 % 90 % 1028,8 hPa 0,0 l/m² 0,0 km/h (0 Bft) N 355 ° 0 min 0 W/m² -1,8 °C -0,4 °C 0,0 km/h (0 Bft)
14.02.2025 23:08 22,4 °C -0,4 °C 47 % 90 % 1028,8 hPa 0,0 l/m² 0,0 km/h (0 Bft) N 355 ° 0 min 0 W/m² -1,8 °C -0,4 °C 0,0 km/h (0 Bft)
14.02.2025 23:09 22,4 °C -0,5 °C 47 % 90 % 1028,8 hPa 0,0 l/m² 0,0 km/h (0 Bft) N 355 ° 0 min 0 W/m² -1,9 °C -0,5 °C 0,0 km/h (0 Bft)
14.02.2025 23:10 22,4 °C -0,4 °C 47 % 90 % 1028,8 hPa 0,0 l/m² 0,0 km/h (0 Bft) N 355 ° 0 min 0 W/m² -1,8 °C -0,4 °C 0,0 km/h (0 Bft)
14.02.2025 23:11 22,4 °C -0,4 °C 47 % 90 % 1028,8 hPa 0,0 l/m² 0,0 km/h (0 Bft) N 355 ° 0 min 0 W/m² -1,8 °C -0,4 °C 0,0 km/h (0 Bft)
14.02.2025 23:12 22,4 °C -0,4 °C 47 % 90 % 1028,8 hPa 0,0 l/m² 0,0 km/h (0 Bft) N 355 ° 0 min 0 W/m² -1,8 °C -0,4 °C 0,0 km/h (0 Bft)
14.02.2025 23:13 22,4 °C -0,4 °C 47 % 90 % 1028,8 hPa 0,0 l/m² 0,0 km/h (0 Bft) N 355 ° 0 min 0 W/m² -1,8 °C -0,4 °C 0,0 km/h (0 Bft)
14.02.2025 23:14 22,4 °C -0,4 °C 48 % 90 % 1028,8 hPa 0,0 l/m² 0,0 km/h (0 Bft) N 355 ° 0 min 0 W/m² -1,8 °C -0,4 °C 0,0 km/h (0 Bft)
14.02.2025 23:15 22,4 °C -0,4 °C 47 % 90 % 1028,8 hPa 0,0 l/m² 0,0 km/h (0 Bft) N 355 ° 0 min 0 W/m² -1,8 °C -0,4 °C 0,0 km/h (0 Bft)
14.02.2025 23:16 22,4 °C -0,5 °C 47 % 90 % 1028,8 hPa 0,0 l/m² 0,0 km/h (0 Bft) N 0 ° 0 min 0 W/m² -1,9 °C -0,5 °C 0,0 km/h (0 Bft)
14.02.2025 23:17 22,4 °C -0,5 °C 47 % 90 % 1028,7 hPa 0,0 l/m² 0,0 km/h (0 Bft) N 0 ° 0 min 0 W/m² -1,9 °C -0,5 °C 0,0 km/h (0 Bft)
14.02.2025 23:22 22,4 °C -0,5 °C 48 % 90 % 1028,8 hPa 0,0 l/m² 0,0 km/h (0 Bft) N 355 ° 0 min 0 W/m² -1,9 °C -0,5 °C 0,0 km/h (0 Bft)
14.02.2025 23:24 22,4 °C -0,5 °C 48 % 90 % 1028,7 hPa 0,0 l/m² 0,0 km/h (0 Bft) N 355 ° 0 min 0 W/m² -1,9 °C -0,5 °C 0,0 km/h (0 Bft)
14.02.2025 23:25 22,4 °C -0,5 °C 48 % 90 % 1028,7 hPa 0,0 l/m² 0,0 km/h (0 Bft) N 355 ° 0 min 0 W/m² -1,9 °C -0,5 °C 0,0 km/h (0 Bft)
14.02.2025 23:27 22,4 °C -0,5 °C 47 % 90 % 1028,8 hPa 0,0 l/m² 0,0 km/h (0 Bft) N 355 ° 0 min 0 W/m² -1,9 °C -0,5 °C 0,0 km/h (0 Bft)
14.02.2025 23:28 22,4 °C -0,5 °C 47 % 90 % 1028,7 hPa 0,0 l/m² 0,0 km/h (0 Bft) N 355 ° 0 min 0 W/m² -1,9 °C -0,5 °C 0,0 km/h (0 Bft)
14.02.2025 23:29 22,4 °C -0,5 °C 48 % 90 % 1028,8 hPa 0,0 l/m² 0,0 km/h (0 Bft) N 355 ° 0 min 0 W/m² -1,9 °C -0,5 °C 0,0 km/h (0 Bft)
14.02.2025 23:31 22,4 °C -0,5 °C 48 % 90 % 1028,8 hPa 0,0 l/m² 0,0 km/h (0 Bft) N 355 ° 0 min 0 W/m² -1,9 °C -0,5 °C 0,0 km/h (0 Bft)
14.02.2025 23:32 22,4 °C -0,6 °C 48 % 90 % 1028,8 hPa 0,0 l/m² 0,0 km/h (0 Bft) N 355 ° 0 min 0 W/m² -2,0 °C -0,6 °C 0,0 km/h (0 Bft)
14.02.2025 23:34 22,4 °C -0,6 °C 48 % 90 % 1028,7 hPa 0,0 l/m² 0,0 km/h (0 Bft) N 355 ° 0 min 0 W/m² -2,0 °C -0,6 °C 0,0 km/h (0 Bft)
14.02.2025 23:36 22,4 °C -0,6 °C 47 % 90 % 1028,8 hPa 0,0 l/m² 0,0 km/h (0 Bft) N 355 ° 0 min 0 W/m² -2,0 °C -0,6 °C 0,0 km/h (0 Bft)
14.02.2025 23:38 22,4 °C -0,6 °C 48 % 90 % 1028,7 hPa 0,0 l/m² 0,0 km/h (0 Bft) N 355 ° 0 min 0 W/m² -2,0 °C -0,6 °C 0,0 km/h (0 Bft)
14.02.2025 23:40 22,4 °C -0,6 °C 48 % 90 % 1028,7 hPa 0,0 l/m² 0,0 km/h (0 Bft) N 355 ° 0 min 0 W/m² -2,0 °C -0,6 °C 0,0 km/h (0 Bft)
14.02.2025 23:41 22,4 °C -0,6 °C 48 % 90 % 1028,8 hPa 0,0 l/m² 0,0 km/h (0 Bft) N 355 ° 0 min 0 W/m² -2,0 °C -0,6 °C 0,0 km/h (0 Bft)
14.02.2025 23:42 22,4 °C -0,6 °C 48 % 90 % 1028,8 hPa 0,0 l/m² 0,0 km/h (0 Bft) N 355 ° 0 min 0 W/m² -2,0 °C -0,6 °C 0,0 km/h (0 Bft)
14.02.2025 23:45 22,4 °C -0,6 °C 48 % 90 % 1028,8 hPa 0,0 l/m² 0,0 km/h (0 Bft) N 355 ° 0 min 0 W/m² -2,0 °C -0,6 °C 0,0 km/h (0 Bft)
14.02.2025 23:47 22,4 °C -0,6 °C 47 % 90 % 1028,8 hPa 0,0 l/m² 0,0 km/h (0 Bft) N 355 ° 0 min 0 W/m² -2,0 °C -0,6 °C 0,0 km/h (0 Bft)
14.02.2025 23:49 22,4 °C -0,6 °C 47 % 90 % 1028,8 hPa 0,0 l/m² 0,0 km/h (0 Bft) N 355 ° 0 min 0 W/m² -2,0 °C -0,6 °C 0,0 km/h (0 Bft)
14.02.2025 23:50 22,4 °C -0,6 °C 47 % 90 % 1028,8 hPa 0,0 l/m² 0,0 km/h (0 Bft) N 355 ° 0 min 0 W/m² -2,0 °C -0,6 °C 0,0 km/h (0 Bft)
14.02.2025 23:51 22,4 °C -0,6 °C 47 % 90 % 1028,7 hPa 0,0 l/m² 0,0 km/h (0 Bft) N 355 ° 0 min 0 W/m² -2,0 °C -0,6 °C 0,0 km/h (0 Bft)
14.02.2025 23:52 22,4 °C -0,6 °C 47 % 90 % 1028,7 hPa 0,0 l/m² 0,0 km/h (0 Bft) N 355 ° 0 min 0 W/m² -2,0 °C -0,6 °C 0,0 km/h (0 Bft)
14.02.2025 23:54 22,4 °C -0,6 °C 47 % 90 % 1028,8 hPa 0,0 l/m² 0,0 km/h (0 Bft) N 355 ° 0 min 0 W/m² -2,0 °C -0,6 °C 0,0 km/h (0 Bft)
14.02.2025 23:56 22,4 °C -0,7 °C 47 % 90 % 1028,7 hPa 0,0 l/m² 0,0 km/h (0 Bft) N 355 ° 0 min 0 W/m² -2,1 °C -0,7 °C 0,0 km/h (0 Bft)
14.02.2025 23:58 22,4 °C -0,6 °C 47 % 90 % 1028,7 hPa 0,0 l/m² 0,0 km/h (0 Bft) N 355 ° 0 min 0 W/m² -2,0 °C -0,6 °C 0,0 km/h (0 Bft)
_ Min-Zeit 07:43 00:04 16:55 13:10 00:14 - 23:58 - - - - 00:04 06:31 23:58
Minimum _ 21,9 °C -1,3 °C 43 % 86 % 1019,6 hPa - 0,0 km/h (0 Bft) - - - - -2,6 °C -8,6 °C 0,0 km/h (0 Bft)
_ Max-Zeit 14:42 16:09 21:33 08:04 22:46 15:25 09:40 - - 12:05 12:26 16:09 16:09 13:20
Maximum _ 22,6 °C 1,3 °C 50 % 92 % 1028,9 hPa 0,2 l/m² 17,6 km/h
N (3 Bft)
- - 3 min 281 W/m² -0,5 °C 1,3 °C 24,1 km/h
N-NW (4 Bft)
Durchschnitt _ 22,2 °C -0,0 °C 46 % 90 % 1025,0 hPa #2,4 l/m² 5,9 km/h (2 Bft) N-NW - #5:50 h 44 W/m² -1,5 °C -1,6 °C 9,8 km/h (2 Bft)
© 2009 Mathias Hoßbach